[[{"header":{"parameterUnit":"m.s-1","parameterCategory":1,"la1":31.0,"la2":29.5877,"lo1":-88.7671,"lo2":-86.6584,"dy":0.0162,"dx":0.0185,"nx":115,"ny":88,"refTime":"2023-07-10T06:00:00:Z","depth":0,"parameterNumber":2,"parameterNumberName":"U-component_of_WINDS"},"data":[0.0,0.0,0.0,0.0,0.0,0.0,0.0,0.0,0.0,0.0,0.0,0.0,0.0,0.0,0.0,0.0,0.0,0.0,0.0,0.0,0.0,0.0,0.0,0.0,0.0,0.0,0.0,0.0,0.0,0.0,0.0,0.0,0.0,0.0,0.0,0.0,0.0,0.0,0.0,0.0,0.0,0.0,0.0,0.0,0.0,0.0,0.0,0.0,0.0,0.0,0.0,0.0,0.0,0.0,0.0,0.0,0.0,0.0,0.0,0.0,0.0,0.0,0.0,0.0,0.0,0.0,0.0,0.0,0.0,0.0,0.0,0.0,0.0,0.0,0.0,0.0,0.0,0.0,0.0,0.0,0.0,0.0,0.0,0.0,0.0,0.0,0.0,0.0,0.0,0.0,0.0,0.0,0.0,0.0,0.0,0.0,0.0,0.0,0.0,0.0,0.0,0.0,0.0,0.0,0.0,0.0,0.0,0.0,0.0,0.0,0.0,0.0,0.0,0.0,0.0,0.0,0.0,0.0,0.0,0.0,0.0,0.0,0.0,0.0,0.0,0.0,0.0,0.0,0.0,0.0,0.0,0.0,0.0,0.0,0.0,0.0,0.0,0.0,0.0,0.0,0.0,0.0,0.0,0.0,0.0,0.0,0.0,0.0,0.0,0.0,0.0,0.0,0.0,0.0,0.0,0.0,0.0,0.0,0.0,0.0,0.0,0.0,0.0,0.0,0.0,0.0,0.0,0.0,0.0,0.0,0.0,0.0,0.0,0.0,0.0,0.0,0.0,0.0,0.0,0.0,0.0,0.0,0.0,0.0,0.0,0.0,0.0,0.0,0.0,0.0,0.0,0.0,0.0,0.0,0.0,0.0,0.0,0.0,0.0,0.0,0.0,0.0,0.0,0.0,0.0,0.0,0.0,0.0,0.0,0.0,0.0,0.0,0.0,0.0,0.0,0.0,0.0,0.0,0.0,0.0,0.0,0.0,0.0,0.0,0.0,0.0,0.0,0.0,0.0,0.0,0.0,0.0,0.0,0.0,0.0,0.0,0.0,0.0,0.0,0.0,0.0,0.0,0.0,0.0,0.0,0.0,0.0,0.0,0.0,0.0,0.0,0.0,0.0,0.0,0.0,0.0,0.0,0.0,0.0,0.0,0.0,0.0,0.0,0.0,0.0,0.0,0.0,0.0,0.0,0.0,0.0,0.0,0.0,0.0,0.0,0.0,0.0,0.0,0.0,0.0,0.0,0.0,0.0,0.0,0.0,0.0,0.0,0.0,0.0,0.0,0.0,0.0,0.0,0.0,0.0,0.0,0.0,0.0,0.0,0.0,0.0,0.0,0.0,0.0,0.0,0.0,0.0,0.0,0.0,0.0,0.0,0.0,0.0,0.0,0.0,0.0,0.0,0.0,0.0,0.0,0.0,0.0,0.0,0.0,0.0,0.0,0.0,0.0,0.0,0.0,0.0,0.0,0.0,0.0,0.0,0.0,0.0,0.0,0.0,0.0,0.0,0.0,0.0,0.0,0.0,0.0,0.0,0.0,0.0,0.0,0.0,0.0,0.0,0.0,0.0,0.0,0.0,0.0,0.0,0.0,0.0,0.0,0.0,0.0,0.0,0.0,0.0,0.0,0.0,0.0,0.0,0.0,0.0,0.0,0.0,0.0,0.0,0.0,0.0,0.0,0.0,0.0,0.0,0.0,0.0,0.0,0.0,0.0,0.0,0.0,0.0,0.0,0.0,0.0,0.0,0.0,0.0,0.0,0.0,0.0,0.0,0.0,0.0,0.0,0.0,0.0,0.0,0.0,0.0,0.0,0.0,0.0,0.0,0.0,0.0,0.0,0.0,0.0,0.0,0.0,0.0,0.0,0.0,0.0,0.0,0.0,0.0,0.0,0.0,0.0,0.0,0.0,0.0,0.0,0.0,0.0,0.0,0.0,0.0,0.0,0.0,0.0,0.0,0.0,0.0,0.0,0.0,0.0,0.0,0.0,0.0,0.0,0.0,0.0,0.0,0.0,0.0,0.0,0.0,0.0,0.0,0.0,0.0,0.0,0.0,0.0,0.0,0.0,0.0,0.0,0.0,0.0,0.0,0.0,0.0,0.0,0.0,0.0,0.0,0.0,0.0,0.0,0.0,0.0,0.0,0.0,0.0,0.0,0.0,0.0,0.0,0.0,0.0,0.0,0.0,0.0,0.0,0.0,0.0,0.0,0.0,0.0,0.0,0.0,0.0,0.0,0.0,0.0,0.0,0.0,0.0,0.0,0.0,0.0,0.0,0.0,0.0,0.0,0.0,0.0,0.0,0.0,0.0,0.0,0.0,0.0,0.0,0.0,0.0,0.0,0.0,0.0,0.0,0.0,0.0,0.0,0.0,0.0,0.0,0.0,0.0,0.0,0.0,0.0,0.0,0.0,0.0,0.0,0.0,0.0,0.0,0.0,0.0,0.0,0.0,0.0,0.0,0.0,0.0,0.0,0.0,0.0,0.0,0.0,0.0,0.0,0.0,0.0,0.0,0.0,0.0,0.0,0.0,0.0,0.0,0.0,0.0,0.0,0.0,0.0,0.0,0.0,0.0,0.0,0.0,0.0,0.0,0.0,0.0,0.0,0.0,0.0,0.0,0.0,0.0,0.0,0.0,0.0,0.0,0.0,0.0,0.0,0.0,0.0,0.0,0.0,0.0,0.0,0.0,0.0,0.0,0.0,0.0,0.0,0.0,0.0,0.0,0.0,0.0,0.0,0.0,0.0,0.0,0.0,0.0,0.0,0.0,0.0,0.0,0.0,0.0,0.0,0.0,0.0,0.0,0.0,0.0,0.0,0.0,0.0,0.0,0.0,0.0,0.0,0.0,0.0,0.0,0.0,0.0,0.0,0.0,0.0,0.0,0.0,0.0,0.0,0.0,0.0,0.0,0.0,0.0,0.0,0.0,0.0,0.0,0.0,0.0,0.0,0.0,0.0,0.0,0.0,0.0,0.0,0.0,0.0,0.0,0.0,0.0,0.0,0.0,0.0,0.0,0.0,0.0,0.0,0.0,0.0,0.0,0.0,0.0,0.0,0.0,0.0,0.0,0.0,0.0,0.0,0.0,0.0,0.0,0.0,0.0,0.0,0.0,0.0,0.0,0.0,0.0,0.0,0.0,0.0,0.0,0.0,0.0,0.0,0.0,0.0,0.0,0.0,0.0,0.0,0.0,0.0,0.0,0.0,0.0,0.0,0.0,0.0,0.0,0.0,0.0,0.0,0.0,0.0,0.0,0.0,0.0,0.0,0.0,0.0,0.0,0.0,0.0,0.0,0.0,0.0,0.0,0.0,0.0,0.0,0.0,0.0,0.0,0.0,0.0,0.0,0.0,0.0,0.0,0.0,0.0,0.0,0.0,0.0,0.0,0.0,0.0,0.0,0.0,0.0,0.0,0.0,0.0,0.0,0.0,0.0,0.0,0.0,0.0,0.0,0.0,0.0,0.0,0.0,0.0,0.0,0.0,0.0,0.0,0.0,0.0,0.0,0.0,0.0,0.0,0.0,0.0,0.0,0.0,0.0,0.0,0.0,0.0,0.0,0.0,0.0,0.0,0.0,0.0,0.0,0.0,0.0,0.0,0.0,0.0,0.0,0.0,0.0,0.0,0.0,0.0,0.0,0.0,0.0,0.0,0.0,0.0,0.0,0.0,0.0,0.0,0.0,0.0,0.0,0.0,0.0,0.0,0.0,0.0,0.0,0.0,0.0,0.0,0.0,0.0,0.0,0.0,0.0,0.0,0.0,0.0,0.0,0.0,0.0,0.0,0.0,0.0,0.0,0.0,0.0,0.0,0.0,0.0,0.0,0.0,0.0,0.0,0.0,0.0,0.0,0.0,0.0,0.0,0.0,0.0,0.0,0.0,0.0,0.0,0.0,0.0,0.0,0.0,0.0,0.0,0.0,0.0,0.0,0.0,0.0,0.0,0.0,0.0,0.0,0.0,0.0,0.0,0.0,0.0,0.0,0.0,0.0,0.0,0.0,0.0,0.0,0.0,0.0,0.0,0.0,0.0,0.0,0.0,0.0,0.0,0.0,0.0,0.0,0.0,0.0,0.0,0.0,0.0,0.0,0.0,0.0,0.0,0.0,0.0,0.0,0.0,0.0,0.0,0.0,0.0,0.0,0.0,0.0,0.0,0.0,0.0,0.0,0.0,0.0,0.0,0.0,0.0,0.0,0.0,0.0,0.0,0.0,0.0,0.0,0.0,0.0,0.0,0.0,0.0,0.0,0.0,0.0,0.0,0.0,-2.9502,0.0,0.0,0.0,0.0,0.0,0.0,0.0,0.0,0.0,0.0,0.0,0.0,0.0,0.0,0.0,0.0,0.0,0.0,0.0,0.0,0.0,0.0,0.0,0.0,0.0,0.0,0.0,0.0,0.0,0.0,0.0,0.0,0.0,0.0,0.0,0.0,0.0,0.0,0.0,0.0,0.0,0.0,0.0,0.0,0.0,0.0,0.0,0.0,0.0,0.0,0.0,0.0,0.0,0.0,0.0,0.0,0.0,0.0,0.0,0.0,0.0,0.0,0.0,0.0,0.0,0.0,0.0,0.0,0.0,0.0,0.0,0.0,0.0,0.0,0.0,0.0,0.0,0.0,0.0,0.0,0.0,0.0,0.0,0.0,0.0,0.0,0.0,0.0,0.0,0.0,0.0,0.0,0.0,0.0,0.0,0.0,0.0,0.0,0.0,0.0,0.0,0.0,0.0,0.0,0.0,0.0,0.0,0.0,0.0,0.0,-3.1361,-3.1076,-3.1061,-3.0733,-3.0118,0.0,0.0,0.0,0.0,0.0,0.0,0.0,0.0,0.0,0.0,0.0,0.0,0.0,0.0,0.0,0.0,0.0,0.0,0.0,0.0,0.0,0.0,0.0,0.0,0.0,0.0,0.0,0.0,0.0,0.0,0.0,0.0,0.0,0.0,0.0,0.0,0.0,0.0,0.0,0.0,0.0,0.0,0.0,0.0,0.0,0.0,0.0,0.0,0.0,0.0,0.0,0.0,0.0,0.0,0.0,0.0,0.0,0.0,0.0,0.0,0.0,0.0,0.0,0.0,0.0,0.0,0.0,0.0,0.0,0.0,0.0,0.0,0.0,0.0,0.0,0.0,0.0,0.0,0.0,0.0,0.0,0.0,0.0,0.0,0.0,0.0,0.0,0.0,0.0,0.0,0.0,0.0,0.0,0.0,0.0,0.0,0.0,0.0,0.0,0.0,0.0,0.0,0.0,0.0,0.0,0.0,0.0,0.0,0.0,0.0,0.0,0.0,-3.1496,-3.1256,-3.0746,0.0,0.0,0.0,0.0,0.0,0.0,0.0,0.0,0.0,0.0,0.0,0.0,0.0,0.0,0.0,0.0,0.0,0.0,0.0,0.0,0.0,0.0,0.0,0.0,0.0,0.0,0.0,0.0,0.0,0.0,0.0,0.0,0.0,0.0,0.0,0.0,0.0,0.0,0.0,0.0,0.0,0.0,0.0,0.0,0.0,0.0,0.0,0.0,0.0,0.0,0.0,0.0,0.0,0.0,0.0,0.0,0.0,0.0,0.0,0.0,0.0,0.0,0.0,0.0,0.0,0.0,0.0,0.0,0.0,0.0,0.0,0.0,0.0,0.0,0.0,0.0,0.0,0.0,0.0,0.0,0.0,0.0,0.0,0.0,0.0,0.0,0.0,0.0,0.0,0.0,0.0,0.0,0.0,0.0,0.0,0.0,0.0,0.0,0.0,0.0,0.0,0.0,0.0,0.0,0.0,0.0,0.0,0.0,0.0,0.0,-3.1496,-3.1496,-3.1496,0.0,-3.1376,0.0,0.0,0.0,0.0,0.0,0.0,0.0,0.0,0.0,0.0,0.0,0.0,0.0,0.0,0.0,0.0,0.0,0.0,0.0,0.0,0.0,0.0,0.0,0.0,0.0,0.0,0.0,0.0,0.0,0.0,0.0,0.0,0.0,0.0,0.0,0.0,0.0,0.0,0.0,0.0,0.0,0.0,0.0,0.0,0.0,0.0,0.0,0.0,0.0,0.0,0.0,0.0,0.0,0.0,0.0,0.0,0.0,0.0,0.0,0.0,0.0,0.0,0.0,0.0,0.0,0.0,0.0,0.0,0.0,0.0,0.0,0.0,0.0,0.0,0.0,0.0,0.0,0.0,0.0,0.0,0.0,0.0,0.0,0.0,0.0,0.0,0.0,0.0,0.0,0.0,0.0,0.0,0.0,0.0,0.0,0.0,0.0,0.0,0.0,0.0,0.0,0.0,0.0,0.0,0.0,0.0,0.0,0.0,0.0,0.0,-3.1496,-3.1496,-3.1496,-3.1496,0.0,0.0,0.0,0.0,0.0,0.0,0.0,0.0,0.0,0.0,0.0,0.0,0.0,0.0,0.0,0.0,0.0,0.0,0.0,0.0,0.0,0.0,0.0,0.0,0.0,0.0,0.0,0.0,0.0,0.0,0.0,0.0,0.0,0.0,0.0,0.0,0.0,0.0,0.0,0.0,0.0,0.0,0.0,0.0,0.0,0.0,0.0,0.0,0.0,0.0,0.0,0.0,0.0,0.0,0.0,0.0,0.0,0.0,0.0,0.0,0.0,0.0,0.0,0.0,0.0,0.0,0.0,0.0,0.0,0.0,0.0,0.0,0.0,0.0,0.0,0.0,0.0,0.0,0.0,0.0,0.0,0.0,0.0,0.0,0.0,0.0,0.0,0.0,0.0,0.0,0.0,0.0,0.0,0.0,0.0,0.0,0.0,0.0,0.0,0.0,0.0,0.0,0.0,0.0,0.0,0.0,0.0,0.0,0.0,0.0,-3.138,-3.1496,-3.1496,-3.1496,-3.138,-3.119,0.0,0.0,0.0,0.0,0.0,0.0,0.0,0.0,0.0,0.0,0.0,0.0,0.0,0.0,0.0,0.0,0.0,0.0,0.0,0.0,0.0,0.0,0.0,0.0,0.0,0.0,0.0,0.0,0.0,0.0,0.0,0.0,0.0,0.0,0.0,0.0,0.0,0.0,0.0,0.0,0.0,0.0,0.0,0.0,0.0,0.0,0.0,0.0,0.0,0.0,0.0,0.0,0.0,0.0,0.0,0.0,0.0,0.0,0.0,0.0,0.0,0.0,0.0,0.0,0.0,0.0,0.0,0.0,0.0,0.0,0.0,0.0,0.0,0.0,0.0,0.0,0.0,0.0,0.0,0.0,0.0,0.0,0.0,0.0,0.0,0.0,0.0,0.0,0.0,0.0,0.0,0.0,0.0,0.0,0.0,0.0,0.0,0.0,0.0,0.0,0.0,0.0,0.0,0.0,0.0,0.0,0.0,0.0,-3.0389,-3.1087,-3.1511,-3.1467,-3.1496,-3.1117,0.0,0.0,0.0,0.0,0.0,0.0,0.0,0.0,0.0,0.0,0.0,0.0,0.0,0.0,0.0,0.0,0.0,0.0,0.0,0.0,0.0,0.0,0.0,0.0,0.0,0.0,0.0,0.0,0.0,0.0,0.0,0.0,0.0,0.0,0.0,0.0,0.0,0.0,0.0,0.0,0.0,0.0,0.0,0.0,0.0,0.0,0.0,0.0,0.0,0.0,0.0,0.0,0.0,0.0,0.0,0.0,0.0,0.0,0.0,0.0,0.0,0.0,0.0,0.0,0.0,0.0,0.0,0.0,0.0,0.0,0.0,0.0,0.0,0.0,0.0,0.0,0.0,0.0,0.0,0.0,0.0,0.0,0.0,0.0,0.0,0.0,0.0,0.0,0.0,0.0,0.0,0.0,0.0,0.0,0.0,0.0,0.0,0.0,0.0,0.0,0.0,0.0,0.0,0.0,0.0,0.0,0.0,0.0,0.0,-2.9518,-3.0299,-3.0733,-3.0748,-3.0748,-3.0343,0.0,0.0,0.0,0.0,0.0,0.0,0.0,0.0,0.0,0.0,0.0,0.0,0.0,0.0,0.0,0.0,0.0,0.0,0.0,0.0,0.0,0.0,0.0,0.0,0.0,0.0,0.0,0.0,0.0,0.0,0.0,0.0,0.0,0.0,0.0,0.0,0.0,0.0,0.0,0.0,0.0,0.0,0.0,0.0,0.0,0.0,0.0,0.0,0.0,0.0,0.0,0.0,0.0,0.0,0.0,0.0,0.0,0.0,0.0,0.0,0.0,0.0,0.0,0.0,0.0,0.0,0.0,0.0,0.0,0.0,0.0,0.0,0.0,0.0,0.0,0.0,0.0,0.0,0.0,0.0,0.0,0.0,0.0,0.0,0.0,0.0,0.0,0.0,0.0,0.0,0.0,0.0,0.0,0.0,0.0,0.0,0.0,0.0,0.0,0.0,0.0,0.0,0.0,0.0,0.0,0.0,0.0,0.0,0.0,-2.902,0.0,-2.9889,-2.9889,-2.9889,-2.9487,0.0,0.0,0.0,0.0,0.0,0.0,0.0,0.0,0.0,0.0,0.0,0.0,0.0,0.0,0.0,0.0,0.0,0.0,0.0,0.0,0.0,0.0,0.0,0.0,0.0,0.0,0.0,0.0,0.0,0.0,0.0,0.0,0.0,0.0,0.0,0.0,0.0,0.0,0.0,0.0,0.0,0.0,0.0,0.0,0.0,0.0,0.0,0.0,0.0,0.0,0.0,0.0,0.0,0.0,0.0,0.0,0.0,0.0,0.0,0.0,0.0,0.0,0.0,0.0,0.0,0.0,0.0,0.0,0.0,0.0,0.0,0.0,0.0,0.0,0.0,0.0,0.0,0.0,0.0,0.0,0.0,0.0,0.0,0.0,0.0,0.0,0.0,0.0,0.0,0.0,0.0,0.0,0.0,0.0,0.0,0.0,0.0,0.0,0.0,0.0,0.0,0.0,0.0,0.0,0.0,0.0,0.0,0.0,-2.8953,-2.8957,-2.8971,-2.9002,-2.9002,-2.8989,-2.8588,0.0,0.0,0.0,0.0,0.0,0.0,0.0,0.0,0.0,0.0,0.0,0.0,0.0,0.0,0.0,0.0,0.0,0.0,0.0,0.0,0.0,0.0,0.0,0.0,0.0,0.0,0.0,0.0,0.0,0.0,0.0,0.0,0.0,0.0,0.0,0.0,0.0,0.0,0.0,0.0,0.0,0.0,0.0,0.0,0.0,0.0,0.0,0.0,0.0,0.0,0.0,0.0,0.0,0.0,0.0,0.0,0.0,0.0,0.0,0.0,0.0,0.0,0.0,0.0,0.0,0.0,0.0,0.0,0.0,0.0,0.0,0.0,0.0,0.0,0.0,0.0,0.0,0.0,0.0,0.0,0.0,0.0,0.0,0.0,0.0,0.0,0.0,0.0,0.0,0.0,0.0,0.0,0.0,0.0,0.0,0.0,0.0,0.0,0.0,0.0,0.0,0.0,0.0,0.0,0.0,0.0,0.0,0.0,0.0,-2.8111,-2.8117,-2.8117,-2.8117,-2.8117,-2.7736,0.0,0.0,0.0,0.0,0.0,0.0,0.0,0.0,0.0,0.0,0.0,0.0,0.0,0.0,0.0,0.0,0.0,0.0,0.0,0.0,0.0,0.0,0.0,0.0,0.0,0.0,0.0,0.0,0.0,0.0,0.0,0.0,0.0,0.0,0.0,0.0,0.0,0.0,0.0,0.0,0.0,0.0,0.0,0.0,0.0,0.0,0.0,0.0,0.0,0.0,0.0,0.0,0.0,0.0,0.0,0.0,0.0,0.0,0.0,0.0,0.0,0.0,0.0,0.0,0.0,0.0,0.0,0.0,0.0,0.0,0.0,0.0,0.0,0.0,0.0,0.0,0.0,0.0,0.0,0.0,0.0,0.0,0.0,0.0,0.0,0.0,0.0,0.0,0.0,0.0,0.0,0.0,0.0,0.0,0.0,0.0,0.0,0.0,0.0,0.0,0.0,0.0,0.0,0.0,0.0,0.0,0.0,0.0,0.0,-2.7842,-2.7644,-2.754,-2.754,-2.7333,-2.7007,-2.6521,0.0,0.0,0.0,0.0,0.0,0.0,0.0,0.0,0.0,0.0,0.0,0.0,0.0,0.0,0.0,0.0,0.0,0.0,0.0,0.0,0.0,0.0,0.0,0.0,0.0,0.0,0.0,0.0,0.0,0.0,0.0,0.0,0.0,0.0,0.0,0.0,0.0,0.0,0.0,0.0,0.0,0.0,0.0,0.0,0.0,0.0,0.0,0.0,0.0,0.0,0.0,0.0,0.0,0.0,0.0,0.0,0.0,0.0,0.0,0.0,0.0,0.0,0.0,0.0,0.0,0.0,0.0,0.0,0.0,0.0,0.0,0.0,0.0,0.0,0.0,0.0,0.0,0.0,0.0,0.0,0.0,0.0,0.0,0.0,0.0,0.0,0.0,0.0,0.0,0.0,0.0,0.0,0.0,0.0,0.0,0.0,0.0,0.0,0.0,0.0,0.0,0.0,0.0,0.0,0.0,0.0,0.0,0.0,-2.8197,-2.7657,-2.7392,-2.7354,-2.6864,-2.6587,0.0,0.0,0.0,0.0,0.0,0.0,0.0,0.0,0.0,0.0,0.0,0.0,0.0,0.0,0.0,0.0,0.0,0.0,0.0,0.0,0.0,0.0,0.0,0.0,0.0,0.0,0.0,0.0,0.0,0.0,0.0,0.0,0.0,0.0,0.0,0.0,0.0,0.0,0.0,0.0,0.0,0.0,0.0,0.0,0.0,0.0,0.0,0.0,0.0,0.0,0.0,0.0,0.0,0.0,0.0,0.0,0.0,0.0,0.0,0.0,0.0,0.0,0.0,0.0,0.0,0.0,0.0,0.0,0.0,0.0,0.0,0.0,0.0,0.0,0.0,0.0,0.0,0.0,0.0,0.0,0.0,0.0,0.0,0.0,0.0,0.0,0.0,0.0,0.0,0.0,0.0,0.0,0.0,0.0,0.0,0.0,0.0,0.0,0.0,0.0,0.0,0.0,0.0,0.0,0.0,0.0,0.0,0.0,0.0,-2.9327,-2.8787,-2.831,-2.7908,-2.7745,-2.767,0.0,0.0,0.0,0.0,0.0,0.0,0.0,0.0,0.0,0.0,0.0,0.0,0.0,0.0,0.0,0.0,0.0,0.0,0.0,0.0,0.0,0.0,0.0,0.0,0.0,0.0,0.0,0.0,0.0,0.0,0.0,0.0,0.0,0.0,0.0,0.0,0.0,0.0,0.0,0.0,0.0,0.0,0.0,0.0,0.0,0.0,0.0,0.0,0.0,0.0,0.0,0.0,0.0,0.0,0.0,0.0,0.0,0.0,0.0,0.0,0.0,0.0,0.0,0.0,0.0,0.0,0.0,0.0,0.0,0.0,0.0,0.0,0.0,0.0,0.0,0.0,0.0,0.0,0.0,0.0,0.0,0.0,0.0,0.0,0.0,0.0,0.0,0.0,0.0,0.0,0.0,0.0,0.0,0.0,0.0,0.0,0.0,0.0,0.0,0.0,0.0,0.0,0.0,0.0,0.0,0.0,0.0,0.0,-2.9779,-2.9779,-2.9465,-2.9139,-2.8812,-2.8348,-2.8109,0.0,0.0,0.0,0.0,0.0,0.0,0.0,0.0,0.0,0.0,0.0,0.0,0.0,0.0,0.0,0.0,0.0,0.0,0.0,0.0,0.0,0.0,0.0,0.0,0.0,0.0,0.0,0.0,0.0,0.0,0.0,0.0,0.0,0.0,0.0,0.0,0.0,0.0,0.0,0.0,0.0,0.0,0.0,0.0,0.0,0.0,0.0,0.0,0.0,0.0,0.0,0.0,0.0,0.0,0.0,0.0,0.0,0.0,0.0,0.0,0.0,0.0,0.0,0.0,0.0,0.0,0.0,0.0,0.0,0.0,0.0,0.0,0.0,0.0,0.0,0.0,0.0,0.0,0.0,0.0,0.0,0.0,0.0,0.0,0.0,0.0,0.0,0.0,0.0,0.0,0.0,0.0,0.0,0.0,0.0,0.0,0.0,0.0,0.0,0.0,0.0,0.0,0.0,0.0,0.0,0.0,0.0,0.0,-2.9779,-2.9779,-2.9779,-2.9779,-2.9754,-2.88,-2.8273,0.0,0.0,0.0,0.0,0.0,0.0,0.0,0.0,0.0,0.0,0.0,0.0,0.0,0.0,0.0,0.0,0.0,0.0,0.0,0.0,0.0,0.0,0.0,0.0,0.0,0.0,0.0,0.0,0.0,0.0,0.0,0.0,0.0,0.0,0.0,0.0,0.0,0.0,0.0,0.0,0.0,0.0,0.0,0.0,0.0,0.0,0.0,0.0,0.0,0.0,0.0,0.0,0.0,0.0,0.0,0.0,0.0,0.0,0.0,0.0,0.0,0.0,0.0,0.0,0.0,0.0,0.0,0.0,0.0,0.0,0.0,0.0,0.0,0.0,0.0,0.0,0.0,0.0,0.0,0.0,0.0,0.0,0.0,0.0,0.0,0.0,0.0,0.0,0.0,0.0,0.0,0.0,0.0,0.0,0.0,0.0,0.0,0.0,0.0,0.0,0.0,0.0,0.0,0.0,0.0,0.0,0.0,0.0,-2.9779,-2.9779,-2.9779,-2.9779,-2.9779,-2.9553,-2.944,0.0,0.0,0.0,0.0,0.0,0.0,0.0,0.0,0.0,0.0,0.0,0.0,0.0,0.0,0.0,0.0,0.0,0.0,0.0,0.0,0.0,0.0,0.0,0.0,0.0,0.0,0.0,0.0,0.0,0.0,0.0,0.0,0.0,0.0,0.0,0.0,0.0,0.0,0.0,0.0,0.0,0.0,0.0,0.0,0.0,0.0,0.0,0.0,-1.8008,0.0,0.0,0.0,0.0,0.0,0.0,0.0,0.0,0.0,0.0,0.0,0.0,0.0,0.0,0.0,0.0,0.0,0.0,0.0,0.0,0.0,0.0,0.0,0.0,0.0,0.0,0.0,0.0,0.0,0.0,0.0,0.0,0.0,0.0,0.0,0.0,0.0,0.0,0.0,0.0,0.0,0.0,0.0,0.0,0.0,0.0,0.0,0.0,0.0,0.0,0.0,0.0,0.0,0.0,0.0,0.0,0.0,0.0,0.0,-2.9779,-2.9779,-2.9779,-2.9779,-2.9779,-2.9779,-2.9779,0.0,0.0,0.0,0.0,0.0,0.0,0.0,0.0,0.0,0.0,0.0,0.0,0.0,0.0,0.0,0.0,0.0,0.0,0.0,0.0,0.0,0.0,0.0,0.0,0.0,0.0,0.0,0.0,0.0,0.0,0.0,0.0,0.0,0.0,0.0,0.0,0.0,0.0,0.0,0.0,0.0,0.0,0.0,0.0,0.0,0.0,0.0,0.0,0.0,0.0,0.0,0.0,0.0,0.0,0.0,0.0,0.0,0.0,0.0,0.0,0.0,0.0,0.0,0.0,0.0,0.0,0.0,0.0,0.0,0.0,0.0,0.0,0.0,0.0,0.0,0.0,0.0,0.0,0.0,0.0,0.0,0.0,0.0,0.0,0.0,0.0,0.0,0.0,0.0,0.0,0.0,0.0,0.0,0.0,0.0,0.0,0.0,0.0,0.0,0.0,0.0,0.0,0.0,0.0,0.0,0.0,0.0,-2.9779,-2.9779,-2.9779,-2.9779,-2.9779,-2.9779,-2.9779,-2.9779,-2.9779,0.0,0.0,0.0,0.0,0.0,0.0,0.0,0.0,0.0,0.0,0.0,0.0,0.0,0.0,0.0,0.0,0.0,0.0,0.0,0.0,0.0,0.0,0.0,0.0,0.0,0.0,0.0,0.0,0.0,0.0,0.0,0.0,0.0,0.0,0.0,0.0,0.0,0.0,-1.8291,-1.8105,0.0,0.0,0.0,0.0,0.0,0.0,0.0,0.0,-1.8203,0.0,0.0,0.0,0.0,0.0,0.0,0.0,0.0,0.0,0.0,0.0,0.0,0.0,0.0,0.0,0.0,0.0,0.0,0.0,0.0,0.0,0.0,0.0,0.0,0.0,0.0,0.0,0.0,0.0,0.0,0.0,0.0,0.0,0.0,0.0,0.0,0.0,0.0,0.0,0.0,0.0,0.0,0.0,0.0,0.0,0.0,0.0,0.0,0.0,0.0,0.0,0.0,0.0,0.0,0.0,0.0,-2.9779,-2.9779,-2.9779,-2.9779,-2.9779,-2.9779,-2.9779,-2.9779,-2.9779,-2.9779,0.0,0.0,0.0,0.0,0.0,0.0,0.0,0.0,0.0,0.0,0.0,0.0,0.0,0.0,0.0,0.0,0.0,0.0,0.0,0.0,0.0,0.0,0.0,0.0,0.0,0.0,0.0,0.0,0.0,0.0,0.0,0.0,0.0,0.0,0.0,0.0,0.0,0.0,0.0,-1.85,-1.8637,0.0,0.0,0.0,0.0,0.0,0.0,0.0,0.0,-1.9082,0.0,0.0,0.0,0.0,0.0,0.0,0.0,0.0,0.0,0.0,0.0,0.0,0.0,0.0,0.0,0.0,0.0,0.0,0.0,0.0,0.0,0.0,0.0,0.0,0.0,0.0,0.0,0.0,0.0,0.0,0.0,0.0,0.0,0.0,0.0,0.0,0.0,0.0,0.0,0.0,0.0,0.0,0.0,0.0,0.0,0.0,0.0,0.0,0.0,0.0,0.0,0.0,0.0,0.0,0.0,-2.9779,-2.9779,-2.9779,-2.9779,-2.9779,-2.9779,-2.9779,-2.9779,-2.9779,0.0,0.0,0.0,0.0,0.0,0.0,0.0,0.0,0.0,0.0,0.0,0.0,0.0,0.0,0.0,0.0,0.0,0.0,0.0,0.0,0.0,0.0,0.0,0.0,0.0,0.0,0.0,0.0,0.0,0.0,0.0,0.0,0.0,0.0,0.0,0.0,0.0,0.0,0.0,0.0,-1.8939,-1.9053,-1.9268,0.0,0.0,0.0,0.0,0.0,0.0,-1.9277,-1.9277,0.0,0.0,0.0,0.0,0.0,0.0,0.0,0.0,0.0,0.0,0.0,0.0,0.0,0.0,0.0,0.0,0.0,0.0,0.0,0.0,0.0,0.0,0.0,0.0,0.0,0.0,0.0,0.0,0.0,0.0,0.0,0.0,0.0,0.0,0.0,0.0,0.0,0.0,0.0,0.0,0.0,0.0,0.0,0.0,0.0,0.0,0.0,0.0,0.0,0.0,0.0,0.0,0.0,0.0,0.0,-2.9779,-2.9779,-2.9779,-2.9779,-2.9779,-2.9779,-2.9779,-2.9779,-2.9779,0.0,0.0,0.0,0.0,0.0,0.0,0.0,0.0,0.0,0.0,0.0,0.0,0.0,0.0,0.0,0.0,0.0,0.0,0.0,0.0,0.0,0.0,0.0,0.0,0.0,0.0,0.0,0.0,0.0,0.0,0.0,0.0,0.0,0.0,0.0,0.0,0.0,0.0,0.0,0.0,0.0,-1.9443,-1.9568,-1.9588,0.0,0.0,0.0,0.0,-1.9551,-1.9541,0.0,0.0,0.0,0.0,0.0,0.0,0.0,0.0,0.0,0.0,0.0,0.0,0.0,0.0,0.0,0.0,0.0,0.0,0.0,0.0,0.0,0.0,0.0,0.0,0.0,0.0,0.0,0.0,0.0,0.0,0.0,0.0,0.0,0.0,0.0,0.0,0.0,0.0,0.0,0.0,0.0,0.0,0.0,0.0,0.0,0.0,0.0,0.0,0.0,0.0,0.0,0.0,0.0,0.0,0.0,0.0,-2.9779,-2.9779,-2.9779,-2.9779,-2.9779,-2.9779,-2.9779,-2.9779,-2.9779,0.0,0.0,0.0,0.0,0.0,0.0,0.0,0.0,0.0,0.0,0.0,0.0,0.0,0.0,0.0,0.0,0.0,0.0,0.0,0.0,0.0,0.0,0.0,0.0,0.0,0.0,0.0,0.0,0.0,0.0,0.0,0.0,0.0,0.0,0.0,0.0,0.0,0.0,0.0,0.0,0.0,-1.998,-2.04,-2.0458,-2.0449,0.0,0.0,-2.0458,-2.0449,-2.0458,0.0,0.0,0.0,0.0,0.0,0.0,0.0,0.0,0.0,0.0,0.0,0.0,0.0,0.0,0.0,0.0,0.0,0.0,0.0,0.0,0.0,0.0,0.0,0.0,0.0,0.0,0.0,0.0,0.0,0.0,0.0,0.0,0.0,0.0,0.0,0.0,0.0,0.0,0.0,0.0,0.0,0.0,0.0,0.0,0.0,0.0,0.0,0.0,0.0,0.0,0.0,0.0,0.0,0.0,0.0,-2.9942,-3.0231,-2.9955,-2.9779,-2.9779,-2.9779,-2.9779,-2.9779,-2.9779,-2.9779,0.0,0.0,0.0,0.0,0.0,0.0,0.0,0.0,0.0,0.0,0.0,0.0,0.0,0.0,0.0,0.0,0.0,0.0,0.0,0.0,0.0,0.0,0.0,0.0,0.0,0.0,0.0,0.0,0.0,0.0,0.0,0.0,0.0,0.0,0.0,0.0,0.0,0.0,0.0,0.0,0.0,0.0,-2.0586,-2.0615,0.0,0.0,0.0,-2.0615,-2.0615,0.0,0.0,0.0,0.0,0.0,0.0,0.0,0.0,0.0,0.0,0.0,0.0,0.0,0.0,0.0,0.0,0.0,0.0,0.0,0.0,0.0,0.0,0.0,0.0,0.0,0.0,0.0,0.0,0.0,0.0,0.0,0.0,0.0,0.0,0.0,0.0,0.0,0.0,0.0,0.0,0.0,0.0,0.0,0.0,0.0,0.0,0.0,0.0,0.0,0.0,0.0,0.0,0.0,0.0,0.0,0.0,0.0,-3.0796,-3.0407,-3.0193,-3.0193,-3.0193,-3.0193,-3.0193,-3.0068,0.0,0.0,0.0,0.0,0.0,0.0,0.0,0.0,0.0,0.0,0.0,0.0,0.0,0.0,0.0,0.0,0.0,0.0,0.0,0.0,0.0,0.0,0.0,0.0,0.0,0.0,0.0,-2.6487,0.0,0.0,0.0,0.0,0.0,0.0,0.0,0.0,0.0,0.0,0.0,0.0,0.0,0.0,-2.0615,-2.0615,-2.0615,-2.0615,0.0,0.0,-2.0615,-2.0615,-2.0615,-2.0615,0.0,0.0,0.0,0.0,0.0,0.0,0.0,0.0,0.0,0.0,0.0,0.0,0.0,0.0,0.0,0.0,0.0,0.0,0.0,0.0,0.0,0.0,0.0,0.0,0.0,0.0,0.0,0.0,0.0,0.0,0.0,0.0,0.0,0.0,0.0,0.0,0.0,0.0,0.0,0.0,0.0,0.0,0.0,0.0,0.0,0.0,0.0,0.0,0.0,0.0,0.0,0.0,0.0,0.0,0.0,-3.1336,-3.1311,-3.126,-3.1273,-3.1286,-3.1286,-3.1273,-3.0821,-3.0557,0.0,0.0,0.0,0.0,0.0,0.0,0.0,0.0,0.0,0.0,0.0,0.0,0.0,0.0,0.0,0.0,0.0,0.0,0.0,0.0,0.0,0.0,0.0,0.0,0.0,0.0,0.0,0.0,0.0,0.0,0.0,0.0,0.0,0.0,0.0,0.0,0.0,0.0,0.0,0.0,0.0,-2.0615,-2.0615,-2.0615,-2.0615,0.0,0.0,-2.0615,-2.0615,-2.0615,-2.0615,-2.0615,0.0,0.0,0.0,0.0,0.0,0.0,0.0,0.0,0.0,0.0,0.0,0.0,0.0,0.0,0.0,0.0,0.0,0.0,0.0,0.0,0.0,0.0,0.0,0.0,0.0,0.0,0.0,0.0,0.0,0.0,0.0,0.0,0.0,0.0,0.0,0.0,0.0,0.0,0.0,0.0,0.0,0.0,0.0,0.0,0.0,0.0,0.0,0.0,0.0,0.0,0.0,0.0,0.0,-3.1562,-3.1888,-3.1562,-3.1386,-3.1386,-3.1386,-3.1386,-3.1386,-3.1198,-3.1085,0.0,0.0,0.0,0.0,0.0,0.0,0.0,0.0,0.0,0.0,0.0,0.0,0.0,0.0,0.0,0.0,0.0,0.0,0.0,0.0,0.0,0.0,0.0,0.0,0.0,0.0,0.0,0.0,-2.5955,-2.4767,-2.2813,0.0,0.0,0.0,0.0,0.0,0.0,0.0,0.0,0.0,0.0,-2.0615,-2.0615,-2.0615,0.0,0.0,-2.0615,-2.0615,-2.0615,-2.0615,-2.0615,-2.0615,-2.0615,0.0,0.0,0.0,0.0,0.0,0.0,0.0,0.0,0.0,0.0,0.0,0.0,0.0,0.0,0.0,0.0,0.0,0.0,0.0,0.0,0.0,0.0,0.0,0.0,0.0,0.0,0.0,0.0,0.0,0.0,0.0,0.0,0.0,0.0,0.0,0.0,0.0,0.0,0.0,0.0,0.0,0.0,0.0,0.0,0.0,0.0,0.0,0.0,0.0,0.0,0.0,0.0,-3.2077,-3.2453,-3.2089,-3.1888,-3.1888,-3.1901,-3.1901,-3.1888,-3.1725,-3.1637,0.0,0.0,0.0,0.0,0.0,0.0,0.0,0.0,0.0,0.0,0.0,0.0,0.0,0.0,0.0,0.0,0.0,0.0,0.0,0.0,0.0,0.0,0.0,0.0,0.0,0.0,0.0,0.0,-2.4874,-2.3551,-2.2151,0.0,0.0,0.0,0.0,0.0,0.0,0.0,0.0,0.0,0.0,-2.0615,-2.0615,-2.0723,-2.0762,-2.0762,-2.0918,-2.0997,-2.0997,-2.085,-2.0811,-2.0762,0.0,0.0,0.0,0.0,0.0,0.0,0.0,0.0,0.0,0.0,0.0,0.0,0.0,0.0,0.0,0.0,0.0,0.0,0.0,0.0,0.0,0.0,0.0,0.0,0.0,0.0,0.0,0.0,0.0,0.0,-2.9817,0.0,0.0,0.0,0.0,0.0,0.0,0.0,0.0,0.0,0.0,0.0,0.0,0.0,0.0,0.0,0.0,0.0,0.0,0.0,0.0,0.0,0.0,-3.3074,-3.3099,-3.3048,-3.3061,-3.3061,-3.3074,-3.3061,-3.3048,-3.2491,-3.219,-3.2202,0.0,0.0,0.0,0.0,0.0,0.0,0.0,0.0,0.0,0.0,0.0,0.0,0.0,0.0,0.0,0.0,0.0,0.0,0.0,0.0,0.0,0.0,0.0,0.0,0.0,0.0,-2.5087,-2.3257,-2.2065,0.0,0.0,0.0,0.0,0.0,0.0,0.0,0.0,0.0,0.0,-2.0615,-2.0615,-2.0625,-2.0947,-2.1181,-2.119,-2.1572,-2.1846,-2.1867,-2.1494,-2.1181,0.0,0.0,0.0,0.0,0.0,0.0,0.0,0.0,0.0,0.0,0.0,0.0,0.0,0.0,0.0,0.0,0.0,0.0,0.0,0.0,0.0,0.0,0.0,0.0,0.0,0.0,0.0,-3.0846,-3.0859,0.0,0.0,0.0,0.0,0.0,0.0,0.0,0.0,0.0,0.0,0.0,-3.1386,-3.1386,0.0,0.0,0.0,0.0,0.0,0.0,0.0,0.0,0.0,0.0,0.0,0.0,-3.3124,-3.3124,-3.3124,-3.3124,-3.3124,-3.3124,-3.3124,-3.3068,-3.2935,-3.2792,-3.2792,0.0,0.0,0.0,0.0,0.0,0.0,0.0,0.0,0.0,0.0,0.0,0.0,0.0,0.0,0.0,0.0,0.0,0.0,0.0,0.0,0.0,0.0,0.0,0.0,0.0,-2.485,0.0,0.0,0.0,0.0,0.0,0.0,0.0,0.0,0.0,0.0,0.0,-2.0615,-2.0615,-2.082,-2.1016,-2.1016,-2.1387,-2.167,0.0,0.0,0.0,0.0,0.0,0.0,0.0,0.0,0.0,0.0,0.0,0.0,0.0,0.0,-2.0615,-2.0615,-2.0615,-2.0556,-2.041,0.0,0.0,0.0,0.0,0.0,0.0,0.0,0.0,0.0,0.0,0.0,0.0,0.0,0.0,-3.1386,0.0,-3.1386,0.0,0.0,0.0,0.0,0.0,0.0,0.0,0.0,-3.1888,-3.1976,-3.1976,-3.1976,-3.2164,0.0,-3.2516,-3.2516,0.0,0.0,0.0,0.0,0.0,0.0,0.0,0.0,-3.3124,-3.3124,-3.3124,-3.3124,-3.3124,-3.3124,-3.3124,-3.3124,-3.3124,-3.3124,-3.3124,-3.2717,-3.2416,0.0,0.0,0.0,0.0,0.0,0.0,0.0,0.0,0.0,0.0,0.0,0.0,0.0,0.0,0.0,0.0,0.0,0.0,0.0,0.0,0.0,0.0,0.0,-2.4226,0.0,0.0,0.0,0.0,0.0,0.0,0.0,0.0,0.0,-2.085,-2.0928,-2.1065,-2.1065,-2.1279,-2.1424,-2.1414,0.0,0.0,0.0,0.0,0.0,0.0,0.0,-2.2109,-2.21,-2.1748,-2.1465,-2.1465,-2.1221,-2.1016,-2.086,0.0,0.0,-2.0635,-2.0615,-2.0615,-2.0615,-2.038,-2.0225,-2.0546,-2.0342,-2.0225,0.0,0.0,0.0,0.0,0.0,0.0,0.0,0.0,-3.1461,-3.1474,0.0,-3.1474,0.0,0.0,0.0,0.0,0.0,-3.2001,0.0,0.0,-3.2805,-3.3124,-3.3099,-3.3099,-3.3111,-3.3124,-3.3111,-3.3111,-3.3111,-3.3111,0.0,0.0,0.0,0.0,0.0,0.0,-3.3124,-3.3124,-3.3124,-3.3124,-3.3124,-3.3124,-3.3124,-3.3124,-3.3124,-3.3124,-3.3124,-3.3111,-3.2817,-3.2265,-3.2215,0.0,0.0,0.0,0.0,0.0,0.0,0.0,0.0,0.0,0.0,0.0,0.0,0.0,0.0,0.0,0.0,0.0,0.0,0.0,0.0,-2.5446,0.0,0.0,0.0,0.0,0.0,0.0,0.0,0.0,0.0,0.0,-2.1298,-2.1621,-2.1885,-2.1875,0.0,0.0,0.0,0.0,-2.2529,-2.2529,-2.2828,-2.3081,-2.3081,-2.275,-2.2529,-2.2487,0.0,0.0,-2.1875,-2.1885,-2.1728,-2.1288,-2.122,-2.1113,-2.0703,-2.0644,-2.0615,-2.0615,-2.0595,-2.0605,-2.0605,-2.0586,-2.0576,-3.2353,0.0,0.0,0.0,0.0,-3.2591,-3.2591,-3.2634,-3.2591,-3.2591,-3.2591,-3.2646,0.0,0.0,0.0,0.0,0.0,0.0,-3.283,-3.2842,-3.3048,-3.3124,-3.3124,-3.3124,-3.3124,-3.3124,-3.3124,-3.3124,-3.3124,-3.3124,-3.3124,-3.3124,0.0,0.0,0.0,0.0,-3.3124,-3.3124,-3.3124,-3.3124,-3.3124,-3.3124,-3.3124,-3.3124,-3.3124,-3.3124,-3.3124,-3.3124,-3.3006,-3.283,-3.2441,0.0,0.0,0.0,0.0,0.0,0.0,0.0,0.0,0.0,0.0,0.0,0.0,0.0,0.0,0.0,0.0,0.0,0.0,0.0,-2.5759,-2.4509,-2.3433,0.0,0.0,0.0,0.0,0.0,0.0,0.0,0.0,0.0,-2.2116,-2.1992,-2.1936,0.0,0.0,-2.2334,-2.2334,-2.2643,-2.2916,-2.2916,-2.3023,0.0,-2.3101,-2.2994,-2.2916,-2.2916,-2.2617,-2.2236,-2.1934,-2.1936,-2.1846,-2.1719,-2.1709,-2.165,-2.1554,-2.1016,-2.0654,-2.0615,-2.0615,-2.0615,-2.0615,-2.0615,-2.0615,-3.352,-3.3194,-3.3119,-3.3124,-3.3124,-3.3124,-3.3124,-3.3124,-3.3124,-3.3124,-3.3124,-3.3124,-3.3124,-3.3124,-3.3124,0.0,0.0,0.0,-3.3124,-3.3124,-3.3124,-3.3124,-3.3124,-3.3124,-3.3124,-3.3124,-3.3124,-3.3124,-3.3124,-3.3124,-3.3124,-3.3124,0.0,0.0,-3.3124,-3.3124,-3.3124,-3.3124,-3.3124,-3.3124,-3.3124,-3.3124,-3.3124,-3.3124,-3.3124,-3.3124,-3.3124,-3.3124,-3.3124,-3.3124,-3.2742,-3.2303,0.0,0.0,0.0,0.0,0.0,0.0,0.0,0.0,0.0,0.0,0.0,-2.9061,0.0,0.0,0.0,0.0,-2.8164,-2.7814,-2.6343,-2.5147,0.0,0.0,0.0,0.0,0.0,0.0,0.0,-2.2363,-2.2598,-2.2779,-2.2988,-2.2803,-2.2578,-2.2402,-2.2607,-2.2779,-2.2988,0.0,-2.3398,-2.3354,-2.3398,-2.334,-2.312,-2.3101,-2.3101,-2.3101,-2.2896,-2.2695,-2.2451,-2.2393,-2.2324,-2.2187,-2.2139,-2.208,-2.1924,-2.1486,-2.1134,-2.1134,-2.1134,-2.1124,-2.1134,-2.1134,-2.1084,-3.468,-3.4593,-3.3633,-3.3219,-3.325,-3.3206,-3.3206,-3.3206,-3.3206,-3.3206,-3.3206,-3.325,-3.3224,-3.3187,-3.3187,0.0,-3.3144,-3.3237,-3.3219,-3.3206,-3.3262,-3.325,-3.325,-3.3262,-3.3206,-3.3206,-3.325,-3.3206,-3.3232,-3.3219,-3.3206,-3.3206,-3.325,-3.3156,-3.3124,-3.3124,-3.3124,-3.3124,-3.3124,-3.3124,-3.3124,-3.3124,-3.3124,-3.3124,-3.3124,-3.3124,-3.3124,-3.3124,-3.3124,-3.3124,-3.3124,-3.2817,-3.224,0.0,0.0,0.0,0.0,0.0,0.0,0.0,0.0,0.0,0.0,0.0,0.0,0.0,0.0,0.0,-2.8394,0.0,-2.8168,-2.6823,0.0,0.0,0.0,-2.2264,-2.2637,-2.2611,-2.2725,-2.3101,0.0,0.0,-2.3779,-2.3838,-2.3691,-2.3247,-2.3188,-2.3344,-2.3779,-2.3838,-2.3838,-2.3838,-2.3848,-2.3691,-2.3344,-2.3266,-2.3276,-2.3276,-2.3169,-2.314,-2.312,-2.3062,-2.2925,-2.2627,-2.2526,-2.2461,-2.206,-2.2002,-2.1982,-2.1992,-2.1904,-2.1865,-2.1867,-2.1816,-2.1807,-3.468,-3.4655,-3.4437,-3.4336,-3.4336,-3.4324,-3.4324,-3.4336,-3.4324,-3.4324,-3.4336,-3.4324,-3.4098,-3.3696,-3.3709,-3.3709,-3.3721,-3.4135,-3.4324,-3.4324,-3.4336,-3.4336,-3.4336,-3.4336,-3.4324,-3.4336,-3.4336,-3.4324,-3.4336,-3.4336,-3.4336,-3.4336,-3.4336,-3.3922,-3.3149,-3.3124,-3.3124,-3.3124,-3.3124,-3.3124,-3.3124,-3.3124,-3.3124,-3.3124,-3.3124,-3.3124,-3.3124,-3.3124,-3.3124,-3.3124,-3.3124,-3.2805,-3.224,-3.2089,0.0,0.0,0.0,0.0,0.0,0.0,0.0,0.0,0.0,-2.9714,-2.9404,0.0,-2.9316,0.0,-2.9424,-2.9178,-2.8203,-2.7778,0.0,0.0,-2.4829,-2.4146,-2.4259,-2.3477,-2.3154,-2.3584,-2.3633,-2.3789,-2.4219,-2.4268,-2.4238,-2.4131,-2.4066,-2.4105,-2.4258,-2.4268,-2.4268,-2.4268,-2.4268,-2.4228,-2.4066,-2.4111,-2.4092,-2.4066,-2.3848,-2.3633,-2.3633,-2.3315,-2.3062,-2.2974,-2.2945,-2.2896,-2.2852,-2.2842,-2.2789,-2.2803,-2.2334,-2.1936,-2.1936,-2.1904,-2.1904,-3.6182,-3.6194,-3.6182,-3.6044,-3.5768,-3.5027,-3.468,-3.468,-3.468,-3.468,-3.468,-3.468,-3.455,-3.4274,-3.4274,-3.4261,-3.4286,-3.4587,-3.468,-3.468,-3.468,-3.468,-3.468,-3.468,-3.468,-3.468,-3.468,-3.468,-3.468,-3.468,-3.468,-3.468,-3.468,-3.4412,-3.3834,-3.3809,-3.3809,-3.3822,-3.3809,-3.3822,-3.3796,-3.3571,-3.3458,-3.3432,-3.3206,-3.3124,-3.3124,-3.3124,-3.3124,-3.3124,-3.3124,-3.293,-3.2616,-3.2353,-3.2077,0.0,0.0,0.0,0.0,0.0,0.0,0.0,0.0,0.0,0.0,0.0,-2.9573,-2.9079,-2.9028,-2.8398,-2.6778,-2.7075,-2.6748,-2.5147,-2.4611,-2.4344,-2.4344,-2.393,-2.3754,-2.4043,-2.4072,-2.4228,-2.4639,-2.4707,-2.4785,-2.4923,-2.4953,-2.4932,-2.4746,-2.4707,-2.4707,-2.4707,-2.4697,-2.4629,-2.4453,-2.4424,-2.4424,-2.4404,-2.4228,-2.4072,-2.4072,-2.3867,-2.3666,-2.3666,-2.3711,-2.3643,-2.3477,-2.3428,-2.3379,-2.3081,-2.273,-2.248,-2.2441,-2.2451,-2.2451,-3.8002,-3.8002,-3.8002,-3.7739,-3.7174,-3.5755,-3.5064,-3.4939,-3.4926,-3.4926,-3.4939,-3.4864,-3.4781,-3.4839,-3.4781,-3.4781,-3.4781,-3.4856,-3.4939,-3.4939,-3.4939,-3.4939,-3.4939,-3.4926,-3.4926,-3.4926,-3.4926,-3.4926,-3.4926,-3.4926,-3.4939,-3.4926,-3.4939,-3.4939,-3.4939,-3.4926,-3.4864,-3.468,-3.468,-3.468,-3.468,-3.4248,-3.3972,-3.3884,-3.3432,-3.3144,-3.3124,-3.3124,-3.3124,-3.3124,-3.3124,-3.3124,-3.3111,-3.2591,-3.2328,0.0,-3.1386,0.0,0.0,0.0,0.0,0.0,0.0,0.0,0.0,-2.9663,-2.9157,-2.8176,-2.8035,-2.7196,-2.5295,-2.6034,-2.5867,-2.3991,-2.3945,-2.4092,-2.4102,-2.4281,-2.4443,-2.4492,-2.4502,-2.4668,-2.5088,-2.5204,-2.5312,-2.5605,-2.5606,-2.5527,-2.5244,-2.5204,-2.5156,-2.5156,-2.5204,-2.5039,-2.4746,-2.4592,-2.4639,-2.4609,-2.4551,-2.4502,-2.4492,-2.4424,-2.4394,-2.4394,-2.4355,-2.4268,-2.3935,-2.3877,-2.375,-2.3383,-2.3296,-2.3208,-2.3071,-2.3013,-2.3101,-3.8002,-3.8002,-3.8002,-3.7952,-3.7826,-3.7513,-3.6885,-3.6103,-3.6103,-3.6091,-3.6019,-3.5545,-3.5345,-3.5332,-3.5345,-3.5332,-3.537,-3.5855,-3.6091,-3.6103,-3.6056,-3.6103,-3.6103,-3.6091,-3.6103,-3.6103,-3.6091,-3.6103,-3.6103,-3.6103,-3.6091,-3.6103,-3.6103,-3.6103,-3.6044,0.0,0.0,0.0,-3.468,-3.468,-3.468,-3.458,-3.4349,-3.3922,-3.3796,0.0,-3.3149,-3.3124,-3.3124,-3.3124,-3.3124,0.0,0.0,0.0,0.0,0.0,0.0,0.0,0.0,0.0,0.0,0.0,-3.1085,-3.0721,-2.988,-2.8937,-2.8347,-2.8096,-2.7607,-2.7127,-2.6716,-2.7156,-2.7291,-2.6857,-2.6127,-2.5675,-2.564,-2.4951,-2.4541,-2.4902,-2.4941,-2.5117,-2.546,-2.5557,-2.5635,-2.5664,-2.5684,-2.5654,-2.5615,-2.5538,-2.5596,-2.5557,-2.5528,-2.5576,-2.546,-2.5401,-2.5352,-2.5401,-2.5166,-2.4971,-2.4979,-2.4658,-2.4434,-2.4453,-2.4424,-2.4378,-2.4316,-2.4297,-2.4268,-2.4134,-2.4105,-2.3965,-2.3257,-2.3101,-2.3101,-3.8831,0.0,-3.8843,-3.868,0.0,-3.8429,-3.7952,-3.7174,-3.7174,-3.7174,-3.7149,-3.6885,-3.6724,-3.6759,-3.6759,-3.6712,-3.6712,-3.7048,-3.7174,-3.7174,-3.7174,-3.7174,-3.7161,-3.6945,-3.6772,-3.6807,-3.6543,-3.6417,-3.6417,-3.6417,-3.6417,-3.6417,-3.6417,-3.6417,-3.6417,-3.6417,-3.6128,-3.5529,-3.5529,-3.5542,-3.5529,-3.5219,-3.4944,-3.468,-3.4449,0.0,0.0,0.0,0.0,0.0,0.0,0.0,0.0,0.0,0.0,-3.3111,-3.2541,-3.2202,-3.219,-3.17,-3.1386,-3.1386,-3.1386,-3.116,-3.0608,-2.9557,-2.8921,-2.8921,-2.8607,-2.821,-2.7656,-2.8268,-2.8534,-2.7939,-2.7056,-2.6494,-2.6378,-2.5625,-2.5156,-2.5342,-2.5391,-2.5498,-2.5654,-2.5684,-2.5684,-2.5684,-2.5684,-2.5684,-2.5684,-2.5684,-2.5684,-2.5684,-2.5684,-2.5684,-2.5684,-2.5684,-2.5684,-2.5645,-2.5547,-2.542,-2.54,-2.5215,-2.5068,-2.5068,-2.5011,-2.501,-2.4785,-2.4736,-2.4668,-2.4473,-2.4424,-2.4307,-2.3848,-2.3725,-2.3734,-3.9697,-3.9697,-3.9697,-3.9433,-3.9019,-3.907,-3.8743,-3.8291,0.0,0.0,0.0,-3.8002,-3.8002,-3.8002,-3.8002,-3.8002,-3.8002,-3.8002,-3.8002,-3.8002,-3.8002,-3.8002,-3.799,-3.755,-3.7324,-3.7312,-3.692,-3.6694,-3.6646,-3.6694,-3.6694,-3.6694,-3.6694,-3.6609,-3.6568,-3.6556,-3.6505,-3.6417,-3.6417,-3.6417,-3.6392,-3.5918,-3.5583,-3.5495,-3.5056,-3.46,-3.4073,-3.396,-3.3696,-3.3244,-3.3131,-3.3124,-3.3124,-3.3124,-3.3124,-3.3099,-3.2629,-3.2353,-3.2353,-3.1938,-3.1687,-3.1687,-3.1687,-3.1612,-3.1424,-3.0401,-2.9773,-2.9773,-2.9718,-2.9125,-2.803,-2.8774,-2.895,-2.7811,-2.7091,-2.6698,-2.6625,-2.6149,-2.5645,-2.5684,-2.5664,-2.5684,-2.5684,-2.5684,-2.5684,-2.5684,-2.5684,-2.5684,-2.5684,-2.5684,-2.5684,-2.5684,-2.5684,-2.5684,-2.5684,-2.5684,-2.5684,-2.5684,-2.5674,-2.5684,-2.5684,-2.5684,-2.5684,-2.5606,-2.5674,-2.5508,-2.5264,-2.5185,-2.5059,-2.468,-2.4602,-2.4612,-2.4648,-2.4658,-2.459,-3.9697,-3.9697,-3.9697,-3.9647,-3.9572,-3.9584,-3.9534,-3.9383,-3.8429,-3.8002,-3.8002,-3.8002,-3.8002,-3.8002,-3.8002,-3.8002,-3.8002,-3.8002,-3.8002,-3.8002,-3.8002,-3.8002,-3.8002,-3.7927,-3.7889,-3.7889,-3.7814,-3.7776,-3.7776,-3.7751,-3.7776,-3.7764,-3.7776,-3.7525,-3.7111,-3.7061,-3.6883,-3.643,-3.6417,-3.6417,-3.6417,-3.6329,-3.6019,-3.552,-3.5433,-3.5132,-3.4638,-3.4173,-3.3859,-3.3771,-3.3332,-3.3124,-3.3124,-3.3124,-3.3124,-3.3124,-3.2993,-3.2998,-3.2955,-3.288,-3.2842,-3.2842,-3.2885,-3.2441,-3.1486,-3.0413,-2.9773,-2.9797,-2.9404,-2.8444,-2.7316,-2.7764,-2.7736,-2.6435,-2.602,-2.5876,-2.5982,-2.5819,-2.5684,-2.5684,-2.5684,-2.5684,-2.5684,-2.5684,-2.5684,-2.5684,-2.5684,-2.5684,-2.5684,-2.5684,-2.5684,-2.5684,-2.5684,-2.5684,-2.5684,-2.5684,-2.5684,-2.5684,-2.5684,-2.5684,-2.5684,-2.5684,-2.5684,-2.5684,-2.5684,-2.5645,-2.5605,-2.5644,-2.5557,-2.5401,-2.5391,-2.5421,-2.5401,-2.5411,-2.5235,-3.9697,-3.9697,-3.9697,-3.9697,-3.9697,-3.9697,-3.9697,-3.9659,-3.9157,-3.8931,-3.8931,-3.8919,-3.8919,-3.8919,-3.8919,-3.8919,-3.8919,-3.8919,-3.8919,-3.8919,-3.8919,-3.8919,-3.8894,-3.8617,-3.8467,-3.8467,-3.8153,-3.8002,-3.8002,-3.8002,-3.8002,-3.8002,-3.8002,-3.7877,-3.7651,-3.7626,-3.7362,-3.6822,-3.6556,-3.6417,-3.6417,-3.6417,-3.6279,-3.6006,-3.5981,-3.573,-3.5144,-3.4881,-3.465,-3.4361,-3.3809,-3.352,-3.352,-3.3244,-3.3124,-3.3124,-3.3124,-3.3124,-3.3124,-3.3124,-3.3124,-3.3124,-3.3124,-3.288,-3.2353,-3.1856,-3.1601,-3.1559,-3.1305,-3.0934,-3.0349,-3.0458,-3.009,-2.8797,-2.8121,-2.7437,-2.6754,-2.6052,-2.5684,-2.5684,-2.5684,-2.5684,-2.5684,-2.5684,-2.5684,-2.5684,-2.5684,-2.5684,-2.5684,-2.5684,-2.5684,-2.5684,-2.5684,-2.5684,-2.5684,-2.5684,-2.5684,-2.5684,-2.5684,-2.5684,-2.5684,-2.5684,-2.5684,-2.5684,-2.5684,-2.5684,-2.5684,-2.5684,-2.5684,-2.5684,-2.5684,-2.5684,-2.5684,-2.5684,-2.5528,-3.981,-3.9697,-3.9697,-3.9697,-3.9697,-3.9697,-3.9697,-3.9697,-3.9685,-3.9697,-3.9697,-3.9697,-3.9697,-3.9697,-3.9697,-3.9697,-3.9697,-3.9697,-3.9697,-3.9697,-3.9697,-3.9697,-3.9659,-3.9245,-3.9108,-3.9007,-3.8592,-3.8391,-3.8391,-3.8391,-3.8379,-3.8391,-3.8379,-3.8329,-3.8203,-3.8203,-3.7927,-3.7374,-3.6883,-3.6531,-3.6417,-3.6417,-3.6417,-3.6417,-3.6405,-3.6157,-3.5755,-3.5571,-3.5307,-3.4868,-3.4374,-3.4085,-3.406,-3.3558,-3.3269,-3.33,-3.3187,-3.3124,-3.3124,-3.3124,-3.3124,-3.3124,-3.3124,-3.3124,-3.3124,-3.3124,-3.3124,-3.3124,-3.3,-3.2884,-3.2444,-3.2183,-3.1777,-3.0485,-2.9304,-2.7992,-2.722,-2.6294,-2.5684,-2.5684,-2.5684,-2.5684,-2.5684,-2.5684,-2.5684,-2.5684,-2.5684,-2.5684,-2.5684,-2.5684,-2.5684,-2.5684,-2.5684,-2.5684,-2.5684,-2.5684,-2.5684,-2.5684,-2.5684,-2.5684,-2.5684,-2.5684,-2.5684,-2.5684,-2.5684,-2.5684,-2.5684,-2.5684,-2.5684,-2.5684,-2.5684,-2.5684,-2.5684,-2.5684,-2.5684,-4.0149,-3.9722,-3.9697,-3.9697,-3.9697,-3.9697,-3.9697,-3.9697,-3.9697,-3.9697,-3.9697,-3.9697,-3.9697,-3.9697,-3.9697,-3.9697,-3.9697,-3.9697,-3.9697,-3.9697,-3.9697,-3.9697,-3.9697,-3.9634,-3.9622,-3.9597,-3.9509,-3.9433,-3.9446,-3.9484,-3.9496,-3.9546,-3.9534,-3.9258,-3.8856,-3.8793,-3.8504,-3.7939,-3.74,-3.6908,-3.6443,-3.6417,-3.6417,-3.6417,-3.6417,-3.638,-3.6292,-3.5759,-3.5483,-3.5395,-3.4906,-3.465,-3.4555,-3.4123,-3.3822,-3.3809,-3.337,-3.3124,-3.3124,-3.3124,-3.3124,-3.3124,-3.3124,-3.3124,-3.3124,-3.3124,-3.3124,-3.3124,-3.3124,-3.2655,-3.15,-3.0631,-2.9772,-2.8727,-2.7295,-2.5965,-2.6062,-2.5781,-2.5684,-2.5684,-2.5684,-2.5684,-2.5684,-2.5684,-2.5684,-2.5684,-2.5684,-2.5684,-2.5684,-2.5684,-2.5684,-2.5684,-2.5684,-2.5684,-2.5684,-2.5684,-2.5684,-2.5684,-2.5684,-2.5684,-2.5684,-2.5684,-2.5684,-2.5684,-2.5684,-2.5684,-2.5684,-2.5684,-2.5684,-2.5684,-2.5684,-2.5684,-2.5684,-2.5684,-2.5684,-4.0199,-3.971,-3.9697,-3.9697,-3.9697,-3.9697,-3.9697,-3.9697,-3.9697,-3.9697,-3.9697,-3.9697,-3.9697,-3.9697,-3.9697,-3.9697,-3.9697,-3.9697,-3.9697,-3.9697,-3.9697,-3.9697,-3.9697,-3.9697,-3.9697,-3.9697,-3.9697,-3.9697,-3.9697,-3.9697,-3.9697,-3.9697,-3.9697,-3.9572,-3.9371,-3.9358,-3.9069,-3.853,-3.8291,-3.7902,-3.7324,-3.6732,-3.6417,-3.6417,-3.6417,-3.6417,-3.6392,-3.6144,-3.6031,-3.5994,-3.5504,-3.5169,-3.5157,-3.4643,-3.4374,-3.4361,-3.3872,-3.342,-3.3149,-3.3124,-3.3124,-3.3124,-3.3124,-3.3124,-3.3124,-3.3124,-3.3124,-3.3124,-3.3124,-3.284,-3.2339,-3.1865,-3.1089,-2.9863,-2.8623,-2.7626,-2.6897,-2.6159,-2.5684,-2.5684,-2.5684,-2.5684,-2.5684,-2.5684,-2.5684,-2.5684,-2.5684,-2.5684,-2.5684,-2.5684,-2.5684,-2.5684,-2.5684,-2.5684,-2.5684,-2.5684,-2.5684,-2.5684,-2.5684,-2.5684,-2.5684,-2.5684,-2.5684,-2.5684,-2.5684,-2.5684,-2.5684,-2.5684,-2.5684,-2.5684,-2.5684,-2.5684,-2.5684,-2.5684,-2.5684,-4.0425,-3.9936,-3.976,-3.9697,-3.9697,-3.9697,-3.9697,-3.9697,-3.9697,-3.9697,-3.9697,-3.9697,-3.9697,-3.9697,-3.9697,-3.9697,-3.9697,-3.9697,-3.9697,-3.9697,-3.9697,-3.9697,-3.9697,-3.9697,-3.9697,-3.9697,-3.9697,-3.9697,-3.9697,-3.9697,-3.9697,-3.9697,-3.9697,-3.9697,-3.9697,-3.9697,-3.9509,-3.912,-3.902,-3.8655,-3.814,-3.7161,-3.6631,-3.6619,-3.648,-3.6417,-3.6417,-3.6417,-3.6417,-3.6405,-3.5981,-3.5721,-3.5755,-3.5194,-3.4831,-3.4668,-3.4361,-3.3884,-3.3332,-3.3307,-3.3232,-3.3149,-3.3124,-3.3124,-3.3124,-3.3124,-3.3124,-3.3124,-3.3124,-3.3124,-3.3081,-3.281,-3.2152,-3.1267,-3.0135,-2.8993,-2.8132,-2.6982,-2.6245,-2.6207,-2.5965,-2.5684,-2.5684,-2.5684,-2.5684,-2.5684,-2.5684,-2.5684,-2.5684,-2.5684,-2.5684,-2.5684,-2.5684,-2.5684,-2.5684,-2.5684,-2.5684,-2.5684,-2.5684,-2.5684,-2.5684,-2.5684,-2.5684,-2.5684,-2.5684,-2.5684,-2.5684,-2.5684,-2.5684,-2.5684,-2.5684,-2.5684,-2.5684,-2.5684,-2.5684,-4.0924,-4.0413,-3.991,-3.9697,-3.9697,-3.9697,-3.9697,-3.9697,-3.9697,-3.9697,-3.9697,-3.9697,-3.9697,-3.9697,-3.9697,-3.9697,-3.9697,-3.9697,-3.9697,-3.9697,-3.9697,-3.9697,-3.9697,-3.9697,-3.9697,-3.9697,-3.9697,-3.9697,-3.9697,-3.9697,-3.9697,-3.9697,-3.9697,-3.9697,-3.9697,-3.9697,-3.9685,-3.9572,-3.917,-3.8868,-3.8768,-3.7739,-3.7186,-3.7111,-3.6681,-3.6417,-3.6417,-3.6417,-3.6417,-3.6417,-3.6367,-3.6342,-3.6317,-3.5805,-3.5245,-3.4781,-3.4668,-3.4437,-3.396,-3.3859,-3.3684,-3.3232,-3.3212,-3.3149,-3.3199,-3.3149,-3.3124,-3.3124,-3.3124,-3.3124,-3.2982,-3.2295,-3.1589,-3.1311,-3.0226,-2.9487,-2.9361,-2.8132,-2.7589,-2.7258,-2.638,-2.5781,-2.5684,-2.5684,-2.5684,-2.5684,-2.5684,-2.5684,-2.5684,-2.5684,-2.5684,-2.5684,-2.5684,-2.5684,-2.5684,-2.5684,-2.5684,-2.5684,-2.5684,-2.5684,-2.5684,-2.5684,-2.5684,-2.5684,-2.5684,-2.5684,-2.5684,-2.5684,-2.5684,-2.5684,-2.5684,-2.5684,-2.5684,-2.5684,-2.5684,-4.0749,-3.9986,-3.9772,-3.9697,-3.9697,-3.9697,-3.9697,-3.9697,-3.9697,-3.9697,-3.9697,-3.9697,-3.9697,-3.9697,-3.9697,-3.9697,-3.9697,-3.9697,-3.9697,-3.9697,-3.9697,-3.9697,-3.9697,-3.9697,-3.9697,-3.9697,-3.9697,-3.9697,-3.9697,-3.9697,-3.9697,-3.9697,-3.9697,-3.9697,-3.9697,-3.9697,-3.9697,-3.9672,-3.9471,-3.9396,-3.9333,-3.8705,-3.8103,-3.7688,-3.6822,-3.6417,-3.6417,-3.6417,-3.6417,-3.6417,-3.6417,-3.6417,-3.6392,-3.6182,-3.5818,-3.5282,-3.5207,-3.4969,-3.4525,-3.4437,-3.4349,-3.4148,-3.3796,-3.3608,-3.3545,-3.3294,-3.3124,-3.3124,-3.3124,-3.3124,-3.3025,-3.2655,-3.2413,-3.2239,-3.1311,-3.0541,-3.0181,-2.8866,-2.7589,-2.74,-2.6476,-2.5732,-2.5684,-2.5684,-2.5684,-2.5684,-2.5684,-2.5684,-2.5684,-2.5684,-2.5684,-2.5684,-2.5684,-2.5684,-2.5684,-2.5684,-2.5684,-2.5684,-2.5684,-2.5684,-2.5684,-2.5684,-2.5684,-2.5684,-2.5684,-2.5684,-2.5684,-2.5684,-2.5684,-2.5684,-2.5684,-2.5684,-2.5684,-2.5684,-2.5684,-4.0701,-3.9772,-3.9697,-3.9697,-3.9697,-3.9697,-3.9697,-3.9697,-3.9697,-3.9697,-3.9697,-3.9697,-3.9697,-3.9697,-3.9697,-3.9697,-3.9697,-3.9697,-3.9697,-3.9697,-3.9697,-3.9697,-3.9697,-3.9697,-3.9697,-3.9697,-3.9697,-3.9697,-3.9697,-3.9697,-3.9697,-3.9697,-3.9697,-3.9697,-3.9697,-3.9697,-3.9697,-3.9697,-3.9697,-3.9685,-3.9634,-3.9157,-3.8693,-3.8191,-3.7211,-3.6568,-3.643,-3.6417,-3.6417,-3.6417,-3.6417,-3.6417,-3.6417,-3.6417,-3.6194,-3.5821,-3.5805,-3.5567,-3.5031,-3.4944,-3.4856,-3.4726,-3.4399,-3.4161,-3.4123,-3.3658,-3.3395,-3.3319,-3.3187,-3.3124,-3.3124,-3.3081,-3.3124,-3.3025,-3.2326,-3.1821,-3.1689,-3.0045,-2.8588,-2.7626,-2.6476,-2.5781,-2.5684,-2.5684,-2.5684,-2.5684,-2.5684,-2.5684,-2.5684,-2.5684,-2.5684,-2.5684,-2.5684,-2.5684,-2.5684,-2.5684,-2.5684,-2.5684,-2.5684,-2.5684,-2.5684,-2.5684,-2.5684,-2.5684,-2.5684,-2.5684,-2.5684,-2.5684,-2.5684,-2.5684,-2.5684,-2.5684,-2.5684,-2.5684,-2.5684,-4.0689,-3.976,-3.9697,-3.9697,-3.9697,-3.9697,-3.9697,-3.9697,-3.9697,-3.9697,-3.9697,-3.9697,-3.9697,-3.9697,-3.9697,-3.9697,-3.9697,-3.9697,-3.9697,-3.9697,-3.9697,-3.9697,-3.9697,-3.9697,-3.9697,-3.9697,-3.9697,-3.9697,-3.9697,-3.9697,-3.9697,-3.9697,-3.9697,-3.9697,-3.9697,-3.9697,-3.9697,-3.9697,-3.9697,-3.9697,-3.9634,-3.9207,-3.8906,-3.8756,-3.7751,-3.6948,-3.6493,-3.643,-3.6417,-3.6417,-3.6417,-3.6417,-3.6417,-3.6417,-3.6405,-3.6355,-3.638,-3.6081,-3.5583,-3.5495,-3.5282,-3.4956,-3.4763,-3.468,-3.465,-3.4223,-3.3897,-3.3834,-3.3458,-3.3187,-3.3144,-3.3136,-3.3124,-3.3124,-3.2896,-3.2884,-3.2698,-3.1865,-3.0214,-2.8038,-2.662,-2.5781,-2.5684,-2.5684,-2.5684,-2.5684,-2.5684,-2.5684,-2.5684,-2.5684,-2.5684,-2.5684,-2.5684,-2.5684,-2.5684,-2.5684,-2.5684,-2.5684,-2.5684,-2.5684,-2.5684,-2.5684,-2.5684,-2.5684,-2.5684,-2.5684,-2.5684,-2.5684,-2.5684,-2.5684,-2.5684,-2.5684,-2.5684,-2.5684,-2.5684,-4.035,-3.9722,-3.9697,-3.9697,-3.9697,-3.9697,-3.9697,-3.9697,-3.9697,-3.9697,-3.9697,-3.9697,-3.9697,-3.9697,-3.9697,-3.9697,-3.9697,-3.9697,-3.9697,-3.9697,-3.9697,-3.9697,-3.9697,-3.9697,-3.9697,-3.9697,-3.9697,-3.9697,-3.9697,-3.9697,-3.9697,-3.9697,-3.9697,-3.9697,-3.9697,-3.9697,-3.9697,-3.9697,-3.9697,-3.9697,-3.9685,-3.9534,-3.927,-3.8881,-3.814,-3.7487,-3.7008,-3.6619,-3.643,-3.6417,-3.6417,-3.6417,-3.6417,-3.6417,-3.6417,-3.6417,-3.6417,-3.6367,-3.6157,-3.6094,-3.6019,-3.5805,-3.5504,-3.5257,-3.5182,-3.4788,-3.4474,-3.4412,-3.3972,-3.3646,-3.3583,-3.3269,-3.3162,-3.3124,-3.3124,-3.3124,-3.2982,-3.1965,-3.0181,-2.8132,-2.722,-2.6658,-2.5917,-2.5684,-2.5684,-2.5684,-2.5684,-2.5684,-2.5684,-2.5684,-2.5684,-2.5684,-2.5684,-2.5684,-2.5684,-2.5684,-2.5684,-2.5684,-2.5684,-2.5684,-2.5684,-2.5684,-2.5684,-2.5684,-2.5684,-2.5684,-2.5684,-2.5684,-2.5684,-2.5684,-2.5684,-2.5684,-2.5684,-2.5684,-2.5684,-4.0187,-3.971,-3.9697,-3.9697,-3.9697,-3.9697,-3.9697,-3.9697,-3.9697,-3.9697,-3.9697,-3.9697,-3.9697,-3.9697,-3.9697,-3.9697,-3.9697,-3.9697,-3.9697,-3.9697,-3.9697,-3.9697,-3.9697,-3.9697,-3.9697,-3.9697,-3.9697,-3.9697,-3.9697,-3.9697,-3.9697,-3.9697,-3.9697,-3.9697,-3.9697,-3.9697,-3.9697,-3.9697,-3.9697,-3.9697,-3.9697,-3.9697,-3.9521,-3.9132,-3.8429,-3.7864,-3.7462,-3.682,-3.6417,-3.6417,-3.6417,-3.6417,-3.6417,-3.6417,-3.6417,-3.6417,-3.6417,-3.6405,-3.6417,-3.638,-3.6417,-3.6342,-3.6044,-3.5855,-3.5755,-3.5353,-3.5006,-3.4906,-3.4537,-3.4198,-3.4123,-3.3709,-3.3407,-3.337,-3.3237,-3.3136,-3.2939,-3.1965,-3.0496,-2.8773,-2.7851,-2.704,-2.611,-2.5684,-2.5684,-2.5684,-2.5684,-2.5684,-2.5684,-2.5684,-2.5684,-2.5684,-2.5684,-2.5684,-2.5684,-2.5684,-2.5684,-2.5684,-2.5684,-2.5684,-2.5684,-2.5684,-2.5684,-2.5684,-2.5684,-2.5684,-2.5684,-2.5684,-2.5684,-2.5684,-2.5684,-2.5684,-2.5684,-2.5684,-2.5684,-4.0162,-3.9722,-3.9697,-3.9697,-3.9697,-3.9697,-3.9697,-3.9697,-3.9697,-3.9697,-3.9697,-3.9697,-3.9697,-3.9697,-3.9697,-3.9697,-3.9697,-3.9697,-3.9697,-3.9697,-3.9697,-3.9697,-3.9697,-3.9697,-3.9697,-3.9697,-3.9697,-3.9697,-3.9697,-3.9697,-3.9697,-3.9697,-3.9697,-3.9697,-3.9697,-3.9697,-3.9697,-3.9697,-3.9697,-3.9697,-3.9697,-3.9697,-3.9634,-3.9521,-3.8567,-3.7939,-3.7676,-3.6933,-3.6417,-3.6417,-3.6417,-3.6417,-3.6417,-3.6417,-3.6417,-3.6417,-3.6417,-3.6417,-3.6417,-3.6417,-3.6417,-3.6405,-3.638,-3.6417,-3.6267,-3.5855,-3.5545,-3.5508,-3.5056,-3.4763,-3.463,-3.4274,-3.396,-3.3809,-3.3382,-3.3162,-3.2982,-3.2052,-3.0956,-2.9727,-2.8459,-2.7315,-2.6284,-2.5965,-2.5868,-2.5684,-2.5684,-2.5684,-2.5684,-2.5684,-2.5684,-2.5684,-2.5684,-2.5684,-2.5684,-2.5684,-2.5684,-2.5684,-2.5684,-2.5684,-2.5684,-2.5684,-2.5684,-2.5684,-2.5684,-2.5684,-2.5684,-2.5684,-2.5684,-2.5684,-2.5684,-2.5684,-2.5684,-2.5684,-2.5684,-3.9823,-3.9697,-3.9697,-3.9697,-3.9697,-3.9697,-3.9697,-3.9697,-3.9697,-3.9697,-3.9697,-3.9697,-3.9697,-3.9697,-3.9697,-3.9697,-3.9697,-3.9697,-3.9697,-3.9697,-3.9697,-3.9697,-3.9697,-3.9697,-3.9697,-3.9697,-3.9697,-3.9697,-3.9697,-3.9697,-3.9697,-3.9697,-3.9697,-3.9697,-3.9697,-3.9697,-3.9697,-3.9697,-3.9697,-3.9697,-3.9697,-3.9672,-3.9484,-3.9032,-3.8379,-3.7801,-3.74,-3.6782,-3.6417,-3.6417,-3.6417,-3.6417,-3.6417,-3.6417,-3.6417,-3.6417,-3.6417,-3.6417,-3.6417,-3.6417,-3.6417,-3.6417,-3.6417,-3.6417,-3.6417,-3.6292,-3.6144,-3.6056,-3.5655,-3.5282,-3.5194,-3.4768,-3.4374,-3.3909,-3.3438,-3.3124,-3.3038,-3.2797,-3.2108,-3.0944,-3.0361,-2.9131,-2.7579,-2.6935,-2.661,-2.5965,-2.5684,-2.5684,-2.5684,-2.5684,-2.5684,-2.5684,-2.5684,-2.5684,-2.5684,-2.5684,-2.5684,-2.5684,-2.5684,-2.5684,-2.5684,-2.5684,-2.5684,-2.5684,-2.5684,-2.5684,-2.5684,-2.5684,-2.5684,-2.5684,-2.5684,-2.5684,-2.5684,-2.5684,-2.5684,-3.9697,-3.9697,-3.9697,-3.9697,-3.9697,-3.9697,-3.9697,-3.9697,-3.9697,-3.9697,-3.9697,-3.9697,-3.9697,-3.9697,-3.9697,-3.9697,-3.9697,-3.9697,-3.9697,-3.9697,-3.9697,-3.9697,-3.9697,-3.9697,-3.9697,-3.9697,-3.9697,-3.9697,-3.9697,-3.9697,-3.9697,-3.9697,-3.9697,-3.9697,-3.9697,-3.9697,-3.9697,-3.9697,-3.9697,-3.9697,-3.9697,-3.9459,-3.9207,-3.873,-3.8115,-3.74,-3.692,-3.6568,-3.6417,-3.6417,-3.6417,-3.6417,-3.6417,-3.6417,-3.6417,-3.6417,-3.6417,-3.6417,-3.6417,-3.6417,-3.6417,-3.6417,-3.6417,-3.6417,-3.6417,-3.6417,-3.6417,-3.6342,-3.6044,-3.5918,-3.5755,-3.519,-3.4399,-3.3658,-3.3269,-3.3124,-3.3124,-3.3081,-3.2513,-3.1633,-3.1078,-3.0305,-2.7955,-2.7683,-2.6993,-2.611,-2.5684,-2.5684,-2.5684,-2.5684,-2.5684,-2.5684,-2.5684,-2.5684,-2.5684,-2.5684,-2.5684,-2.5684,-2.5684,-2.5684,-2.5684,-2.5684,-2.5684,-2.5684,-2.5684,-2.5684,-2.5684,-2.5684,-2.5684,-2.5684,-2.5684,-2.5684,-2.5684,-2.5684,-2.5684,-3.9697,-3.9697,-3.9697,-3.9697,-3.9697,-3.9697,-3.9697,-3.9697,-3.9697,-3.9697,-3.9697,-3.9697,-3.9697,-3.9697,-3.9697,-3.9697,-3.9697,-3.9697,-3.9697,-3.9697,-3.9697,-3.9697,-3.9697,-3.9697,-3.9697,-3.9697,-3.9697,-3.9697,-3.9697,-3.9697,-3.9697,-3.9697,-3.9697,-3.9697,-3.9697,-3.9697,-3.9697,-3.9697,-3.9697,-3.9609,-3.9484,-3.9145,-3.8831,-3.8366,-3.7588,-3.6983,-3.6593,-3.6417,-3.6417,-3.6417,-3.6417,-3.6417,-3.6417,-3.6417,-3.6417,-3.6417,-3.6417,-3.6417,-3.6417,-3.6417,-3.6417,-3.6417,-3.6417,-3.6417,-3.6417,-3.6417,-3.6417,-3.6417,-3.6417,-3.6292,-3.5981,-3.524,-3.4299,-3.352,-3.3206,-3.3124,-3.3124,-3.3124,-3.2655,-3.1633,-3.1456,-3.0271,-2.8819,-2.7861,-2.7542,-2.6716,-2.6245,-2.61,-2.5917,-2.5684,-2.5684,-2.5684,-2.5684,-2.5684,-2.5684,-2.5684,-2.5684,-2.5684,-2.5684,-2.5684,-2.5684,-2.5684,-2.5684,-2.5684,-2.5684,-2.5684,-2.5684,-2.5684,-2.5684,-2.5684,-2.5684,-2.5684,-2.5684,-2.5684,-2.5684,-3.9697,-3.9697,-3.9697,-3.9697,-3.9697,-3.9697,-3.9697,-3.9697,-3.9697,-3.9697,-3.9697,-3.9697,-3.9697,-3.9697,-3.9697,-3.9697,-3.9697,-3.9697,-3.9697,-3.9697,-3.9697,-3.9697,-3.9697,-3.9697,-3.9697,-3.9697,-3.9697,-3.9697,-3.9697,-3.9697,-3.9697,-3.9697,-3.9697,-3.9697,-3.9697,-3.9697,-3.9697,-3.9697,-3.9685,-3.9421,-3.9069,-3.8856,-3.8379,-3.77,-3.6971,-3.6606,-3.6455,-3.6417,-3.6417,-3.6417,-3.6417,-3.6417,-3.6417,-3.6417,-3.6417,-3.6417,-3.6417,-3.6417,-3.6417,-3.6417,-3.6417,-3.6417,-3.6417,-3.6417,-3.6417,-3.6417,-3.6417,-3.6417,-3.6405,-3.6132,-3.5629,-3.4713,-3.4048,-3.3621,-3.3294,-3.3124,-3.3124,-3.3124,-3.2896,-3.2711,-3.2568,-3.2108,-3.0586,-3.0181,-2.9269,-2.772,-2.6945,-2.6668,-2.6245,-2.5732,-2.5684,-2.5684,-2.5684,-2.5732,-2.5781,-2.5917,-2.6197,-2.6197,-2.61,-2.6052,-2.6052,-2.5684,-2.5684,-2.5684,-2.5684,-2.5684,-2.5684,-2.5684,-2.5684,-2.5684,-2.5684,-2.5684,-2.5684,-2.5684,-2.5684,-3.9697,-3.9697,-3.9697,-3.9697,-3.9697,-3.9697,-3.9697,-3.9697,-3.9697,-3.9697,-3.9697,-3.9697,-3.9697,-3.9697,-3.9697,-3.9697,-3.9697,-3.9697,-3.9697,-3.9697,-3.9697,-3.9697,-3.9697,-3.9697,-3.9697,-3.9697,-3.9697,-3.9697,-3.9697,-3.9697,-3.9697,-3.9697,-3.9697,-3.9697,-3.9697,-3.9685,-3.9534,-3.9333,-3.9295,-3.9032,-3.8542,-3.8178,-3.7788,-3.7008,-3.6556,-3.6417,-3.6417,-3.6417,-3.6417,-3.6417,-3.6417,-3.6417,-3.6417,-3.6417,-3.6417,-3.6417,-3.6417,-3.6417,-3.6417,-3.6417,-3.6417,-3.6417,-3.6417,-3.6417,-3.6417,-3.6417,-3.6417,-3.6355,-3.6081,-3.568,-3.4876,-3.4387,-3.3859,-3.3508,-3.3312,-3.3136,-3.3124,-3.3124,-3.3124,-3.3124,-3.3025,-3.2326,-3.1721,-3.1456,-3.009,-2.8085,-2.7542,-2.722,-2.611,-2.5732,-2.5684,-2.5684,-2.5684,-2.5732,-2.5878,-2.6197,-2.6802,-2.6849,-2.6887,-2.6887,-2.6887,-2.6284,-2.5684,-2.5684,-2.5684,-2.5684,-2.5684,-2.5684,-2.5732,-2.5732,-2.5732,-2.5732,-2.5781,-2.5965,-2.5868,-3.9697,-3.9697,-3.9697,-3.9697,-3.9697,-3.9697,-3.9697,-3.9697,-3.9697,-3.9697,-3.9697,-3.9697,-3.9697,-3.9697,-3.9697,-3.9697,-3.9697,-3.9697,-3.9697,-3.9697,-3.9697,-3.9697,-3.9697,-3.9697,-3.9697,-3.9697,-3.9697,-3.9697,-3.9697,-3.9697,-3.9697,-3.9697,-3.9697,-3.9697,-3.9697,-3.9559,-3.9346,-3.9057,-3.8806,-3.8467,-3.7952,-3.7487,-3.7036,-3.6593,-3.6455,-3.6417,-3.6417,-3.6417,-3.6417,-3.6417,-3.6417,-3.6417,-3.6417,-3.6417,-3.6417,-3.6417,-3.6417,-3.6417,-3.6417,-3.6417,-3.6417,-3.6417,-3.6417,-3.6417,-3.6417,-3.6417,-3.6417,-3.6179,-3.583,-3.5039,-3.406,-3.3759,-3.3533,-3.3232,-3.3136,-3.3124,-3.3124,-3.3124,-3.3124,-3.3124,-3.3081,-3.2599,-3.214,-3.1733,-3.009,-2.8727,-2.8319,-2.7683,-2.6706,-2.6197,-2.6466,-2.661,-2.6791,-2.7115,-2.7247,-2.7295,-2.7814,-2.7861,-2.7861,-2.772,-2.7626,-2.6982,-2.6332,-2.5771,-2.5684,-2.5781,-2.5781,-2.5684,-2.5732,-2.5781,-2.6149,-2.6572,-2.6524,-2.6294,-2.638,-3.9697,-3.9697,-3.9697,-3.9697,-3.9697,-3.9697,-3.9697,-3.9697,-3.9697,-3.9697,-3.9697,-3.9697,-3.9697,-3.9697,-3.9697,-3.9697,-3.9697,-3.9697,-3.9697,-3.9697,-3.9697,-3.9697,-3.9697,-3.9697,-3.9697,-3.9697,-3.9697,-3.9697,-3.9697,-3.9697,-3.9697,-3.9697,-3.9697,-3.9697,-3.9509,-3.927,-3.8981,-3.863,-3.8329,-3.7877,-3.7412,-3.7161,-3.6885,-3.6468,-3.6417,-3.6417,-3.6417,-3.6417,-3.6417,-3.6417,-3.6417,-3.6417,-3.6417,-3.6417,-3.6417,-3.6417,-3.6417,-3.6417,-3.6417,-3.6417,-3.6417,-3.6417,-3.6417,-3.6417,-3.6417,-3.6405,-3.638,-3.6044,-3.5441,-3.46,-3.3972,-3.3558,-3.33,-3.3136,-3.3124,-3.3124,-3.3124,-3.3124,-3.3124,-3.3124,-3.3068,-3.3013,-3.2612,-3.2239,-3.1279,-3.0271,-2.9863,-2.9177,-2.8272,-2.7992,-2.8121,-2.8215,-2.8308,-2.8669,-2.8993,-2.8947,-2.9085,-2.9085,-2.8993,-2.8623,-2.8355,-2.772,-2.7125,-2.6791,-2.6284,-2.611,-2.6014,-2.6052,-2.6466,-2.7067,-2.7352,-2.7589,-2.7673,-2.7804,-2.8168,-4.0313,-3.9697,-3.9697,-3.9697,-3.9697,-3.9697,-3.9697,-3.9697,-3.9697,-3.9697,-3.9697,-3.9697,-3.9697,-3.9697,-3.9697,-3.9697,-3.9697,-3.9697,-3.9697,-3.9697,-3.9697,-3.9697,-3.9697,-3.9697,-3.9697,-3.9697,-3.9697,-3.9697,-3.9697,-3.9697,-3.9685,-3.9697,-3.9697,-3.9572,-3.9295,-3.9032,-3.8517,-3.8128,-3.7713,-3.7324,-3.6883,-3.6772,-3.6631,-3.6505,-3.6417,-3.6417,-3.6417,-3.6417,-3.6417,-3.6417,-3.6417,-3.6417,-3.6417,-3.6417,-3.6417,-3.6417,-3.6417,-3.6417,-3.6417,-3.6417,-3.6417,-3.6417,-3.6417,-3.6417,-3.6417,-3.6392,-3.6304,-3.583,-3.5303,-3.4455,-3.3947,-3.3407,-3.3174,-3.3124,-3.3124,-3.3124,-3.3124,-3.3124,-3.3124,-3.3124,-3.3081,-3.3068,-3.3081,-3.2698,-3.2326,-3.1821,-3.1356,-3.0631,-2.9772,-2.9636,-2.959,-2.9407,-2.9361,-2.9498,-2.9954,-3.0271,-3.0316,-3.0361,-3.0226,-2.9852,-2.9396,-2.8901,-2.8495,-2.8121,-2.7579,-2.7078,-2.7484,-2.7981,-2.8215,-2.8308,-2.8541,-2.8727,-2.9085,-2.935,-2.967,-4.0831,-3.9697,-3.9697,-3.9697,-3.9697,-3.9697,-3.9697,-3.9697,-3.9697,-3.9697,-3.9697,-3.9697,-3.9697,-3.9697,-3.9697,-3.9697,-3.9697,-3.9697,-3.9697,-3.9697,-3.9697,-3.9697,-3.9697,-3.9697,-3.9697,-3.9697,-3.9697,-3.9697,-3.9697,-3.9697,-3.9634,-3.9484,-3.9509,-3.9245,-3.8781,-3.8467,-3.7902,-3.7487,-3.7071,-3.6759,-3.6518,-3.6417,-3.6417,-3.6417,-3.6417,-3.6417,-3.6417,-3.6417,-3.6417,-3.6417,-3.6417,-3.6417,-3.6417,-3.6417,-3.6417,-3.6417,-3.6417,-3.6417,-3.6417,-3.6417,-3.6417,-3.6417,-3.6417,-3.6417,-3.6417,-3.6367,-3.6144,-3.5545,-3.5157,-3.4568,-3.401,-3.3533,-3.3287,-3.3124,-3.3124,-3.3124,-3.3124,-3.3124,-3.3124,-3.3124,-3.3124,-3.3124,-3.3124,-3.3081,-3.2655,-3.2513,-3.2052,-3.1877,-3.1146,-3.0878,-3.0732,-3.0463,-3.0316,-3.0271,-3.0687,-3.1412,-3.15,-3.1601,-3.15,-3.1223,-3.0765,-3.0259,-2.9852,-2.9487,-2.9166,-2.8855,-2.9396,-2.9533,-2.9361,-2.9315,-2.959,-3.009,-3.0687,-3.0866,-3.0968,-4.0831,-3.9749,-3.9749,-3.9697,-3.9749,-3.98,-3.9749,-3.9697,-3.9697,-3.9697,-3.9697,-3.9697,-3.9697,-3.9697,-3.9697,-3.9697,-3.9697,-3.9697,-3.9697,-3.9697,-3.9697,-3.9659,-3.9659,-3.9697,-3.9534,-3.9471,-3.9546,-3.9697,-3.9559,-3.9546,-3.9371,-3.9057,-3.8919,-3.873,-3.8128,-3.7814,-3.7324,-3.7147,-3.6757,-3.6493,-3.643,-3.6417,-3.6417,-3.6417,-3.6417,-3.6417,-3.6417,-3.6417,-3.6417,-3.6417,-3.6417,-3.6417,-3.6417,-3.6417,-3.6417,-3.6417,-3.6417,-3.6417,-3.6417,-3.6417,-3.6417,-3.6417,-3.6417,-3.6417,-3.6417,-3.6392,-3.6144,-3.5558,-3.5382,-3.4981,-3.4311,-3.3897,-3.3571,-3.3319,-3.3237,-3.3144,-3.3093,-3.3124,-3.3124,-3.3124,-3.3124,-3.3124,-3.3124,-3.3081,-3.3038,-3.2939,-3.284,-3.2612,-3.2382,-3.2021,-3.1889,-3.1613,-3.138,-3.1323,-3.1424,-3.2152,-3.2339,-3.2568,-3.2469,-3.2326,-3.1821,-3.1323,-3.1223,-3.0855,-3.0586,-3.0316,-3.0361,-3.0316,-3.0181,-3.0451,-3.0923,-3.1701,-3.2581,-3.2525,-3.212,-4.3026,-4.1789,-4.1082,-4.0794,-4.0743,-4.0743,-4.0364,-3.9788,-3.9697,-3.9697,-3.9697,-3.9697,-3.9697,-3.9672,-3.9697,-3.9697,-3.9697,-3.9647,-3.9685,-3.9647,-3.9622,-3.9509,-3.927,-3.9195,-3.912,-3.8843,-3.8743,-3.8655,-3.8806,-3.9019,-3.8944,-3.8467,-3.8354,-3.8103,-3.7588,-3.7312,-3.701,-3.6747,-3.6531,-3.643,-3.6417,-3.6417,-3.6417,-3.6417,-3.6417,-3.6417,-3.6417,-3.6417,-3.6417,-3.6417,-3.6417,-3.6417,-3.6417,-3.6417,-3.6417,-3.6417,-3.6417,-3.6417,-3.6417,-3.6417,-3.6417,-3.6417,-3.6417,-3.6417,-3.6417,-3.6392,-3.6307,-3.6044,-3.5671,-3.5245,-3.4851,-3.455,-3.4085,-3.3746,-3.3495,-3.3325,-3.3237,-3.3136,-3.3124,-3.3124,-3.3124,-3.3124,-3.3124,-3.3124,-3.3081,-3.3038,-3.2982,-3.2896,-3.2853,-3.2754,-3.2711,-3.2797,-3.2568,-3.2426,-3.2525,-3.284,-3.2754,-3.2884,-3.2896,-3.2754,-3.2612,-3.2283,-3.2096,-3.2152,-3.2108,-3.1789,-3.1424,-3.1468,-3.1645,-3.1965,-3.2295,-3.2711,-3.3038,-3.2995,-3.2624,-4.501,-4.4317,-4.2738,-4.2084,-4.2021,-4.1752,-4.1082,-4.0224,-3.9839,-3.9697,-3.9647,-3.9546,-3.9471,-3.9421,-3.9295,-3.9145,-3.922,-3.927,-3.927,-3.9283,-3.9233,-3.8994,-3.8755,-3.8617,-3.8442,-3.799,-3.8165,-3.804,-3.8002,-3.8128,-3.8178,-3.7814,-3.7801,-3.7487,-3.7172,-3.6971,-3.6795,-3.6518,-3.6443,-3.6417,-3.6417,-3.6417,-3.6417,-3.6417,-3.6417,-3.6417,-3.6417,-3.6417,-3.6417,-3.6417,-3.6417,-3.6417,-3.6417,-3.6417,-3.6417,-3.6417,-3.6417,-3.6417,-3.6417,-3.6417,-3.6417,-3.6417,-3.6417,-3.6417,-3.6417,-3.6417,-3.6405,-3.6342,-3.6056,-3.5768,-3.5445,-3.5082,-3.47,-3.4274,-3.3935,-3.3646,-3.34,-3.325,-3.3136,-3.3124,-3.3124,-3.3124,-3.3124,-3.3124,-3.3124,-3.3124,-3.3124,-3.3124,-3.3124,-3.3124,-3.3124,-3.3124,-3.3038,-3.2896,-3.2982,-3.3124,-3.3124,-3.3124,-3.3124,-3.3081,-3.2884,-3.2884,-3.2797,-3.2982,-3.3124,-3.2853,-3.2251,-3.2711,-3.3081,-3.2896,-3.2711,-3.2896,-3.3124,-3.3124,-3.3081,-4.6062,-4.6814,-4.441,-4.3409,-4.3252,-4.207,-4.1555,-4.1182,-4.0173,-3.9724,-3.9546,-3.9233,-3.8931,-3.8831,-3.8517,-3.8291,-3.8178,-3.8128,-3.8278,-3.8266,-3.8128,-3.8203,-3.8103,-3.8052,-3.8002,-3.7877,-3.7751,-3.7525,-3.7362,-3.7337,-3.7349,-3.7249,-3.7236,-3.6885,-3.6694,-3.6606,-3.6581,-3.6417,-3.6417,-3.6417,-3.6417,-3.6417,-3.6417,-3.6417,-3.6417,-3.6417,-3.6417,-3.6417,-3.6417,-3.6417,-3.6417,-3.6417,-3.6417,-3.6417,-3.6417,-3.6417,-3.6417,-3.6417,-3.6417,-3.6417,-3.6417,-3.6417,-3.6417,-3.6417,-3.6417,-3.6417,-3.6417,-3.6417,-3.6254,-3.6031,-3.5755,-3.542,-3.5215,-3.4731,-3.4361,-3.396,-3.3608,-3.3262,-3.3162,-3.3136,-3.3124,-3.3124,-3.3124,-3.3124,-3.3124,-3.3124,-3.3124,-3.3124,-3.3124,-3.3124,-3.3124,-3.3124,-3.3124,-3.3081,-3.3081,-3.3124,-3.3124,-3.3124,-3.3124,-3.3124,-3.3081,-3.3124,-3.3124,-3.3124,-3.3124,-3.3124,-3.3124,-3.3124,-3.3124,-3.3124,-3.3124,-3.3124,-3.3124,-3.3124,-3.3124,-4.6873,-4.7207,-4.6196,-4.5403,-4.4595,-4.3313,-4.2301,-4.1468,-4.0262,-3.9484,-3.9208,-3.8617,-3.8341,-3.8253,-3.8178,-3.8002,-3.8002,-3.8002,-3.7965,-3.8002,-3.8002,-3.7801,-3.7663,-3.745,-3.7349,-3.7123,-3.7071,-3.6996,-3.6757,-3.6795,-3.6732,-3.6732,-3.6782,-3.6644,-3.6455,-3.6417,-3.6417,-3.6417,-3.6417,-3.6417,-3.6417,-3.6417,-3.6417,-3.6417,-3.6417,-3.6417,-3.6417,-3.6417,-3.6417,-3.6417,-3.6417,-3.6417,-3.6417,-3.6417,-3.6417,-3.6417,-3.6417,-3.6417,-3.6417,-3.6417,-3.6417,-3.6417,-3.6417,-3.6417,-3.6417,-3.6417,-3.6417,-3.6417,-3.6417,-3.6194,-3.6132,-3.6031,-3.583,-3.5278,-3.4718,-3.4299,-3.3834,-3.3382,-3.3174,-3.3136,-3.3124,-3.3124,-3.3124,-3.3124,-3.3124,-3.3124,-3.3124,-3.3124,-3.3124,-3.3124,-3.3124,-3.3124,-3.3124,-3.3124,-3.3124,-3.3124,-3.3124,-3.3124,-3.3124,-3.3124,-3.3124,-3.3124,-3.3124,-3.3124,-3.3124,-3.3124,-3.3124,-3.3124,-3.3124,-3.3124,-3.3124,-3.3124,-3.3124,-3.3124,-3.3124,-4.6711,-4.6711,-4.6711,-4.643,-4.578,-4.4397,-4.3288,-4.2295,-4.0933,-3.9798,-3.909,-3.8261,-3.7764,-3.7726,-3.7538,-3.7475,-3.7412,-3.7437,-3.7475,-3.745,-3.7362,-3.7274,-3.7061,-3.691,-3.6784,-3.6455,-3.6417,-3.6443,-3.6468,-3.643,-3.6455,-3.6468,-3.6417,-3.643,-3.643,-3.6417,-3.6417,-3.6417,-3.6417,-3.6417,-3.6417,-3.6417,-3.6417,-3.6417,-3.6417,-3.6417,-3.6417,-3.6417,-3.6417,-3.6417,-3.6417,-3.6417,-3.6417,-3.6417,-3.6417,-3.6417,-3.6417,-3.6417,-3.6417,-3.6417,-3.6417,-3.6417,-3.6417,-3.6417,-3.6417,-3.6417,-3.6417,-3.6417,-3.6417,-3.6417,-3.6417,-3.6329,-3.6031,-3.5408,-3.4881,-3.4392,-3.3897,-3.3432,-3.3275,-3.3124,-3.3124,-3.3124,-3.3124,-3.3124,-3.3124,-3.3124,-3.3124,-3.3124,-3.3124,-3.3124,-3.3124,-3.3124,-3.3124,-3.3124,-3.3124,-3.3124,-3.3124,-3.3124,-3.3124,-3.3124,-3.3124,-3.3124,-3.3124,-3.3124,-3.3124,-3.3124,-3.3124,-3.3124,-3.3124,-3.3124,-3.3124,-3.3124,-3.3124,-3.3124,-3.3124,-4.5394,-4.5334,-4.5394,-4.607,-4.6722,-4.5141,-4.4199,-4.365,-4.1888,-4.0482,-3.9264,-3.7909,-3.7199,-3.7111,-3.6857,-3.6744,-3.6707,-3.6644,-3.6644,-3.6707,-3.6769,-3.6556,-3.6531,-3.6518,-3.6556,-3.6455,-3.6417,-3.6417,-3.6417,-3.6417,-3.6417,-3.6417,-3.6417,-3.6417,-3.6417,-3.6417,-3.6417,-3.6417,-3.6417,-3.6417,-3.6417,-3.6417,-3.6417,-3.6417,-3.6417,-3.6417,-3.6417,-3.6417,-3.6417,-3.6417,-3.6417,-3.6417,-3.6417,-3.6417,-3.6417,-3.6417,-3.6417,-3.6417,-3.6417,-3.6417,-3.6417,-3.6417,-3.6417,-3.6417,-3.6417,-3.6417,-3.6417,-3.6417,-3.6417,-3.6417,-3.6417,-3.638,-3.6019,-3.5592,-3.5006,-3.4512,-3.396,-3.3432,-3.3237,-3.3124,-3.3124,-3.3124,-3.3124,-3.3124,-3.3124,-3.3124,-3.3124,-3.3124,-3.3124,-3.3124,-3.3124,-3.3124,-3.3124,-3.3124,-3.3124,-3.3124,-3.3124,-3.3124,-3.3124,-3.3124,-3.3124,-3.3124,-3.3124,-3.3124,-3.3124,-3.3124,-3.3124,-3.3124,-3.3124,-3.3124,-3.3124,-3.3124,-3.3124,-3.3124,-3.3124,-4.5289,-4.5289,-4.5289,-4.5559,-4.5734,-4.4356,-4.3746,-4.328,-4.1046,-3.9175,-3.8082,-3.7016,-3.6634,-3.6593,-3.6556,-3.6417,-3.6417,-3.6417,-3.6417,-3.6417,-3.6417,-3.6417,-3.6417,-3.6417,-3.6417,-3.6417,-3.6417,-3.6417,-3.6417,-3.6417,-3.6417,-3.6417,-3.6417,-3.6417,-3.6417,-3.6417,-3.6417,-3.6417,-3.6417,-3.6417,-3.6417,-3.6417,-3.6417,-3.6417,-3.6417,-3.6417,-3.6417,-3.6417,-3.6417,-3.6417,-3.6417,-3.6417,-3.6417,-3.6417,-3.6417,-3.6417,-3.6417,-3.6417,-3.6417,-3.6417,-3.6417,-3.6417,-3.6417,-3.6417,-3.6417,-3.6417,-3.6417,-3.6417,-3.6417,-3.6417,-3.6417,-3.6405,-3.6081,-3.5533,-3.5006,-3.4512,-3.396,-3.3432,-3.3124,-3.3124,-3.3124,-3.3124,-3.3124,-3.3124,-3.3124,-3.3124,-3.3124,-3.3124,-3.3124,-3.3124,-3.3124,-3.3124,-3.3124,-3.3124,-3.3124,-3.3124,-3.3124,-3.3124,-3.3124,-3.3124,-3.3124,-3.3124,-3.3124,-3.3124,-3.3124,-3.3124,-3.3124,-3.3124,-3.3124,-3.3124,-3.3124,-3.3124,-3.3124,-3.3124,-3.3124,-4.4616,-4.4616,-4.4616,-4.4616,-4.4508,-4.3965,-4.3398,-4.2482,-4.0261,-3.8596,-3.7578,-3.678,-3.643,-3.643,-3.6417,-3.6417,-3.6417,-3.6417,-3.6417,-3.6417,-3.6417,-3.6417,-3.6417,-3.6417,-3.6417,-3.6417,-3.6417,-3.6417,-3.6417,-3.6417,-3.6417,-3.6417,-3.6417,-3.6417,-3.6417,-3.6417,-3.6417,-3.6417,-3.6417,-3.6417,-3.6417,-3.6417,-3.6417,-3.6417,-3.6417,-3.6417,-3.6417,-3.6417,-3.6417,-3.6417,-3.6417,-3.6417,-3.6417,-3.6417,-3.6417,-3.6417,-3.6417,-3.6417,-3.6417,-3.6417,-3.6417,-3.6417,-3.6417,-3.6417,-3.6417,-3.6417,-3.6417,-3.6417,-3.6417,-3.6417,-3.6405,-3.638,-3.5855,-3.5307,-3.4756,-3.4236,-3.3734,-3.3224,-3.3124,-3.3124,-3.3124,-3.3124,-3.3124,-3.3124,-3.3124,-3.3124,-3.3124,-3.3124,-3.3124,-3.3124,-3.3124,-3.3124,-3.3124,-3.3124,-3.3124,-3.3124,-3.3124,-3.3124,-3.3124,-3.3124,-3.3124,-3.3124,-3.3124,-3.3124,-3.3124,-3.3124,-3.3124,-3.3124,-3.3124,-3.3124,-3.3124,-3.3124,-3.3124,-3.3124,-3.3124,-4.3319,-4.3305,-4.3305,-4.3364,-4.3439,-4.3926,-4.3207,-4.1617,-4.0489,-3.9254,-3.7997,-3.6968,-3.6546,-3.6417,-3.6417,-3.6417,-3.6417,-3.6417,-3.6417,-3.6417,-3.6417,-3.6417,-3.6417,-3.6417,-3.6417,-3.6417,-3.6417,-3.6417,-3.6417,-3.6417,-3.6417,-3.6417,-3.6417,-3.6417,-3.6417,-3.6417,-3.6417,-3.6417,-3.6417,-3.6417,-3.6417,-3.6417,-3.6417,-3.6417,-3.6417,-3.6417,-3.6417,-3.6417,-3.6417,-3.6417,-3.6417,-3.6417,-3.6417,-3.6417,-3.6417,-3.6417,-3.6417,-3.6417,-3.6417,-3.6417,-3.6417,-3.6417,-3.6417,-3.6417,-3.6417,-3.6417,-3.6417,-3.6417,-3.6417,-3.6417,-3.6405,-3.5893,-3.5382,-3.4843,-3.4336,-3.3822,-3.3388,-3.3124,-3.3124,-3.3124,-3.3124,-3.3124,-3.3124,-3.3124,-3.3124,-3.3124,-3.3124,-3.3124,-3.3124,-3.3124,-3.3124,-3.3124,-3.3124,-3.3124,-3.3124,-3.3124,-3.3124,-3.3124,-3.3124,-3.3124,-3.3124,-3.3124,-3.3124,-3.3124,-3.3124,-3.3124,-3.3124,-3.3124,-3.3124,-3.3124,-3.3124,-3.3124,-3.3124,-3.3124,-3.3124,-4.3305,-4.3305,-4.3305,-4.3305,-4.3319,-4.3484,-4.2832,-4.1601,-4.1155,-4.0045,-3.8075,-3.7756,-3.7116,-3.6452,-3.6417,-3.6417,-3.6417,-3.6417,-3.6417,-3.6417,-3.6417,-3.6417,-3.6417,-3.6417,-3.6417,-3.6417,-3.6417,-3.6417,-3.6417,-3.6417,-3.6417,-3.6417,-3.6417,-3.6417,-3.6417,-3.6417,-3.6417,-3.6417,-3.6417,-3.6417,-3.6417,-3.6417,-3.6417,-3.6417,-3.6417,-3.6417,-3.6417,-3.6417,-3.6417,-3.6417,-3.6417,-3.6417,-3.6417,-3.6417,-3.6417,-3.6417,-3.6417,-3.6417,-3.6417,-3.6417,-3.6417,-3.6417,-3.6417,-3.6417,-3.6417,-3.6417,-3.6417,-3.6417,-3.6417,-3.6417,-3.6241,-3.5768,-3.5232,-3.4718,-3.4186,-3.3596,-3.3224,-3.3124,-3.3124,-3.3124,-3.3124,-3.3124,-3.3124,-3.3124,-3.3124,-3.3124,-3.3124,-3.3124,-3.3124,-3.3124,-3.3124,-3.3124,-3.3124,-3.3124,-3.3124,-3.3124,-3.3124,-3.3124,-3.3124,-3.3124,-3.3124,-3.3124,-3.3124,-3.3124,-3.3124,-3.3124,-3.3124,-3.3124,-3.3124,-3.3124,-3.3124,-3.3124,-3.3124,-3.3124,-3.3124,-4.3305,-4.3305,-4.3305,-4.3305,-4.3305,-4.3305,-4.286,-4.2249,-4.1809,-4.0276,-3.823,-3.8062,-3.7461,-3.6546,-3.6417,-3.6417,-3.6417,-3.6417,-3.6417,-3.6417,-3.6417,-3.6417,-3.6417,-3.6417,-3.6417,-3.6417,-3.6417,-3.6417,-3.6417,-3.6417,-3.6417,-3.6417,-3.6417,-3.6417,-3.6417,-3.6417,-3.6417,-3.6417,-3.6417,-3.6417,-3.6417,-3.6417,-3.6417,-3.6417,-3.6417,-3.6417,-3.6417,-3.6417,-3.6417,-3.6417,-3.6417,-3.6417,-3.6417,-3.6417,-3.6417,-3.6417,-3.6417,-3.6417,-3.6417,-3.6417,-3.6417,-3.6417,-3.6417,-3.6417,-3.6417,-3.6417,-3.6417,-3.6417,-3.6417,-3.6355,-3.6031,-3.5717,-3.524,-3.4705,-3.4098,-3.3445,-3.3244,-3.3149,-3.3124,-3.3124,-3.3124,-3.3124,-3.3124,-3.3124,-3.3124,-3.3124,-3.3124,-3.3124,-3.3124,-3.3124,-3.3124,-3.3124,-3.3124,-3.3124,-3.3124,-3.3124,-3.3124,-3.3124,-3.3124,-3.3124,-3.3124,-3.3124,-3.3124,-3.3124,-3.3124,-3.3124,-3.3124,-3.3124,-3.3124,-3.3124,-3.3124,-3.3124,-3.3124,-3.3124,-3.3124,-4.3305,-4.3305,-4.3305,-4.3305,-4.3305,-4.3305,-4.3265,-4.321,-4.2249,-4.0533,-3.8801,-3.8334,-3.7723,-3.6896,-3.6581,-3.6417,-3.6417,-3.6417,-3.6417,-3.6417,-3.6417,-3.6417,-3.6417,-3.6417,-3.6417,-3.6417,-3.6417,-3.6417,-3.6417,-3.6417,-3.6417,-3.6417,-3.6417,-3.6417,-3.6417,-3.6417,-3.6417,-3.6417,-3.6417,-3.6417,-3.6417,-3.6417,-3.6417,-3.6417,-3.6417,-3.6417,-3.6417,-3.6417,-3.6417,-3.6417,-3.6417,-3.6417,-3.6417,-3.6417,-3.6417,-3.6417,-3.6417,-3.6417,-3.6417,-3.6417,-3.6417,-3.6417,-3.6417,-3.6417,-3.6417,-3.6417,-3.6417,-3.6417,-3.6417,-3.6417,-3.6204,-3.5504,-3.4868,-3.4474,-3.3935,-3.3432,-3.3212,-3.3124,-3.3124,-3.3124,-3.3124,-3.3124,-3.3124,-3.3124,-3.3124,-3.3124,-3.3124,-3.3124,-3.3124,-3.3124,-3.3124,-3.3124,-3.3124,-3.3124,-3.3124,-3.3124,-3.3124,-3.3124,-3.3124,-3.3124,-3.3124,-3.3124,-3.3124,-3.3124,-3.3124,-3.3124,-3.3124,-3.3124,-3.3124,-3.3124,-3.3124,-3.3124,-3.3124,-3.3124,-3.3124,-4.3305,-4.3305,-4.3305,-4.3305,-4.3305,-4.3305,-4.3305,-4.3305,-4.3036,-4.2029,-4.0774,-3.9828,-3.8751,-3.7632,-3.6803,-3.6546,-3.6405,-3.6417,-3.6417,-3.6417,-3.6417,-3.6417,-3.6417,-3.6417,-3.6417,-3.6417,-3.6417,-3.6417,-3.6417,-3.6417,-3.6417,-3.6417,-3.6417,-3.6417,-3.6417,-3.6417,-3.6417,-3.6417,-3.6417,-3.6417,-3.6417,-3.6417,-3.6417,-3.6417,-3.6417,-3.6417,-3.6417,-3.6417,-3.6417,-3.6417,-3.6417,-3.6417,-3.6417,-3.6417,-3.6417,-3.6417,-3.6417,-3.6417,-3.6417,-3.6417,-3.6417,-3.6417,-3.6417,-3.6417,-3.6417,-3.6417,-3.6417,-3.6417,-3.6417,-3.6417,-3.6179,-3.5353,-3.463,-3.4248,-3.3784,-3.342,-3.3124,-3.3124,-3.3124,-3.3124,-3.3124,-3.3124,-3.3124,-3.3124,-3.3124,-3.3124,-3.3124,-3.3124,-3.3124,-3.3124,-3.3124,-3.3124,-3.3124,-3.3124,-3.3124,-3.3124,-3.3124,-3.3124,-3.3124,-3.3124,-3.3124,-3.3124,-3.3124,-3.3124,-3.3124,-3.3124,-3.3124,-3.3124,-3.3124,-3.3124,-3.3124,-3.3124,-3.3124,-3.3124,-3.3124,-4.3305,-4.3305,-4.3305,-4.3305,-4.3305,-4.3305,-4.3305,-4.3305,-4.3305,-4.2941,-4.2234,-4.1127,-3.9741,-3.8334,-3.7415,-3.6675,-3.6487,-3.6417,-3.6417,-3.6417,-3.6417,-3.6417,-3.6417,-3.6417,-3.6417,-3.6417,-3.6417,-3.6417,-3.6417,-3.6417,-3.6417,-3.6417,-3.6417,-3.6417,-3.6417,-3.6417,-3.6417,-3.6417,-3.6417,-3.6417,-3.6417,-3.6417,-3.6417,-3.6417,-3.6417,-3.6417,-3.6417,-3.6417,-3.6417,-3.6417,-3.6417,-3.6417,-3.6417,-3.6417,-3.6417,-3.6417,-3.6417,-3.6417,-3.6417,-3.6417,-3.6417,-3.6417,-3.6417,-3.6417,-3.6417,-3.6417,-3.6417,-3.6417,-3.6417,-3.6417,-3.6116,-3.5429,-3.4914,-3.4474,-3.3771,-3.325,-3.3124,-3.3124,-3.3124,-3.3124,-3.3124,-3.3124,-3.3124,-3.3124,-3.3124,-3.3124,-3.3124,-3.3124,-3.3124,-3.3124,-3.3124,-3.3124,-3.3124,-3.3124,-3.3124,-3.3124,-3.3124,-3.3124,-3.3124,-3.3124,-3.3124,-3.3124,-3.3124,-3.3124,-3.3124,-3.3124,-3.3124,-3.3124,-3.3124,-3.3124,-3.3124,-3.3124,-3.3124,-3.3124,-3.3124,-4.3305,-4.3305,-4.3305,-4.3305,-4.3305,-4.3305,-4.3305,-4.3305,-4.3305,-4.3305,-4.3115,-4.2193,-4.0405,-3.8979,-3.8062,-3.7289,-3.6722,-3.6452,-3.6417,-3.6417,-3.6417,-3.6417,-3.6417,-3.6417,-3.6417,-3.6417,-3.6417,-3.6417,-3.6417,-3.6417,-3.6417,-3.6417,-3.6417,-3.6417,-3.6417,-3.6417,-3.6417,-3.6417,-3.6417,-3.6417,-3.6417,-3.6417,-3.6417,-3.6417,-3.6417,-3.6417,-3.6417,-3.6417,-3.6417,-3.6417,-3.6417,-3.6417,-3.6417,-3.6417,-3.6417,-3.6417,-3.6417,-3.6417,-3.6417,-3.6417,-3.6417,-3.6417,-3.6417,-3.6417,-3.6417,-3.6417,-3.6417,-3.6392,-3.6392,-3.6241,-3.5906,-3.5479,-3.4989,-3.4462,-3.3684,-3.3124,-3.3124,-3.3124,-3.3124,-3.3124,-3.3124,-3.3124,-3.3124,-3.3124,-3.3124,-3.3124,-3.3124,-3.3124,-3.3124,-3.3124,-3.3124,-3.3124,-3.3124,-3.3124,-3.3124,-3.3124,-3.3124,-3.3124,-3.3124,-3.3124,-3.3124,-3.3124,-3.3124,-3.3124,-3.3124,-3.3124,-3.3124,-3.3124,-3.3124,-3.3124,-3.3124,-3.3124,-3.3124,-3.3124,-3.3124,-4.3305,-4.3305,-4.3305,-4.329,-4.329,-4.329,-4.3305,-4.329,-4.326,-4.3305,-4.3145,-4.2966,-4.1684,-3.9478,-3.8469,-3.7507,-3.6546,-3.6417,-3.6417,-3.6417,-3.6417,-3.6417,-3.6417,-3.6417,-3.6417,-3.6417,-3.6417,-3.6417,-3.6417,-3.6417,-3.6417,-3.6417,-3.6417,-3.6417,-3.6417,-3.6417,-3.6417,-3.6417,-3.6417,-3.6417,-3.6417,-3.6417,-3.6417,-3.6417,-3.6417,-3.6417,-3.6417,-3.6417,-3.6417,-3.6417,-3.6417,-3.6417,-3.6417,-3.6417,-3.6417,-3.6417,-3.6417,-3.6417,-3.6417,-3.6417,-3.6417,-3.6417,-3.6417,-3.6417,-3.6417,-3.6417,-3.638,-3.6304,-3.6194,-3.6019,-3.5692,-3.5115,-3.4587,-3.4073,-3.3451,-3.3224,-3.3124,-3.3124,-3.3124,-3.3124,-3.3124,-3.3124,-3.3124,-3.3124,-3.3124,-3.3124,-3.3124,-3.3124,-3.3124,-3.3124,-3.3124,-3.3124,-3.3124,-3.3124,-3.3124,-3.3124,-3.3124,-3.3124,-3.3124,-3.3124,-3.3124,-3.3124,-3.3124,-3.3124,-3.3124,-3.3124,-3.3124,-3.3124,-3.3124,-3.3124,-3.3124,-3.3124,-3.3124,-3.3124,-3.3124]},{"header":{"parameterUnit":"m.s-1","parameterCategory":1,"la1":31.0,"la2":29.5877,"lo1":-88.7671,"lo2":-86.6584,"dy":0.0162,"dx":0.0185,"nx":115,"ny":88,"refTime":"2023-07-10T06:00:00:Z","depth":0,"parameterNumber":3,"parameterNumberName":"V-component_of_WINDS"},"data":[0.0,0.0,0.0,0.0,0.0,0.0,0.0,0.0,0.0,0.0,0.0,0.0,0.0,0.0,0.0,0.0,0.0,0.0,0.0,0.0,0.0,0.0,0.0,0.0,0.0,0.0,0.0,0.0,0.0,0.0,0.0,0.0,0.0,0.0,0.0,0.0,0.0,0.0,0.0,0.0,0.0,0.0,0.0,0.0,0.0,0.0,0.0,0.0,0.0,0.0,0.0,0.0,0.0,0.0,0.0,0.0,0.0,0.0,0.0,0.0,0.0,0.0,0.0,0.0,0.0,0.0,0.0,0.0,0.0,0.0,0.0,0.0,0.0,0.0,0.0,0.0,0.0,0.0,0.0,0.0,0.0,0.0,0.0,0.0,0.0,0.0,0.0,0.0,0.0,0.0,0.0,0.0,0.0,0.0,0.0,0.0,0.0,0.0,0.0,0.0,0.0,0.0,0.0,0.0,0.0,0.0,0.0,0.0,0.0,0.0,0.0,0.0,0.0,0.0,0.0,0.0,0.0,0.0,0.0,0.0,0.0,0.0,0.0,0.0,0.0,0.0,0.0,0.0,0.0,0.0,0.0,0.0,0.0,0.0,0.0,0.0,0.0,0.0,0.0,0.0,0.0,0.0,0.0,0.0,0.0,0.0,0.0,0.0,0.0,0.0,0.0,0.0,0.0,0.0,0.0,0.0,0.0,0.0,0.0,0.0,0.0,0.0,0.0,0.0,0.0,0.0,0.0,0.0,0.0,0.0,0.0,0.0,0.0,0.0,0.0,0.0,0.0,0.0,0.0,0.0,0.0,0.0,0.0,0.0,0.0,0.0,0.0,0.0,0.0,0.0,0.0,0.0,0.0,0.0,0.0,0.0,0.0,0.0,0.0,0.0,0.0,0.0,0.0,0.0,0.0,0.0,0.0,0.0,0.0,0.0,0.0,0.0,0.0,0.0,0.0,0.0,0.0,0.0,0.0,0.0,0.0,0.0,0.0,0.0,0.0,0.0,0.0,0.0,0.0,0.0,0.0,0.0,0.0,0.0,0.0,0.0,0.0,0.0,0.0,0.0,0.0,0.0,0.0,0.0,0.0,0.0,0.0,0.0,0.0,0.0,0.0,0.0,0.0,0.0,0.0,0.0,0.0,0.0,0.0,0.0,0.0,0.0,0.0,0.0,0.0,0.0,0.0,0.0,0.0,0.0,0.0,0.0,0.0,0.0,0.0,0.0,0.0,0.0,0.0,0.0,0.0,0.0,0.0,0.0,0.0,0.0,0.0,0.0,0.0,0.0,0.0,0.0,0.0,0.0,0.0,0.0,0.0,0.0,0.0,0.0,0.0,0.0,0.0,0.0,0.0,0.0,0.0,0.0,0.0,0.0,0.0,0.0,0.0,0.0,0.0,0.0,0.0,0.0,0.0,0.0,0.0,0.0,0.0,0.0,0.0,0.0,0.0,0.0,0.0,0.0,0.0,0.0,0.0,0.0,0.0,0.0,0.0,0.0,0.0,0.0,0.0,0.0,0.0,0.0,0.0,0.0,0.0,0.0,0.0,0.0,0.0,0.0,0.0,0.0,0.0,0.0,0.0,0.0,0.0,0.0,0.0,0.0,0.0,0.0,0.0,0.0,0.0,0.0,0.0,0.0,0.0,0.0,0.0,0.0,0.0,0.0,0.0,0.0,0.0,0.0,0.0,0.0,0.0,0.0,0.0,0.0,0.0,0.0,0.0,0.0,0.0,0.0,0.0,0.0,0.0,0.0,0.0,0.0,0.0,0.0,0.0,0.0,0.0,0.0,0.0,0.0,0.0,0.0,0.0,0.0,0.0,0.0,0.0,0.0,0.0,0.0,0.0,0.0,0.0,0.0,0.0,0.0,0.0,0.0,0.0,0.0,0.0,0.0,0.0,0.0,0.0,0.0,0.0,0.0,0.0,0.0,0.0,0.0,0.0,0.0,0.0,0.0,0.0,0.0,0.0,0.0,0.0,0.0,0.0,0.0,0.0,0.0,0.0,0.0,0.0,0.0,0.0,0.0,0.0,0.0,0.0,0.0,0.0,0.0,0.0,0.0,0.0,0.0,0.0,0.0,0.0,0.0,0.0,0.0,0.0,0.0,0.0,0.0,0.0,0.0,0.0,0.0,0.0,0.0,0.0,0.0,0.0,0.0,0.0,0.0,0.0,0.0,0.0,0.0,0.0,0.0,0.0,0.0,0.0,0.0,0.0,0.0,0.0,0.0,0.0,0.0,0.0,0.0,0.0,0.0,0.0,0.0,0.0,0.0,0.0,0.0,0.0,0.0,0.0,0.0,0.0,0.0,0.0,0.0,0.0,0.0,0.0,0.0,0.0,0.0,0.0,0.0,0.0,0.0,0.0,0.0,0.0,0.0,0.0,0.0,0.0,0.0,0.0,0.0,0.0,0.0,0.0,0.0,0.0,0.0,0.0,0.0,0.0,0.0,0.0,0.0,0.0,0.0,0.0,0.0,0.0,0.0,0.0,0.0,0.0,0.0,0.0,0.0,0.0,0.0,0.0,0.0,0.0,0.0,0.0,0.0,0.0,0.0,0.0,0.0,0.0,0.0,0.0,0.0,0.0,0.0,0.0,0.0,0.0,0.0,0.0,0.0,0.0,0.0,0.0,0.0,0.0,0.0,0.0,0.0,0.0,0.0,0.0,0.0,0.0,0.0,0.0,0.0,0.0,0.0,0.0,0.0,0.0,0.0,0.0,0.0,0.0,0.0,0.0,0.0,0.0,0.0,0.0,0.0,0.0,0.0,0.0,0.0,0.0,0.0,0.0,0.0,0.0,0.0,0.0,0.0,0.0,0.0,0.0,0.0,0.0,0.0,0.0,0.0,0.0,0.0,0.0,0.0,0.0,0.0,0.0,0.0,0.0,0.0,0.0,0.0,0.0,0.0,0.0,0.0,0.0,0.0,0.0,0.0,0.0,0.0,0.0,0.0,0.0,0.0,0.0,0.0,0.0,0.0,0.0,0.0,0.0,0.0,0.0,0.0,0.0,0.0,0.0,0.0,0.0,0.0,0.0,0.0,0.0,0.0,0.0,0.0,0.0,0.0,0.0,0.0,0.0,0.0,0.0,0.0,0.0,0.0,0.0,0.0,0.0,0.0,0.0,0.0,0.0,0.0,0.0,0.0,0.0,0.0,0.0,0.0,0.0,0.0,0.0,0.0,0.0,0.0,0.0,0.0,0.0,0.0,0.0,0.0,0.0,0.0,0.0,0.0,0.0,0.0,0.0,0.0,0.0,0.0,0.0,0.0,0.0,0.0,0.0,0.0,0.0,0.0,0.0,0.0,0.0,0.0,0.0,0.0,0.0,0.0,0.0,0.0,0.0,0.0,0.0,0.0,0.0,0.0,0.0,0.0,0.0,0.0,0.0,0.0,0.0,0.0,0.0,0.0,0.0,0.0,0.0,0.0,0.0,0.0,0.0,0.0,0.0,0.0,0.0,0.0,0.0,0.0,0.0,0.0,0.0,0.0,0.0,0.0,0.0,0.0,0.0,0.0,0.0,0.0,0.0,0.0,0.0,0.0,0.0,0.0,0.0,0.0,0.0,0.0,0.0,0.0,0.0,0.0,0.0,0.0,0.0,0.0,0.0,0.0,0.0,0.0,0.0,0.0,0.0,0.0,0.0,0.0,0.0,0.0,0.0,0.0,0.0,0.0,0.0,0.0,0.0,0.0,0.0,0.0,0.0,0.0,0.0,0.0,0.0,0.0,0.0,0.0,0.0,0.0,0.0,0.0,0.0,0.0,0.0,0.0,0.0,0.0,0.0,0.0,0.0,0.0,0.0,0.0,0.0,0.0,0.0,0.0,0.0,0.0,0.0,0.0,0.0,0.0,0.0,0.0,0.0,0.0,0.0,0.0,0.0,0.0,0.0,0.0,0.0,0.0,0.0,0.0,0.0,0.0,0.0,0.0,0.0,0.0,0.0,0.0,0.0,0.0,0.0,0.0,0.0,0.0,0.0,0.0,0.0,0.0,0.0,0.0,0.0,0.0,0.0,0.0,0.0,0.0,0.0,0.0,0.0,0.0,0.0,0.0,0.0,0.0,0.0,0.0,0.0,0.0,0.0,0.0,0.0,0.0,0.0,0.0,0.0,0.0,0.0,0.0,0.0,0.0,0.0,0.0,0.0,0.0,0.0,0.0,0.0,0.0,0.0,0.0,0.0,0.0,0.0,0.0,0.0,0.0,0.0,0.0,0.0,0.0,0.0,0.0,0.0,0.0,0.0,0.0,0.0,0.0,0.0,0.0,-2.47,0.0,0.0,0.0,0.0,0.0,0.0,0.0,0.0,0.0,0.0,0.0,0.0,0.0,0.0,0.0,0.0,0.0,0.0,0.0,0.0,0.0,0.0,0.0,0.0,0.0,0.0,0.0,0.0,0.0,0.0,0.0,0.0,0.0,0.0,0.0,0.0,0.0,0.0,0.0,0.0,0.0,0.0,0.0,0.0,0.0,0.0,0.0,0.0,0.0,0.0,0.0,0.0,0.0,0.0,0.0,0.0,0.0,0.0,0.0,0.0,0.0,0.0,0.0,0.0,0.0,0.0,0.0,0.0,0.0,0.0,0.0,0.0,0.0,0.0,0.0,0.0,0.0,0.0,0.0,0.0,0.0,0.0,0.0,0.0,0.0,0.0,0.0,0.0,0.0,0.0,0.0,0.0,0.0,0.0,0.0,0.0,0.0,0.0,0.0,0.0,0.0,0.0,0.0,0.0,0.0,0.0,0.0,0.0,0.0,0.0,-2.6373,-2.6076,-2.6063,-2.5845,-2.5272,0.0,0.0,0.0,0.0,0.0,0.0,0.0,0.0,0.0,0.0,0.0,0.0,0.0,0.0,0.0,0.0,0.0,0.0,0.0,0.0,0.0,0.0,0.0,0.0,0.0,0.0,0.0,0.0,0.0,0.0,0.0,0.0,0.0,0.0,0.0,0.0,0.0,0.0,0.0,0.0,0.0,0.0,0.0,0.0,0.0,0.0,0.0,0.0,0.0,0.0,0.0,0.0,0.0,0.0,0.0,0.0,0.0,0.0,0.0,0.0,0.0,0.0,0.0,0.0,0.0,0.0,0.0,0.0,0.0,0.0,0.0,0.0,0.0,0.0,0.0,0.0,0.0,0.0,0.0,0.0,0.0,0.0,0.0,0.0,0.0,0.0,0.0,0.0,0.0,0.0,0.0,0.0,0.0,0.0,0.0,0.0,0.0,0.0,0.0,0.0,0.0,0.0,0.0,0.0,0.0,0.0,0.0,0.0,0.0,0.0,0.0,0.0,-2.6487,-2.6285,-2.5799,0.0,0.0,0.0,0.0,0.0,0.0,0.0,0.0,0.0,0.0,0.0,0.0,0.0,0.0,0.0,0.0,0.0,0.0,0.0,0.0,0.0,0.0,0.0,0.0,0.0,0.0,0.0,0.0,0.0,0.0,0.0,0.0,0.0,0.0,0.0,0.0,0.0,0.0,0.0,0.0,0.0,0.0,0.0,0.0,0.0,0.0,0.0,0.0,0.0,0.0,0.0,0.0,0.0,0.0,0.0,0.0,0.0,0.0,0.0,0.0,0.0,0.0,0.0,0.0,0.0,0.0,0.0,0.0,0.0,0.0,0.0,0.0,0.0,0.0,0.0,0.0,0.0,0.0,0.0,0.0,0.0,0.0,0.0,0.0,0.0,0.0,0.0,0.0,0.0,0.0,0.0,0.0,0.0,0.0,0.0,0.0,0.0,0.0,0.0,0.0,0.0,0.0,0.0,0.0,0.0,0.0,0.0,0.0,0.0,0.0,-2.6487,-2.6487,-2.6487,0.0,-2.6386,0.0,0.0,0.0,0.0,0.0,0.0,0.0,0.0,0.0,0.0,0.0,0.0,0.0,0.0,0.0,0.0,0.0,0.0,0.0,0.0,0.0,0.0,0.0,0.0,0.0,0.0,0.0,0.0,0.0,0.0,0.0,0.0,0.0,0.0,0.0,0.0,0.0,0.0,0.0,0.0,0.0,0.0,0.0,0.0,0.0,0.0,0.0,0.0,0.0,0.0,0.0,0.0,0.0,0.0,0.0,0.0,0.0,0.0,0.0,0.0,0.0,0.0,0.0,0.0,0.0,0.0,0.0,0.0,0.0,0.0,0.0,0.0,0.0,0.0,0.0,0.0,0.0,0.0,0.0,0.0,0.0,0.0,0.0,0.0,0.0,0.0,0.0,0.0,0.0,0.0,0.0,0.0,0.0,0.0,0.0,0.0,0.0,0.0,0.0,0.0,0.0,0.0,0.0,0.0,0.0,0.0,0.0,0.0,0.0,0.0,-2.6487,-2.6487,-2.6487,-2.6487,0.0,0.0,0.0,0.0,0.0,0.0,0.0,0.0,0.0,0.0,0.0,0.0,0.0,0.0,0.0,0.0,0.0,0.0,0.0,0.0,0.0,0.0,0.0,0.0,0.0,0.0,0.0,0.0,0.0,0.0,0.0,0.0,0.0,0.0,0.0,0.0,0.0,0.0,0.0,0.0,0.0,0.0,0.0,0.0,0.0,0.0,0.0,0.0,0.0,0.0,0.0,0.0,0.0,0.0,0.0,0.0,0.0,0.0,0.0,0.0,0.0,0.0,0.0,0.0,0.0,0.0,0.0,0.0,0.0,0.0,0.0,0.0,0.0,0.0,0.0,0.0,0.0,0.0,0.0,0.0,0.0,0.0,0.0,0.0,0.0,0.0,0.0,0.0,0.0,0.0,0.0,0.0,0.0,0.0,0.0,0.0,0.0,0.0,0.0,0.0,0.0,0.0,0.0,0.0,0.0,0.0,0.0,0.0,0.0,0.0,-2.6624,-2.6487,-2.6487,-2.6487,-2.6624,-2.6816,0.0,0.0,0.0,0.0,0.0,0.0,0.0,0.0,0.0,0.0,0.0,0.0,0.0,0.0,0.0,0.0,0.0,0.0,0.0,0.0,0.0,0.0,0.0,0.0,0.0,0.0,0.0,0.0,0.0,0.0,0.0,0.0,0.0,0.0,0.0,0.0,0.0,0.0,0.0,0.0,0.0,0.0,0.0,0.0,0.0,0.0,0.0,0.0,0.0,0.0,0.0,0.0,0.0,0.0,0.0,0.0,0.0,0.0,0.0,0.0,0.0,0.0,0.0,0.0,0.0,0.0,0.0,0.0,0.0,0.0,0.0,0.0,0.0,0.0,0.0,0.0,0.0,0.0,0.0,0.0,0.0,0.0,0.0,0.0,0.0,0.0,0.0,0.0,0.0,0.0,0.0,0.0,0.0,0.0,0.0,0.0,0.0,0.0,0.0,0.0,0.0,0.0,0.0,0.0,0.0,0.0,0.0,0.0,-2.7604,-2.6905,-2.6499,-2.6521,-2.6487,-2.6871,0.0,0.0,0.0,0.0,0.0,0.0,0.0,0.0,0.0,0.0,0.0,0.0,0.0,0.0,0.0,0.0,0.0,0.0,0.0,0.0,0.0,0.0,0.0,0.0,0.0,0.0,0.0,0.0,0.0,0.0,0.0,0.0,0.0,0.0,0.0,0.0,0.0,0.0,0.0,0.0,0.0,0.0,0.0,0.0,0.0,0.0,0.0,0.0,0.0,0.0,0.0,0.0,0.0,0.0,0.0,0.0,0.0,0.0,0.0,0.0,0.0,0.0,0.0,0.0,0.0,0.0,0.0,0.0,0.0,0.0,0.0,0.0,0.0,0.0,0.0,0.0,0.0,0.0,0.0,0.0,0.0,0.0,0.0,0.0,0.0,0.0,0.0,0.0,0.0,0.0,0.0,0.0,0.0,0.0,0.0,0.0,0.0,0.0,0.0,0.0,0.0,0.0,0.0,0.0,0.0,0.0,0.0,0.0,0.0,-2.8505,-2.7703,-2.725,-2.7263,-2.7263,-2.7683,0.0,0.0,0.0,0.0,0.0,0.0,0.0,0.0,0.0,0.0,0.0,0.0,0.0,0.0,0.0,0.0,0.0,0.0,0.0,0.0,0.0,0.0,0.0,0.0,0.0,0.0,0.0,0.0,0.0,0.0,0.0,0.0,0.0,0.0,0.0,0.0,0.0,0.0,0.0,0.0,0.0,0.0,0.0,0.0,0.0,0.0,0.0,0.0,0.0,0.0,0.0,0.0,0.0,0.0,0.0,0.0,0.0,0.0,0.0,0.0,0.0,0.0,0.0,0.0,0.0,0.0,0.0,0.0,0.0,0.0,0.0,0.0,0.0,0.0,0.0,0.0,0.0,0.0,0.0,0.0,0.0,0.0,0.0,0.0,0.0,0.0,0.0,0.0,0.0,0.0,0.0,0.0,0.0,0.0,0.0,0.0,0.0,0.0,0.0,0.0,0.0,0.0,0.0,0.0,0.0,0.0,0.0,0.0,0.0,-2.8957,0.0,-2.8117,-2.8117,-2.8117,-2.8538,0.0,0.0,0.0,0.0,0.0,0.0,0.0,0.0,0.0,0.0,0.0,0.0,0.0,0.0,0.0,0.0,0.0,0.0,0.0,0.0,0.0,0.0,0.0,0.0,0.0,0.0,0.0,0.0,0.0,0.0,0.0,0.0,0.0,0.0,0.0,0.0,0.0,0.0,0.0,0.0,0.0,0.0,0.0,0.0,0.0,0.0,0.0,0.0,0.0,0.0,0.0,0.0,0.0,0.0,0.0,0.0,0.0,0.0,0.0,0.0,0.0,0.0,0.0,0.0,0.0,0.0,0.0,0.0,0.0,0.0,0.0,0.0,0.0,0.0,0.0,0.0,0.0,0.0,0.0,0.0,0.0,0.0,0.0,0.0,0.0,0.0,0.0,0.0,0.0,0.0,0.0,0.0,0.0,0.0,0.0,0.0,0.0,0.0,0.0,0.0,0.0,0.0,0.0,0.0,0.0,0.0,0.0,0.0,-2.9079,-2.902,-2.9034,-2.9002,-2.9002,-2.8989,-2.9411,0.0,0.0,0.0,0.0,0.0,0.0,0.0,0.0,0.0,0.0,0.0,0.0,0.0,0.0,0.0,0.0,0.0,0.0,0.0,0.0,0.0,0.0,0.0,0.0,0.0,0.0,0.0,0.0,0.0,0.0,0.0,0.0,0.0,0.0,0.0,0.0,0.0,0.0,0.0,0.0,0.0,0.0,0.0,0.0,0.0,0.0,0.0,0.0,0.0,0.0,0.0,0.0,0.0,0.0,0.0,0.0,0.0,0.0,0.0,0.0,0.0,0.0,0.0,0.0,0.0,0.0,0.0,0.0,0.0,0.0,0.0,0.0,0.0,0.0,0.0,0.0,0.0,0.0,0.0,0.0,0.0,0.0,0.0,0.0,0.0,0.0,0.0,0.0,0.0,0.0,0.0,0.0,0.0,0.0,0.0,0.0,0.0,0.0,0.0,0.0,0.0,0.0,0.0,0.0,0.0,0.0,0.0,0.0,0.0,-2.9948,-2.9889,-2.9889,-2.9889,-2.9889,-3.0269,0.0,0.0,0.0,0.0,0.0,0.0,0.0,0.0,0.0,0.0,0.0,0.0,0.0,0.0,0.0,0.0,0.0,0.0,0.0,0.0,0.0,0.0,0.0,0.0,0.0,0.0,0.0,0.0,0.0,0.0,0.0,0.0,0.0,0.0,0.0,0.0,0.0,0.0,0.0,0.0,0.0,0.0,0.0,0.0,0.0,0.0,0.0,0.0,0.0,0.0,0.0,0.0,0.0,0.0,0.0,0.0,0.0,0.0,0.0,0.0,0.0,0.0,0.0,0.0,0.0,0.0,0.0,0.0,0.0,0.0,0.0,0.0,0.0,0.0,0.0,0.0,0.0,0.0,0.0,0.0,0.0,0.0,0.0,0.0,0.0,0.0,0.0,0.0,0.0,0.0,0.0,0.0,0.0,0.0,0.0,0.0,0.0,0.0,0.0,0.0,0.0,0.0,0.0,0.0,0.0,0.0,0.0,0.0,0.0,-3.1539,-3.1245,-3.1128,-3.1128,-3.0894,-3.0999,-3.1467,0.0,0.0,0.0,0.0,0.0,0.0,0.0,0.0,0.0,0.0,0.0,0.0,0.0,0.0,0.0,0.0,0.0,0.0,0.0,0.0,0.0,0.0,0.0,0.0,0.0,0.0,0.0,0.0,0.0,0.0,0.0,0.0,0.0,0.0,0.0,0.0,0.0,0.0,0.0,0.0,0.0,0.0,0.0,0.0,0.0,0.0,0.0,0.0,0.0,0.0,0.0,0.0,0.0,0.0,0.0,0.0,0.0,0.0,0.0,0.0,0.0,0.0,0.0,0.0,0.0,0.0,0.0,0.0,0.0,0.0,0.0,0.0,0.0,0.0,0.0,0.0,0.0,0.0,0.0,0.0,0.0,0.0,0.0,0.0,0.0,0.0,0.0,0.0,0.0,0.0,0.0,0.0,0.0,0.0,0.0,0.0,0.0,0.0,0.0,0.0,0.0,0.0,0.0,0.0,0.0,0.0,0.0,0.0,-3.3604,-3.2961,-3.2572,-3.2527,-3.1944,-3.1615,0.0,0.0,0.0,0.0,0.0,0.0,0.0,0.0,0.0,0.0,0.0,0.0,0.0,0.0,0.0,0.0,0.0,0.0,0.0,0.0,0.0,0.0,0.0,0.0,0.0,0.0,0.0,0.0,0.0,0.0,0.0,0.0,0.0,0.0,0.0,0.0,0.0,0.0,0.0,0.0,0.0,0.0,0.0,0.0,0.0,0.0,0.0,0.0,0.0,0.0,0.0,0.0,0.0,0.0,0.0,0.0,0.0,0.0,0.0,0.0,0.0,0.0,0.0,0.0,0.0,0.0,0.0,0.0,0.0,0.0,0.0,0.0,0.0,0.0,0.0,0.0,0.0,0.0,0.0,0.0,0.0,0.0,0.0,0.0,0.0,0.0,0.0,0.0,0.0,0.0,0.0,0.0,0.0,0.0,0.0,0.0,0.0,0.0,0.0,0.0,0.0,0.0,0.0,0.0,0.0,0.0,0.0,0.0,0.0,-3.4951,-3.4307,-3.3739,-3.326,-3.3066,-3.2976,0.0,0.0,0.0,0.0,0.0,0.0,0.0,0.0,0.0,0.0,0.0,0.0,0.0,0.0,0.0,0.0,0.0,0.0,0.0,0.0,0.0,0.0,0.0,0.0,0.0,0.0,0.0,0.0,0.0,0.0,0.0,0.0,0.0,0.0,0.0,0.0,0.0,0.0,0.0,0.0,0.0,0.0,0.0,0.0,0.0,0.0,0.0,0.0,0.0,0.0,0.0,0.0,0.0,0.0,0.0,0.0,0.0,0.0,0.0,0.0,0.0,0.0,0.0,0.0,0.0,0.0,0.0,0.0,0.0,0.0,0.0,0.0,0.0,0.0,0.0,0.0,0.0,0.0,0.0,0.0,0.0,0.0,0.0,0.0,0.0,0.0,0.0,0.0,0.0,0.0,0.0,0.0,0.0,0.0,0.0,0.0,0.0,0.0,0.0,0.0,0.0,0.0,0.0,0.0,0.0,0.0,0.0,0.0,-3.5489,-3.5489,-3.5115,-3.4726,-3.4337,-3.3784,-3.3499,0.0,0.0,0.0,0.0,0.0,0.0,0.0,0.0,0.0,0.0,0.0,0.0,0.0,0.0,0.0,0.0,0.0,0.0,0.0,0.0,0.0,0.0,0.0,0.0,0.0,0.0,0.0,0.0,0.0,0.0,0.0,0.0,0.0,0.0,0.0,0.0,0.0,0.0,0.0,0.0,0.0,0.0,0.0,0.0,0.0,0.0,0.0,0.0,0.0,0.0,0.0,0.0,0.0,0.0,0.0,0.0,0.0,0.0,0.0,0.0,0.0,0.0,0.0,0.0,0.0,0.0,0.0,0.0,0.0,0.0,0.0,0.0,0.0,0.0,0.0,0.0,0.0,0.0,0.0,0.0,0.0,0.0,0.0,0.0,0.0,0.0,0.0,0.0,0.0,0.0,0.0,0.0,0.0,0.0,0.0,0.0,0.0,0.0,0.0,0.0,0.0,0.0,0.0,0.0,0.0,0.0,0.0,0.0,-3.5489,-3.5489,-3.5489,-3.5489,-3.5459,-3.4322,-3.3694,0.0,0.0,0.0,0.0,0.0,0.0,0.0,0.0,0.0,0.0,0.0,0.0,0.0,0.0,0.0,0.0,0.0,0.0,0.0,0.0,0.0,0.0,0.0,0.0,0.0,0.0,0.0,0.0,0.0,0.0,0.0,0.0,0.0,0.0,0.0,0.0,0.0,0.0,0.0,0.0,0.0,0.0,0.0,0.0,0.0,0.0,0.0,0.0,0.0,0.0,0.0,0.0,0.0,0.0,0.0,0.0,0.0,0.0,0.0,0.0,0.0,0.0,0.0,0.0,0.0,0.0,0.0,0.0,0.0,0.0,0.0,0.0,0.0,0.0,0.0,0.0,0.0,0.0,0.0,0.0,0.0,0.0,0.0,0.0,0.0,0.0,0.0,0.0,0.0,0.0,0.0,0.0,0.0,0.0,0.0,0.0,0.0,0.0,0.0,0.0,0.0,0.0,0.0,0.0,0.0,0.0,0.0,0.0,-3.5489,-3.5489,-3.5489,-3.5489,-3.5489,-3.522,-3.5085,0.0,0.0,0.0,0.0,0.0,0.0,0.0,0.0,0.0,0.0,0.0,0.0,0.0,0.0,0.0,0.0,0.0,0.0,0.0,0.0,0.0,0.0,0.0,0.0,0.0,0.0,0.0,0.0,0.0,0.0,0.0,0.0,0.0,0.0,0.0,0.0,0.0,0.0,0.0,0.0,0.0,0.0,0.0,0.0,0.0,0.0,0.0,0.0,-3.119,0.0,0.0,0.0,0.0,0.0,0.0,0.0,0.0,0.0,0.0,0.0,0.0,0.0,0.0,0.0,0.0,0.0,0.0,0.0,0.0,0.0,0.0,0.0,0.0,0.0,0.0,0.0,0.0,0.0,0.0,0.0,0.0,0.0,0.0,0.0,0.0,0.0,0.0,0.0,0.0,0.0,0.0,0.0,0.0,0.0,0.0,0.0,0.0,0.0,0.0,0.0,0.0,0.0,0.0,0.0,0.0,0.0,0.0,0.0,-3.5489,-3.5489,-3.5489,-3.5489,-3.5489,-3.5489,-3.5489,0.0,0.0,0.0,0.0,0.0,0.0,0.0,0.0,0.0,0.0,0.0,0.0,0.0,0.0,0.0,0.0,0.0,0.0,0.0,0.0,0.0,0.0,0.0,0.0,0.0,0.0,0.0,0.0,0.0,0.0,0.0,0.0,0.0,0.0,0.0,0.0,0.0,0.0,0.0,0.0,0.0,0.0,0.0,0.0,0.0,0.0,0.0,0.0,0.0,0.0,0.0,0.0,0.0,0.0,0.0,0.0,0.0,0.0,0.0,0.0,0.0,0.0,0.0,0.0,0.0,0.0,0.0,0.0,0.0,0.0,0.0,0.0,0.0,0.0,0.0,0.0,0.0,0.0,0.0,0.0,0.0,0.0,0.0,0.0,0.0,0.0,0.0,0.0,0.0,0.0,0.0,0.0,0.0,0.0,0.0,0.0,0.0,0.0,0.0,0.0,0.0,0.0,0.0,0.0,0.0,0.0,0.0,-3.5489,-3.5489,-3.5489,-3.5489,-3.5489,-3.5489,-3.5489,-3.5489,-3.5489,0.0,0.0,0.0,0.0,0.0,0.0,0.0,0.0,0.0,0.0,0.0,0.0,0.0,0.0,0.0,0.0,0.0,0.0,0.0,0.0,0.0,0.0,0.0,0.0,0.0,0.0,0.0,0.0,0.0,0.0,0.0,0.0,0.0,0.0,0.0,0.0,0.0,0.0,-3.1207,-3.136,0.0,0.0,0.0,0.0,0.0,0.0,0.0,0.0,-3.1529,0.0,0.0,0.0,0.0,0.0,0.0,0.0,0.0,0.0,0.0,0.0,0.0,0.0,0.0,0.0,0.0,0.0,0.0,0.0,0.0,0.0,0.0,0.0,0.0,0.0,0.0,0.0,0.0,0.0,0.0,0.0,0.0,0.0,0.0,0.0,0.0,0.0,0.0,0.0,0.0,0.0,0.0,0.0,0.0,0.0,0.0,0.0,0.0,0.0,0.0,0.0,0.0,0.0,0.0,0.0,0.0,-3.5489,-3.5489,-3.5489,-3.5489,-3.5489,-3.5489,-3.5489,-3.5489,-3.5489,-3.5489,0.0,0.0,0.0,0.0,0.0,0.0,0.0,0.0,0.0,0.0,0.0,0.0,0.0,0.0,0.0,0.0,0.0,0.0,0.0,0.0,0.0,0.0,0.0,0.0,0.0,0.0,0.0,0.0,0.0,0.0,0.0,0.0,0.0,0.0,0.0,0.0,0.0,0.0,0.0,-3.2124,-3.2361,0.0,0.0,0.0,0.0,0.0,0.0,0.0,0.0,-3.3051,0.0,0.0,0.0,0.0,0.0,0.0,0.0,0.0,0.0,0.0,0.0,0.0,0.0,0.0,0.0,0.0,0.0,0.0,0.0,0.0,0.0,0.0,0.0,0.0,0.0,0.0,0.0,0.0,0.0,0.0,0.0,0.0,0.0,0.0,0.0,0.0,0.0,0.0,0.0,0.0,0.0,0.0,0.0,0.0,0.0,0.0,0.0,0.0,0.0,0.0,0.0,0.0,0.0,0.0,0.0,-3.5489,-3.5489,-3.5489,-3.5489,-3.5489,-3.5489,-3.5489,-3.5489,-3.5489,0.0,0.0,0.0,0.0,0.0,0.0,0.0,0.0,0.0,0.0,0.0,0.0,0.0,0.0,0.0,0.0,0.0,0.0,0.0,0.0,0.0,0.0,0.0,0.0,0.0,0.0,0.0,0.0,0.0,0.0,0.0,0.0,0.0,0.0,0.0,0.0,0.0,0.0,0.0,0.0,-3.2886,-3.3,-3.3372,0.0,0.0,0.0,0.0,0.0,0.0,-3.3389,-3.3389,0.0,0.0,0.0,0.0,0.0,0.0,0.0,0.0,0.0,0.0,0.0,0.0,0.0,0.0,0.0,0.0,0.0,0.0,0.0,0.0,0.0,0.0,0.0,0.0,0.0,0.0,0.0,0.0,0.0,0.0,0.0,0.0,0.0,0.0,0.0,0.0,0.0,0.0,0.0,0.0,0.0,0.0,0.0,0.0,0.0,0.0,0.0,0.0,0.0,0.0,0.0,0.0,0.0,0.0,0.0,-3.5489,-3.5489,-3.5489,-3.5489,-3.5489,-3.5489,-3.5489,-3.5489,-3.5489,0.0,0.0,0.0,0.0,0.0,0.0,0.0,0.0,0.0,0.0,0.0,0.0,0.0,0.0,0.0,0.0,0.0,0.0,0.0,0.0,0.0,0.0,0.0,0.0,0.0,0.0,0.0,0.0,0.0,0.0,0.0,0.0,0.0,0.0,0.0,0.0,0.0,0.0,0.0,0.0,0.0,-3.3677,-3.3808,-3.3842,0.0,0.0,0.0,0.0,-3.3863,-3.3846,0.0,0.0,0.0,0.0,0.0,0.0,0.0,0.0,0.0,0.0,0.0,0.0,0.0,0.0,0.0,0.0,0.0,0.0,0.0,0.0,0.0,0.0,0.0,0.0,0.0,0.0,0.0,0.0,0.0,0.0,0.0,0.0,0.0,0.0,0.0,0.0,0.0,0.0,0.0,0.0,0.0,0.0,0.0,0.0,0.0,0.0,0.0,0.0,0.0,0.0,0.0,0.0,0.0,0.0,0.0,0.0,-3.5489,-3.5489,-3.5489,-3.5489,-3.5489,-3.5489,-3.5489,-3.5489,-3.5489,0.0,0.0,0.0,0.0,0.0,0.0,0.0,0.0,0.0,0.0,0.0,0.0,0.0,0.0,0.0,0.0,0.0,0.0,0.0,0.0,0.0,0.0,0.0,0.0,0.0,0.0,0.0,0.0,0.0,0.0,0.0,0.0,0.0,0.0,0.0,0.0,0.0,0.0,0.0,0.0,0.0,-3.4607,-3.5245,-3.5346,-3.5329,0.0,0.0,-3.5346,-3.5329,-3.5346,0.0,0.0,0.0,0.0,0.0,0.0,0.0,0.0,0.0,0.0,0.0,0.0,0.0,0.0,0.0,0.0,0.0,0.0,0.0,0.0,0.0,0.0,0.0,0.0,0.0,0.0,0.0,0.0,0.0,0.0,0.0,0.0,0.0,0.0,0.0,0.0,0.0,0.0,0.0,0.0,0.0,0.0,0.0,0.0,0.0,0.0,0.0,0.0,0.0,0.0,0.0,0.0,0.0,0.0,0.0,-3.5684,-3.6028,-3.5699,-3.5489,-3.5489,-3.5489,-3.5489,-3.5489,-3.5489,-3.5489,0.0,0.0,0.0,0.0,0.0,0.0,0.0,0.0,0.0,0.0,0.0,0.0,0.0,0.0,0.0,0.0,0.0,0.0,0.0,0.0,0.0,0.0,0.0,0.0,0.0,0.0,0.0,0.0,0.0,0.0,0.0,0.0,0.0,0.0,0.0,0.0,0.0,0.0,0.0,0.0,0.0,0.0,-3.5566,-3.5616,0.0,0.0,0.0,-3.5616,-3.5616,0.0,0.0,0.0,0.0,0.0,0.0,0.0,0.0,0.0,0.0,0.0,0.0,0.0,0.0,0.0,0.0,0.0,0.0,0.0,0.0,0.0,0.0,0.0,0.0,0.0,0.0,0.0,0.0,0.0,0.0,0.0,0.0,0.0,0.0,0.0,0.0,0.0,0.0,0.0,0.0,0.0,0.0,0.0,0.0,0.0,0.0,0.0,0.0,0.0,0.0,0.0,0.0,0.0,0.0,0.0,0.0,0.0,-3.6701,-3.6237,-3.5983,-3.5983,-3.5983,-3.5983,-3.5983,-3.5833,0.0,0.0,0.0,0.0,0.0,0.0,0.0,0.0,0.0,0.0,0.0,0.0,0.0,0.0,0.0,0.0,0.0,0.0,0.0,0.0,0.0,0.0,0.0,0.0,0.0,0.0,0.0,-3.1496,0.0,0.0,0.0,0.0,0.0,0.0,0.0,0.0,0.0,0.0,0.0,0.0,0.0,0.0,-3.5616,-3.5616,-3.5616,-3.5616,0.0,0.0,-3.5616,-3.5616,-3.5616,-3.5616,0.0,0.0,0.0,0.0,0.0,0.0,0.0,0.0,0.0,0.0,0.0,0.0,0.0,0.0,0.0,0.0,0.0,0.0,0.0,0.0,0.0,0.0,0.0,0.0,0.0,0.0,0.0,0.0,0.0,0.0,0.0,0.0,0.0,0.0,0.0,0.0,0.0,0.0,0.0,0.0,0.0,0.0,0.0,0.0,0.0,0.0,0.0,0.0,0.0,0.0,0.0,0.0,0.0,0.0,0.0,-3.7345,-3.7315,-3.7255,-3.727,-3.7285,-3.7285,-3.727,-3.6731,-3.6417,0.0,0.0,0.0,0.0,0.0,0.0,0.0,0.0,0.0,0.0,0.0,0.0,0.0,0.0,0.0,0.0,0.0,0.0,0.0,0.0,0.0,0.0,0.0,0.0,0.0,0.0,0.0,0.0,0.0,0.0,0.0,0.0,0.0,0.0,0.0,0.0,0.0,0.0,0.0,0.0,0.0,-3.5616,-3.5616,-3.5616,-3.5616,0.0,0.0,-3.5616,-3.5616,-3.5616,-3.5616,-3.5616,0.0,0.0,0.0,0.0,0.0,0.0,0.0,0.0,0.0,0.0,0.0,0.0,0.0,0.0,0.0,0.0,0.0,0.0,0.0,0.0,0.0,0.0,0.0,0.0,0.0,0.0,0.0,0.0,0.0,0.0,0.0,0.0,0.0,0.0,0.0,0.0,0.0,0.0,0.0,0.0,0.0,0.0,0.0,0.0,0.0,0.0,0.0,0.0,0.0,0.0,0.0,0.0,0.0,-3.7614,-3.8003,-3.7614,-3.7404,-3.7404,-3.7404,-3.7404,-3.7404,-3.718,-3.7045,0.0,0.0,0.0,0.0,0.0,0.0,0.0,0.0,0.0,0.0,0.0,0.0,0.0,0.0,0.0,0.0,0.0,0.0,0.0,0.0,0.0,0.0,0.0,0.0,0.0,0.0,0.0,0.0,-3.191,-3.2718,-3.4062,0.0,0.0,0.0,0.0,0.0,0.0,0.0,0.0,0.0,0.0,-3.5616,-3.5616,-3.5616,0.0,0.0,-3.5616,-3.5616,-3.5616,-3.5616,-3.5616,-3.5616,-3.5616,0.0,0.0,0.0,0.0,0.0,0.0,0.0,0.0,0.0,0.0,0.0,0.0,0.0,0.0,0.0,0.0,0.0,0.0,0.0,0.0,0.0,0.0,0.0,0.0,0.0,0.0,0.0,0.0,0.0,0.0,0.0,0.0,0.0,0.0,0.0,0.0,0.0,0.0,0.0,0.0,0.0,0.0,0.0,0.0,0.0,0.0,0.0,0.0,0.0,0.0,0.0,0.0,-3.8227,-3.8676,-3.8242,-3.8003,-3.8003,-3.8018,-3.8018,-3.8003,-3.7808,-3.7704,0.0,0.0,0.0,0.0,0.0,0.0,0.0,0.0,0.0,0.0,0.0,0.0,0.0,0.0,0.0,0.0,0.0,0.0,0.0,0.0,0.0,0.0,0.0,0.0,0.0,0.0,0.0,0.0,-3.2637,-3.3556,-3.452,0.0,0.0,0.0,0.0,0.0,0.0,0.0,0.0,0.0,0.0,-3.5616,-3.5616,-3.5802,-3.596,-3.596,-3.614,-3.6276,-3.6276,-3.6113,-3.5955,-3.596,0.0,0.0,0.0,0.0,0.0,0.0,0.0,0.0,0.0,0.0,0.0,0.0,0.0,0.0,0.0,0.0,0.0,0.0,0.0,0.0,0.0,0.0,0.0,0.0,0.0,0.0,0.0,0.0,0.0,0.0,-3.5534,0.0,0.0,0.0,0.0,0.0,0.0,0.0,0.0,0.0,0.0,0.0,0.0,0.0,0.0,0.0,0.0,0.0,0.0,0.0,0.0,0.0,0.0,-3.9328,-3.9358,-3.9298,-3.9313,-3.9313,-3.9328,-3.9313,-3.9298,-3.8721,-3.8362,-3.8377,0.0,0.0,0.0,0.0,0.0,0.0,0.0,0.0,0.0,0.0,0.0,0.0,0.0,0.0,0.0,0.0,0.0,0.0,0.0,0.0,0.0,0.0,0.0,0.0,0.0,0.0,-3.2547,-3.3761,-3.4552,0.0,0.0,0.0,0.0,0.0,0.0,0.0,0.0,0.0,0.0,-3.5616,-3.5616,-3.5633,-3.6282,-3.6778,-3.6795,-3.7364,-3.7838,-3.778,-3.7229,-3.6778,0.0,0.0,0.0,0.0,0.0,0.0,0.0,0.0,0.0,0.0,0.0,0.0,0.0,0.0,0.0,0.0,0.0,0.0,0.0,0.0,0.0,0.0,0.0,0.0,0.0,0.0,0.0,-3.6761,-3.6776,0.0,0.0,0.0,0.0,0.0,0.0,0.0,0.0,0.0,0.0,0.0,-3.7404,-3.7404,0.0,0.0,0.0,0.0,0.0,0.0,0.0,0.0,0.0,0.0,0.0,0.0,-3.9388,-3.9388,-3.9388,-3.9388,-3.9388,-3.9388,-3.9388,-3.9409,-3.9164,-3.908,-3.908,0.0,0.0,0.0,0.0,0.0,0.0,0.0,0.0,0.0,0.0,0.0,0.0,0.0,0.0,0.0,0.0,0.0,0.0,0.0,0.0,0.0,0.0,0.0,0.0,0.0,-3.268,0.0,0.0,0.0,0.0,0.0,0.0,0.0,0.0,0.0,0.0,0.0,-3.5616,-3.5616,-3.6062,-3.64,-3.64,-3.7043,-3.7533,0.0,0.0,0.0,0.0,0.0,0.0,0.0,0.0,0.0,0.0,0.0,0.0,0.0,0.0,-3.5616,-3.5616,-3.5616,-3.5515,-3.5261,0.0,0.0,0.0,0.0,0.0,0.0,0.0,0.0,0.0,0.0,0.0,0.0,0.0,0.0,-3.7404,0.0,-3.7404,0.0,0.0,0.0,0.0,0.0,0.0,0.0,0.0,-3.8003,-3.8108,-3.8108,-3.8108,-3.8332,0.0,-3.8751,-3.8751,0.0,0.0,0.0,0.0,0.0,0.0,0.0,0.0,-3.9388,-3.9388,-3.9388,-3.9388,-3.9388,-3.9388,-3.9388,-3.9388,-3.9388,-3.9388,-3.9388,-3.899,-3.8631,0.0,0.0,0.0,0.0,0.0,0.0,0.0,0.0,0.0,0.0,0.0,0.0,0.0,0.0,0.0,0.0,0.0,0.0,0.0,0.0,0.0,0.0,0.0,-3.3652,0.0,0.0,0.0,0.0,0.0,0.0,0.0,0.0,0.0,-3.6113,-3.6248,-3.6394,-3.6394,-3.6857,-3.7202,-3.7185,0.0,0.0,0.0,0.0,0.0,0.0,0.0,-3.8294,-3.8278,-3.7669,-3.7178,-3.7178,-3.6755,-3.6309,-3.6039,0.0,0.0,-3.565,-3.5616,-3.5616,-3.5616,-3.5211,-3.503,-3.5498,-3.5233,-3.503,0.0,0.0,0.0,0.0,0.0,0.0,0.0,0.0,-3.7494,-3.7509,0.0,-3.7509,0.0,0.0,0.0,0.0,0.0,-3.8138,0.0,0.0,-3.9095,-3.9388,-3.9358,-3.9358,-3.9373,-3.9388,-3.9373,-3.9373,-3.9373,-3.9373,0.0,0.0,0.0,0.0,0.0,0.0,-3.9388,-3.9388,-3.9388,-3.9388,-3.9388,-3.9388,-3.9388,-3.9388,-3.9388,-3.9388,-3.9388,-3.9373,-3.911,-3.8452,-3.8392,0.0,0.0,0.0,0.0,0.0,0.0,0.0,0.0,0.0,0.0,0.0,0.0,0.0,0.0,0.0,0.0,0.0,0.0,0.0,0.0,-3.3845,0.0,0.0,0.0,0.0,0.0,0.0,0.0,0.0,0.0,0.0,-3.6981,-3.7449,-3.7905,-3.7889,0.0,0.0,0.0,0.0,-3.9022,-3.9022,-3.9639,-4.0079,-4.0079,-3.9503,-3.9022,-3.9046,0.0,0.0,-3.7889,-3.7905,-3.7635,-3.6965,-3.6846,-3.6569,-3.5859,-3.5667,-3.5616,-3.5616,-3.5583,-3.56,-3.56,-3.5566,-3.5549,-3.8556,0.0,0.0,0.0,0.0,-3.8841,-3.8841,-3.8805,-3.8841,-3.8841,-3.8841,-3.882,0.0,0.0,0.0,0.0,0.0,0.0,-3.9125,-3.914,-3.9298,-3.9388,-3.9388,-3.9388,-3.9388,-3.9388,-3.9388,-3.9388,-3.9388,-3.9388,-3.9388,-3.9388,0.0,0.0,0.0,0.0,-3.9388,-3.9388,-3.9388,-3.9388,-3.9388,-3.9388,-3.9388,-3.9388,-3.9388,-3.9388,-3.9388,-3.9388,-3.9334,-3.9125,-3.8661,0.0,0.0,0.0,0.0,0.0,0.0,0.0,0.0,0.0,0.0,0.0,0.0,0.0,0.0,0.0,0.0,0.0,0.0,0.0,-3.4732,-3.5578,-3.6343,0.0,0.0,0.0,0.0,0.0,0.0,0.0,0.0,0.0,-3.8403,-3.8091,-3.7898,0.0,0.0,-3.8684,-3.8684,-3.9317,-3.9791,-3.9791,-3.9977,0.0,-4.0113,-3.9926,-3.9791,-3.9791,-3.9174,-3.8514,-3.799,-3.7898,-3.7838,-3.7618,-3.7601,-3.7499,-3.7239,-3.6309,-3.5684,-3.5616,-3.5616,-3.5616,-3.5616,-3.5616,-3.5616,-3.9948,-3.9559,-3.9469,-3.9388,-3.9388,-3.9388,-3.9388,-3.9388,-3.9388,-3.9388,-3.9388,-3.9388,-3.9388,-3.9388,-3.9388,0.0,0.0,0.0,-3.9388,-3.9388,-3.9388,-3.9388,-3.9388,-3.9388,-3.9388,-3.9388,-3.9388,-3.9388,-3.9388,-3.9388,-3.9388,-3.9388,0.0,0.0,-3.9388,-3.9388,-3.9388,-3.9388,-3.9388,-3.9388,-3.9388,-3.9388,-3.9388,-3.9388,-3.9388,-3.9388,-3.9388,-3.9388,-3.9388,-3.9388,-3.902,-3.8497,0.0,0.0,0.0,0.0,0.0,0.0,0.0,0.0,0.0,0.0,0.0,-3.502,0.0,0.0,0.0,0.0,-3.4089,-3.4501,-3.5928,-3.6419,0.0,0.0,0.0,0.0,0.0,0.0,0.0,-3.8734,-3.914,-3.9554,-3.9817,-3.9495,-3.9106,-3.8802,-3.9157,-3.9554,-3.9817,0.0,-4.0527,-4.0553,-4.0527,-4.0426,-4.0146,-4.0113,-4.0113,-4.0113,-3.9757,-3.9309,-3.8886,-3.8785,-3.8667,-3.843,-3.8345,-3.8244,-3.7973,-3.7121,-3.6512,-3.6512,-3.6512,-3.6495,-3.6512,-3.6512,-3.6518,-4.1422,-4.1317,-4.0083,-3.9589,-3.9538,-3.9574,-3.9574,-3.9574,-3.9574,-3.9574,-3.9574,-3.9538,-3.9508,-3.9463,-3.9463,0.0,-3.9499,-3.9523,-3.9589,-3.9574,-3.9553,-3.9538,-3.9538,-3.9553,-3.9574,-3.9574,-3.9538,-3.9574,-3.9604,-3.9589,-3.9574,-3.9574,-3.9538,-3.9514,-3.9388,-3.9388,-3.9388,-3.9388,-3.9388,-3.9388,-3.9388,-3.9388,-3.9388,-3.9388,-3.9388,-3.9388,-3.9388,-3.9388,-3.9388,-3.9388,-3.9388,-3.911,-3.8422,0.0,0.0,0.0,0.0,0.0,0.0,0.0,0.0,0.0,0.0,0.0,0.0,0.0,0.0,0.0,-3.4986,0.0,-3.6461,-3.6666,0.0,0.0,0.0,-3.8273,-3.8914,-3.9065,-3.936,-4.0113,0.0,0.0,-4.1187,-4.1288,-4.1035,-4.0367,-4.0265,-4.0536,-4.1187,-4.1288,-4.1288,-4.1288,-4.1305,-4.1035,-4.0536,-4.04,-4.0417,-4.0417,-4.0231,-4.018,-4.0146,-4.0045,-3.9808,-3.9191,-3.9114,-3.8903,-3.821,-3.8108,-3.8075,-3.8091,-3.7939,-3.7872,-3.778,-3.7787,-3.777,-4.1422,-4.1392,-4.104,-4.092,-4.092,-4.0905,-4.0905,-4.092,-4.0905,-4.0905,-4.092,-4.0905,-4.0636,-4.0157,-4.0172,-4.0172,-4.0187,-4.0681,-4.0905,-4.0905,-4.092,-4.092,-4.092,-4.092,-4.0905,-4.092,-4.092,-4.0905,-4.092,-4.092,-4.092,-4.092,-4.092,-4.0427,-3.9418,-3.9388,-3.9388,-3.9388,-3.9388,-3.9388,-3.9388,-3.9388,-3.9388,-3.9388,-3.9388,-3.9388,-3.9388,-3.9388,-3.9388,-3.9388,-3.9388,-3.9095,-3.8422,-3.8242,0.0,0.0,0.0,0.0,0.0,0.0,0.0,0.0,0.0,-3.5569,-3.575,0.0,-3.5721,0.0,-3.5379,-3.5633,-3.6507,-3.6612,0.0,0.0,-3.8324,-3.8735,-3.8917,-3.9462,-4.0104,-4.0849,-4.0933,-4.1204,-4.1948,-4.2033,-4.1982,-4.1796,-4.1788,-4.1856,-4.2016,-4.2033,-4.2033,-4.2033,-4.2033,-4.1965,-4.1788,-4.1762,-4.1728,-4.1788,-4.1305,-4.0933,-4.0933,-4.0485,-4.0045,-3.9893,-3.9842,-3.9757,-3.958,-3.9563,-3.9571,-3.9495,-3.8684,-3.7898,-3.7898,-3.7939,-3.7939,-4.312,-4.3135,-4.312,-4.2955,-4.2626,-4.1743,-4.1422,-4.1422,-4.1422,-4.1422,-4.1422,-4.1422,-4.1175,-4.0846,-4.0846,-4.0831,-4.0861,-4.122,-4.1422,-4.1422,-4.1422,-4.1422,-4.1422,-4.1422,-4.1422,-4.1422,-4.1422,-4.1422,-4.1422,-4.1422,-4.1422,-4.1422,-4.1422,-4.101,-4.0322,-4.0292,-4.0292,-4.0307,-4.0292,-4.0307,-4.0277,-4.0008,-3.9873,-3.9843,-3.9574,-3.9388,-3.9388,-3.9388,-3.9388,-3.9388,-3.9388,-3.9245,-3.8871,-3.8556,-3.8227,0.0,0.0,0.0,0.0,0.0,0.0,0.0,0.0,0.0,0.0,0.0,-3.5636,-3.599,-3.6006,-3.643,-3.7541,-3.7352,-3.7587,-3.8723,-3.9481,-3.9921,-3.9921,-4.0624,-4.1247,-4.1644,-4.1694,-4.1965,-4.2675,-4.2794,-4.2929,-4.3278,-4.3328,-4.3183,-4.2861,-4.2794,-4.2794,-4.2794,-4.2777,-4.2658,-4.2354,-4.2303,-4.2303,-4.2269,-4.1965,-4.1694,-4.1694,-4.1339,-4.1094,-4.1094,-4.1068,-4.095,-4.0663,-4.0578,-4.0493,-4.0079,-3.9469,-3.8937,-3.887,-3.8886,-3.8886,-4.5289,-4.5289,-4.5289,-4.4975,-4.4302,-4.2611,-4.1788,-4.1639,-4.1624,-4.1624,-4.1639,-4.1549,-4.1542,-4.1519,-4.1542,-4.1542,-4.1542,-4.1632,-4.1639,-4.1639,-4.1639,-4.1639,-4.1639,-4.1624,-4.1624,-4.1624,-4.1624,-4.1624,-4.1624,-4.1624,-4.1639,-4.1624,-4.1639,-4.1639,-4.1639,-4.1624,-4.1549,-4.1422,-4.1422,-4.1422,-4.1422,-4.0816,-4.0487,-4.0382,-3.9843,-3.9499,-3.9388,-3.9388,-3.9388,-3.9388,-3.9388,-3.9388,-3.9373,-3.8841,-3.8527,0.0,-3.7404,0.0,0.0,0.0,0.0,0.0,0.0,0.0,0.0,-3.5587,-3.5926,-3.6554,-3.6784,-3.7433,-3.8766,-3.8416,-3.8622,-3.9929,-4.0751,-4.1208,-4.1225,-4.1844,-4.2337,-4.2422,-4.2439,-4.2726,-4.3453,-4.3544,-4.3842,-4.435,-4.4462,-4.4215,-4.3724,-4.3544,-4.3572,-4.3572,-4.3544,-4.3369,-4.2861,-4.2702,-4.2675,-4.2625,-4.2523,-4.2439,-4.2422,-4.2303,-4.2252,-4.2252,-4.2185,-4.2033,-4.1457,-4.1356,-4.1136,-4.0603,-4.0451,-4.0299,-4.0062,-3.996,-4.0113,-4.5289,-4.5289,-4.5289,-4.5229,-4.508,-4.4706,-4.3958,-4.2931,-4.2931,-4.2916,-4.2925,-4.2455,-4.2216,-4.2201,-4.2216,-4.2201,-4.2246,-4.2731,-4.2916,-4.2931,-4.297,-4.2931,-4.2931,-4.2916,-4.2931,-4.2931,-4.2916,-4.2931,-4.2931,-4.2931,-4.2916,-4.2931,-4.2931,-4.2931,-4.2955,0.0,0.0,0.0,-4.1422,-4.1422,-4.1422,-4.1302,-4.0935,-4.0427,-4.0277,0.0,-3.9418,-3.9388,-3.9388,-3.9388,-3.9388,0.0,0.0,0.0,0.0,0.0,0.0,0.0,0.0,0.0,0.0,0.0,-3.7045,-3.6611,-3.5609,-3.6054,-3.6446,-3.6615,-3.7738,-3.8563,-3.8872,-3.9328,-3.9709,-4.0005,-4.0717,-4.1188,-4.1233,-4.1835,-4.2506,-4.3132,-4.32,-4.3504,-4.4209,-4.4378,-4.4401,-4.4564,-4.4598,-4.4547,-4.4367,-4.4344,-4.4333,-4.4378,-4.4327,-4.4299,-4.4209,-4.4107,-4.4022,-4.4107,-4.3589,-4.325,-4.3156,-4.2709,-4.232,-4.2354,-4.2303,-4.233,-4.2117,-4.2083,-4.2033,-4.1907,-4.1856,-4.1508,-4.0383,-4.0113,-4.0113,-4.6277,0.0,-4.6292,-4.6097,0.0,-4.5798,-4.5229,-4.4302,-4.4302,-4.4302,-4.4272,-4.3958,-4.3863,-4.3808,-4.3808,-4.3848,-4.3848,-4.4152,-4.4302,-4.4302,-4.4302,-4.4302,-4.4287,-4.3932,-4.3823,-4.3768,-4.3454,-4.3305,-4.3305,-4.3305,-4.3305,-4.3305,-4.3305,-4.3305,-4.3305,-4.3305,-4.2961,-4.2342,-4.2342,-4.2357,-4.2342,-4.2066,-4.1737,-4.1422,-4.1055,0.0,0.0,0.0,0.0,0.0,0.0,0.0,0.0,0.0,0.0,-3.9373,-3.8781,-3.8377,-3.8362,-3.7778,-3.7404,-3.7404,-3.7404,-3.7135,-3.6477,-3.7159,-3.7606,-3.7606,-3.831,-3.8917,-3.9313,-3.9357,-3.9454,-3.9902,-4.0975,-4.1688,-4.1807,-4.2752,-4.3572,-4.3893,-4.3978,-4.4164,-4.4547,-4.4598,-4.4598,-4.4598,-4.4598,-4.4598,-4.4598,-4.4598,-4.4598,-4.4598,-4.4598,-4.4598,-4.4598,-4.4598,-4.4598,-4.453,-4.4248,-4.4028,-4.3995,-4.3673,-4.342,-4.342,-4.343,-4.3318,-4.2929,-4.2844,-4.2726,-4.2388,-4.2303,-4.21,-4.1305,-4.1196,-4.1213,-4.7309,-4.7309,-4.7309,-4.6995,-4.6501,-4.6459,-4.6172,-4.5633,0.0,0.0,0.0,-4.5289,-4.5289,-4.5289,-4.5289,-4.5289,-4.5289,-4.5289,-4.5289,-4.5289,-4.5289,-4.5289,-4.5274,-4.4751,-4.4481,-4.4466,-4.3902,-4.3633,-4.3673,-4.3633,-4.3633,-4.3633,-4.3633,-4.3629,-4.3484,-4.3469,-4.3409,-4.3305,-4.3305,-4.3305,-4.3275,-4.2806,-4.25,-4.2396,-4.1871,-4.1235,-4.0606,-4.0472,-4.0157,-3.9619,-3.9484,-3.9388,-3.9388,-3.9388,-3.9388,-3.9358,-3.8886,-3.8556,-3.8556,-3.8063,-3.7764,-3.7764,-3.7764,-3.7674,-3.7449,-3.8134,-3.8627,-3.8627,-3.8817,-3.9361,-4.0124,-3.9787,-3.9756,-4.0561,-4.1816,-4.2622,-4.2713,-4.3736,-4.453,-4.4598,-4.4564,-4.4598,-4.4598,-4.4598,-4.4598,-4.4598,-4.4598,-4.4598,-4.4598,-4.4598,-4.4598,-4.4598,-4.4598,-4.4598,-4.4598,-4.4598,-4.4598,-4.4598,-4.4581,-4.4598,-4.4598,-4.4598,-4.4598,-4.4462,-4.4581,-4.4293,-4.3758,-4.3623,-4.3403,-4.2855,-4.2719,-4.2736,-4.2692,-4.2709,-4.2591,-4.7309,-4.7309,-4.7309,-4.7249,-4.716,-4.7174,-4.7115,-4.6935,-4.5798,-4.5289,-4.5289,-4.5289,-4.5289,-4.5289,-4.5289,-4.5289,-4.5289,-4.5289,-4.5289,-4.5289,-4.5289,-4.5289,-4.5289,-4.52,-4.5155,-4.5155,-4.5065,-4.502,-4.502,-4.499,-4.502,-4.5005,-4.502,-4.4721,-4.4227,-4.4167,-4.3858,-4.3319,-4.3305,-4.3305,-4.3305,-4.32,-4.2925,-4.2425,-4.2321,-4.1961,-4.128,-4.0726,-4.0352,-4.0247,-3.9723,-3.9388,-3.9388,-3.9388,-3.9388,-3.9388,-3.932,-3.9239,-3.9275,-3.9185,-3.914,-3.914,-3.9104,-3.8661,-3.7524,-3.8149,-3.8627,-3.8657,-3.9737,-4.0907,-4.1762,-4.2146,-4.2608,-4.3564,-4.4063,-4.426,-4.4108,-4.4384,-4.4598,-4.4598,-4.4598,-4.4598,-4.4598,-4.4598,-4.4598,-4.4598,-4.4598,-4.4598,-4.4598,-4.4598,-4.4598,-4.4598,-4.4598,-4.4598,-4.4598,-4.4598,-4.4598,-4.4598,-4.4598,-4.4598,-4.4598,-4.4598,-4.4598,-4.4598,-4.4598,-4.453,-4.435,-4.4418,-4.4265,-4.4107,-4.409,-4.4141,-4.4107,-4.4124,-4.3819,-4.7309,-4.7309,-4.7309,-4.7309,-4.7309,-4.7309,-4.7309,-4.7264,-4.6666,-4.6396,-4.6396,-4.6381,-4.6381,-4.6381,-4.6381,-4.6381,-4.6381,-4.6381,-4.6381,-4.6381,-4.6381,-4.6381,-4.6352,-4.6022,-4.5843,-4.5843,-4.5469,-4.5289,-4.5289,-4.5289,-4.5289,-4.5289,-4.5289,-4.514,-4.487,-4.484,-4.4526,-4.3883,-4.3469,-4.3305,-4.3305,-4.3305,-4.314,-4.291,-4.288,-4.2581,-4.1976,-4.1662,-4.1294,-4.095,-4.0292,-3.9948,-3.9948,-3.9619,-3.9388,-3.9388,-3.9388,-3.9388,-3.9388,-3.9388,-3.9388,-3.9388,-3.9388,-3.9185,-3.8556,-3.8817,-3.9024,-3.9059,-3.9711,-4.0223,-4.0642,-4.0974,-4.1511,-4.2394,-4.2892,-4.338,-4.3873,-4.4338,-4.4598,-4.4598,-4.4598,-4.4598,-4.4598,-4.4598,-4.4598,-4.4598,-4.4598,-4.4598,-4.4598,-4.4598,-4.4598,-4.4598,-4.4598,-4.4598,-4.4598,-4.4598,-4.4598,-4.4598,-4.4598,-4.4598,-4.4598,-4.4598,-4.4598,-4.4598,-4.4598,-4.4598,-4.4598,-4.4598,-4.4598,-4.4598,-4.4598,-4.4598,-4.4598,-4.4598,-4.4327,-4.7444,-4.7309,-4.7309,-4.7309,-4.7309,-4.7309,-4.7309,-4.7309,-4.7294,-4.7309,-4.7309,-4.7309,-4.7309,-4.7309,-4.7309,-4.7309,-4.7309,-4.7309,-4.7309,-4.7309,-4.7309,-4.7309,-4.7264,-4.677,-4.6503,-4.6486,-4.5992,-4.5753,-4.5753,-4.5753,-4.5738,-4.5753,-4.5738,-4.5678,-4.5529,-4.5529,-4.52,-4.4541,-4.3858,-4.3439,-4.3305,-4.3305,-4.3305,-4.3305,-4.329,-4.309,-4.2611,-4.2485,-4.2171,-4.1647,-4.0965,-4.0621,-4.0591,-3.9993,-3.9649,-3.9597,-3.9463,-3.9388,-3.9388,-3.9388,-3.9388,-3.9388,-3.9388,-3.9388,-3.9388,-3.9388,-3.9388,-3.9388,-3.9415,-3.9538,-3.9799,-4.001,-4.0309,-4.1198,-4.2045,-4.3,-4.3562,-4.4196,-4.4598,-4.4598,-4.4598,-4.4598,-4.4598,-4.4598,-4.4598,-4.4598,-4.4598,-4.4598,-4.4598,-4.4598,-4.4598,-4.4598,-4.4598,-4.4598,-4.4598,-4.4598,-4.4598,-4.4598,-4.4598,-4.4598,-4.4598,-4.4598,-4.4598,-4.4598,-4.4598,-4.4598,-4.4598,-4.4598,-4.4598,-4.4598,-4.4598,-4.4598,-4.4598,-4.4598,-4.4598,-4.7848,-4.7339,-4.7309,-4.7309,-4.7309,-4.7309,-4.7309,-4.7309,-4.7309,-4.7309,-4.7309,-4.7309,-4.7309,-4.7309,-4.7309,-4.7309,-4.7309,-4.7309,-4.7309,-4.7309,-4.7309,-4.7309,-4.7309,-4.7234,-4.7219,-4.7189,-4.7085,-4.6995,-4.701,-4.7055,-4.707,-4.713,-4.7115,-4.6785,-4.6307,-4.6232,-4.5888,-4.5214,-4.4571,-4.3888,-4.3334,-4.3305,-4.3305,-4.3305,-4.3305,-4.326,-4.3155,-4.271,-4.2381,-4.2276,-4.1692,-4.1294,-4.1272,-4.0666,-4.0307,-4.0292,-3.9768,-3.9388,-3.9388,-3.9388,-3.9388,-3.9388,-3.9388,-3.9388,-3.9388,-3.9388,-3.9388,-3.9388,-3.9388,-3.9702,-4.05,-4.1113,-4.1739,-4.2489,-4.3469,-4.4412,-4.4355,-4.4542,-4.4598,-4.4598,-4.4598,-4.4598,-4.4598,-4.4598,-4.4598,-4.4598,-4.4598,-4.4598,-4.4598,-4.4598,-4.4598,-4.4598,-4.4598,-4.4598,-4.4598,-4.4598,-4.4598,-4.4598,-4.4598,-4.4598,-4.4598,-4.4598,-4.4598,-4.4598,-4.4598,-4.4598,-4.4598,-4.4598,-4.4598,-4.4598,-4.4598,-4.4598,-4.4598,-4.4598,-4.4598,-4.7908,-4.7324,-4.7309,-4.7309,-4.7309,-4.7309,-4.7309,-4.7309,-4.7309,-4.7309,-4.7309,-4.7309,-4.7309,-4.7309,-4.7309,-4.7309,-4.7309,-4.7309,-4.7309,-4.7309,-4.7309,-4.7309,-4.7309,-4.7309,-4.7309,-4.7309,-4.7309,-4.7309,-4.7309,-4.7309,-4.7309,-4.7309,-4.7309,-4.716,-4.692,-4.6905,-4.6561,-4.5918,-4.5633,-4.517,-4.4481,-4.3678,-4.3305,-4.3305,-4.3305,-4.3305,-4.3275,-4.3075,-4.294,-4.2895,-4.2312,-4.2006,-4.1991,-4.1377,-4.0965,-4.095,-4.0367,-3.9828,-3.9418,-3.9388,-3.9388,-3.9388,-3.9388,-3.9388,-3.9388,-3.9388,-3.9388,-3.9388,-3.9388,-3.9574,-3.9935,-4.0239,-4.0792,-4.1674,-4.2536,-4.3259,-4.3785,-4.4298,-4.4598,-4.4598,-4.4598,-4.4598,-4.4598,-4.4598,-4.4598,-4.4598,-4.4598,-4.4598,-4.4598,-4.4598,-4.4598,-4.4598,-4.4598,-4.4598,-4.4598,-4.4598,-4.4598,-4.4598,-4.4598,-4.4598,-4.4598,-4.4598,-4.4598,-4.4598,-4.4598,-4.4598,-4.4598,-4.4598,-4.4598,-4.4598,-4.4598,-4.4598,-4.4598,-4.4598,-4.4598,-4.8177,-4.7593,-4.7384,-4.7309,-4.7309,-4.7309,-4.7309,-4.7309,-4.7309,-4.7309,-4.7309,-4.7309,-4.7309,-4.7309,-4.7309,-4.7309,-4.7309,-4.7309,-4.7309,-4.7309,-4.7309,-4.7309,-4.7309,-4.7309,-4.7309,-4.7309,-4.7309,-4.7309,-4.7309,-4.7309,-4.7309,-4.7309,-4.7309,-4.7309,-4.7309,-4.7309,-4.7085,-4.6621,-4.6399,-4.6067,-4.5454,-4.4287,-4.3559,-4.3544,-4.3379,-4.3305,-4.3305,-4.3305,-4.3305,-4.329,-4.288,-4.2665,-4.2611,-4.2036,-4.1602,-4.1407,-4.095,-4.0382,-3.9723,-3.9694,-3.9604,-3.9418,-3.9388,-3.9388,-3.9388,-3.9388,-3.9388,-3.9388,-3.9388,-3.9388,-3.9424,-3.9625,-4.006,-4.0656,-4.1478,-4.2284,-4.2909,-4.371,-4.4224,-4.427,-4.4412,-4.4598,-4.4598,-4.4598,-4.4598,-4.4598,-4.4598,-4.4598,-4.4598,-4.4598,-4.4598,-4.4598,-4.4598,-4.4598,-4.4598,-4.4598,-4.4598,-4.4598,-4.4598,-4.4598,-4.4598,-4.4598,-4.4598,-4.4598,-4.4598,-4.4598,-4.4598,-4.4598,-4.4598,-4.4598,-4.4598,-4.4598,-4.4598,-4.4598,-4.4598,-4.888,-4.8162,-4.7563,-4.7309,-4.7309,-4.7309,-4.7309,-4.7309,-4.7309,-4.7309,-4.7309,-4.7309,-4.7309,-4.7309,-4.7309,-4.7309,-4.7309,-4.7309,-4.7309,-4.7309,-4.7309,-4.7309,-4.7309,-4.7309,-4.7309,-4.7309,-4.7309,-4.7309,-4.7309,-4.7309,-4.7309,-4.7309,-4.7309,-4.7309,-4.7309,-4.7309,-4.7294,-4.716,-4.6681,-4.6322,-4.61,-4.4975,-4.4317,-4.4227,-4.3618,-4.3305,-4.3305,-4.3305,-4.3305,-4.3305,-4.3245,-4.3215,-4.3185,-4.2671,-4.2096,-4.1542,-4.1407,-4.104,-4.0472,-4.0352,-4.0142,-3.9604,-3.9493,-3.9418,-3.9478,-3.9418,-3.9388,-3.9388,-3.9388,-3.9388,-3.9481,-3.997,-4.0432,-4.0622,-4.1412,-4.1917,-4.2029,-4.2909,-4.3306,-4.3515,-4.4121,-4.4542,-4.4598,-4.4598,-4.4598,-4.4598,-4.4598,-4.4598,-4.4598,-4.4598,-4.4598,-4.4598,-4.4598,-4.4598,-4.4598,-4.4598,-4.4598,-4.4598,-4.4598,-4.4598,-4.4598,-4.4598,-4.4598,-4.4598,-4.4598,-4.4598,-4.4598,-4.4598,-4.4598,-4.4598,-4.4598,-4.4598,-4.4598,-4.4598,-4.4598,-4.867,-4.7653,-4.7399,-4.7309,-4.7309,-4.7309,-4.7309,-4.7309,-4.7309,-4.7309,-4.7309,-4.7309,-4.7309,-4.7309,-4.7309,-4.7309,-4.7309,-4.7309,-4.7309,-4.7309,-4.7309,-4.7309,-4.7309,-4.7309,-4.7309,-4.7309,-4.7309,-4.7309,-4.7309,-4.7309,-4.7309,-4.7309,-4.7309,-4.7309,-4.7309,-4.7309,-4.7309,-4.7279,-4.704,-4.695,-4.6875,-4.6025,-4.5409,-4.4915,-4.3883,-4.3305,-4.3305,-4.3305,-4.3305,-4.3305,-4.3305,-4.3305,-4.3275,-4.312,-4.2686,-4.2141,-4.2051,-4.1767,-4.1145,-4.104,-4.0935,-4.0696,-4.0277,-4.0053,-3.9978,-3.9679,-3.9388,-3.9388,-3.9388,-3.9388,-3.9445,-3.9702,-3.9849,-3.999,-4.0622,-4.118,-4.1445,-4.2395,-4.3306,-4.3426,-4.4064,-4.457,-4.4598,-4.4598,-4.4598,-4.4598,-4.4598,-4.4598,-4.4598,-4.4598,-4.4598,-4.4598,-4.4598,-4.4598,-4.4598,-4.4598,-4.4598,-4.4598,-4.4598,-4.4598,-4.4598,-4.4598,-4.4598,-4.4598,-4.4598,-4.4598,-4.4598,-4.4598,-4.4598,-4.4598,-4.4598,-4.4598,-4.4598,-4.4598,-4.4598,-4.8506,-4.7399,-4.7309,-4.7309,-4.7309,-4.7309,-4.7309,-4.7309,-4.7309,-4.7309,-4.7309,-4.7309,-4.7309,-4.7309,-4.7309,-4.7309,-4.7309,-4.7309,-4.7309,-4.7309,-4.7309,-4.7309,-4.7309,-4.7309,-4.7309,-4.7309,-4.7309,-4.7309,-4.7309,-4.7309,-4.7309,-4.7309,-4.7309,-4.7309,-4.7309,-4.7309,-4.7309,-4.7309,-4.7309,-4.7294,-4.7234,-4.6666,-4.6112,-4.5514,-4.4347,-4.3484,-4.3319,-4.3305,-4.3305,-4.3305,-4.3305,-4.3305,-4.3305,-4.3305,-4.3135,-4.2785,-4.2671,-4.2387,-4.1841,-4.1737,-4.1632,-4.1384,-4.0995,-4.0711,-4.0666,-4.0113,-3.9798,-3.9709,-3.9463,-3.9388,-3.9388,-3.9424,-3.9388,-3.9445,-3.992,-4.0274,-4.0378,-4.1543,-4.2583,-4.3259,-4.4064,-4.4542,-4.4598,-4.4598,-4.4598,-4.4598,-4.4598,-4.4598,-4.4598,-4.4598,-4.4598,-4.4598,-4.4598,-4.4598,-4.4598,-4.4598,-4.4598,-4.4598,-4.4598,-4.4598,-4.4598,-4.4598,-4.4598,-4.4598,-4.4598,-4.4598,-4.4598,-4.4598,-4.4598,-4.4598,-4.4598,-4.4598,-4.4598,-4.4598,-4.4598,-4.8491,-4.7384,-4.7309,-4.7309,-4.7309,-4.7309,-4.7309,-4.7309,-4.7309,-4.7309,-4.7309,-4.7309,-4.7309,-4.7309,-4.7309,-4.7309,-4.7309,-4.7309,-4.7309,-4.7309,-4.7309,-4.7309,-4.7309,-4.7309,-4.7309,-4.7309,-4.7309,-4.7309,-4.7309,-4.7309,-4.7309,-4.7309,-4.7309,-4.7309,-4.7309,-4.7309,-4.7309,-4.7309,-4.7309,-4.7309,-4.7234,-4.6726,-4.6367,-4.6085,-4.499,-4.4032,-4.3394,-4.3319,-4.3305,-4.3305,-4.3305,-4.3305,-4.3305,-4.3305,-4.329,-4.323,-4.326,-4.3,-4.25,-4.2396,-4.2141,-4.1752,-4.1429,-4.1422,-4.1294,-4.0786,-4.0397,-4.0322,-3.9873,-3.9463,-3.9499,-3.9403,-3.9388,-3.9388,-3.9553,-3.9538,-3.9666,-4.0239,-4.1396,-4.297,-4.3977,-4.4542,-4.4598,-4.4598,-4.4598,-4.4598,-4.4598,-4.4598,-4.4598,-4.4598,-4.4598,-4.4598,-4.4598,-4.4598,-4.4598,-4.4598,-4.4598,-4.4598,-4.4598,-4.4598,-4.4598,-4.4598,-4.4598,-4.4598,-4.4598,-4.4598,-4.4598,-4.4598,-4.4598,-4.4598,-4.4598,-4.4598,-4.4598,-4.4598,-4.4598,-4.8087,-4.7339,-4.7309,-4.7309,-4.7309,-4.7309,-4.7309,-4.7309,-4.7309,-4.7309,-4.7309,-4.7309,-4.7309,-4.7309,-4.7309,-4.7309,-4.7309,-4.7309,-4.7309,-4.7309,-4.7309,-4.7309,-4.7309,-4.7309,-4.7309,-4.7309,-4.7309,-4.7309,-4.7309,-4.7309,-4.7309,-4.7309,-4.7309,-4.7309,-4.7309,-4.7309,-4.7309,-4.7309,-4.7309,-4.7309,-4.7294,-4.7115,-4.68,-4.6234,-4.5454,-4.4676,-4.4007,-4.3544,-4.3319,-4.3305,-4.3305,-4.3305,-4.3305,-4.3305,-4.3305,-4.3305,-4.3305,-4.3245,-4.309,-4.3015,-4.2925,-4.2671,-4.2312,-4.2111,-4.2021,-4.1459,-4.1085,-4.101,-4.0487,-4.0098,-4.0023,-3.9649,-3.9433,-3.9388,-3.9388,-3.9388,-3.9481,-4.0185,-4.1445,-4.2909,-4.3562,-4.3931,-4.444,-4.4598,-4.4598,-4.4598,-4.4598,-4.4598,-4.4598,-4.4598,-4.4598,-4.4598,-4.4598,-4.4598,-4.4598,-4.4598,-4.4598,-4.4598,-4.4598,-4.4598,-4.4598,-4.4598,-4.4598,-4.4598,-4.4598,-4.4598,-4.4598,-4.4598,-4.4598,-4.4598,-4.4598,-4.4598,-4.4598,-4.4598,-4.4598,-4.7893,-4.7324,-4.7309,-4.7309,-4.7309,-4.7309,-4.7309,-4.7309,-4.7309,-4.7309,-4.7309,-4.7309,-4.7309,-4.7309,-4.7309,-4.7309,-4.7309,-4.7309,-4.7309,-4.7309,-4.7309,-4.7309,-4.7309,-4.7309,-4.7309,-4.7309,-4.7309,-4.7309,-4.7309,-4.7309,-4.7309,-4.7309,-4.7309,-4.7309,-4.7309,-4.7309,-4.7309,-4.7309,-4.7309,-4.7309,-4.7309,-4.7309,-4.71,-4.6636,-4.5798,-4.5125,-4.4646,-4.3783,-4.3305,-4.3305,-4.3305,-4.3305,-4.3305,-4.3305,-4.3305,-4.3305,-4.3305,-4.329,-4.3305,-4.326,-4.3305,-4.3215,-4.2955,-4.2731,-4.2611,-4.2132,-4.1811,-4.1692,-4.116,-4.0756,-4.0666,-4.0172,-3.9813,-3.9768,-3.9523,-3.9403,-3.9517,-4.0185,-4.1213,-4.2458,-4.3092,-4.3697,-4.4327,-4.4598,-4.4598,-4.4598,-4.4598,-4.4598,-4.4598,-4.4598,-4.4598,-4.4598,-4.4598,-4.4598,-4.4598,-4.4598,-4.4598,-4.4598,-4.4598,-4.4598,-4.4598,-4.4598,-4.4598,-4.4598,-4.4598,-4.4598,-4.4598,-4.4598,-4.4598,-4.4598,-4.4598,-4.4598,-4.4598,-4.4598,-4.4598,-4.7863,-4.7339,-4.7309,-4.7309,-4.7309,-4.7309,-4.7309,-4.7309,-4.7309,-4.7309,-4.7309,-4.7309,-4.7309,-4.7309,-4.7309,-4.7309,-4.7309,-4.7309,-4.7309,-4.7309,-4.7309,-4.7309,-4.7309,-4.7309,-4.7309,-4.7309,-4.7309,-4.7309,-4.7309,-4.7309,-4.7309,-4.7309,-4.7309,-4.7309,-4.7309,-4.7309,-4.7309,-4.7309,-4.7309,-4.7309,-4.7309,-4.7309,-4.7234,-4.71,-4.5963,-4.5214,-4.49,-4.3917,-4.3305,-4.3305,-4.3305,-4.3305,-4.3305,-4.3305,-4.3305,-4.3305,-4.3305,-4.3305,-4.3305,-4.3305,-4.3305,-4.329,-4.326,-4.3305,-4.3125,-4.2731,-4.2455,-4.241,-4.1871,-4.1429,-4.1362,-4.0846,-4.0472,-4.0292,-3.9783,-3.9433,-3.9481,-4.0115,-4.0894,-4.1772,-4.2693,-4.3502,-4.4179,-4.4412,-4.4468,-4.4598,-4.4598,-4.4598,-4.4598,-4.4598,-4.4598,-4.4598,-4.4598,-4.4598,-4.4598,-4.4598,-4.4598,-4.4598,-4.4598,-4.4598,-4.4598,-4.4598,-4.4598,-4.4598,-4.4598,-4.4598,-4.4598,-4.4598,-4.4598,-4.4598,-4.4598,-4.4598,-4.4598,-4.4598,-4.4598,-4.7459,-4.7309,-4.7309,-4.7309,-4.7309,-4.7309,-4.7309,-4.7309,-4.7309,-4.7309,-4.7309,-4.7309,-4.7309,-4.7309,-4.7309,-4.7309,-4.7309,-4.7309,-4.7309,-4.7309,-4.7309,-4.7309,-4.7309,-4.7309,-4.7309,-4.7309,-4.7309,-4.7309,-4.7309,-4.7309,-4.7309,-4.7309,-4.7309,-4.7309,-4.7309,-4.7309,-4.7309,-4.7309,-4.7309,-4.7309,-4.7309,-4.7279,-4.7055,-4.6516,-4.5738,-4.505,-4.4571,-4.3738,-4.3305,-4.3305,-4.3305,-4.3305,-4.3305,-4.3305,-4.3305,-4.3305,-4.3305,-4.3305,-4.3305,-4.3305,-4.3305,-4.3305,-4.3305,-4.3305,-4.3305,-4.3155,-4.3075,-4.297,-4.2491,-4.2141,-4.2036,-4.1527,-4.0965,-4.0412,-3.9762,-3.9388,-3.946,-3.961,-4.0095,-4.0878,-4.1313,-4.2189,-4.329,-4.3739,-4.396,-4.4412,-4.4598,-4.4598,-4.4598,-4.4598,-4.4598,-4.4598,-4.4598,-4.4598,-4.4598,-4.4598,-4.4598,-4.4598,-4.4598,-4.4598,-4.4598,-4.4598,-4.4598,-4.4598,-4.4598,-4.4598,-4.4598,-4.4598,-4.4598,-4.4598,-4.4598,-4.4598,-4.4598,-4.4598,-4.4598,-4.7309,-4.7309,-4.7309,-4.7309,-4.7309,-4.7309,-4.7309,-4.7309,-4.7309,-4.7309,-4.7309,-4.7309,-4.7309,-4.7309,-4.7309,-4.7309,-4.7309,-4.7309,-4.7309,-4.7309,-4.7309,-4.7309,-4.7309,-4.7309,-4.7309,-4.7309,-4.7309,-4.7309,-4.7309,-4.7309,-4.7309,-4.7309,-4.7309,-4.7309,-4.7309,-4.7309,-4.7309,-4.7309,-4.7309,-4.7309,-4.7309,-4.7025,-4.6726,-4.6157,-4.5424,-4.4571,-4.3902,-4.3484,-4.3305,-4.3305,-4.3305,-4.3305,-4.3305,-4.3305,-4.3305,-4.3305,-4.3305,-4.3305,-4.3305,-4.3305,-4.3305,-4.3305,-4.3305,-4.3305,-4.3305,-4.3305,-4.3305,-4.3215,-4.2955,-4.2806,-4.2611,-4.1938,-4.0995,-4.0113,-3.9649,-3.9388,-3.9388,-3.9424,-3.9793,-4.0397,-4.0777,-4.133,-4.3047,-4.3246,-4.3726,-4.4327,-4.4598,-4.4598,-4.4598,-4.4598,-4.4598,-4.4598,-4.4598,-4.4598,-4.4598,-4.4598,-4.4598,-4.4598,-4.4598,-4.4598,-4.4598,-4.4598,-4.4598,-4.4598,-4.4598,-4.4598,-4.4598,-4.4598,-4.4598,-4.4598,-4.4598,-4.4598,-4.4598,-4.4598,-4.4598,-4.7309,-4.7309,-4.7309,-4.7309,-4.7309,-4.7309,-4.7309,-4.7309,-4.7309,-4.7309,-4.7309,-4.7309,-4.7309,-4.7309,-4.7309,-4.7309,-4.7309,-4.7309,-4.7309,-4.7309,-4.7309,-4.7309,-4.7309,-4.7309,-4.7309,-4.7309,-4.7309,-4.7309,-4.7309,-4.7309,-4.7309,-4.7309,-4.7309,-4.7309,-4.7309,-4.7309,-4.7309,-4.7309,-4.7309,-4.7204,-4.7055,-4.6651,-4.6277,-4.5723,-4.4796,-4.3977,-4.3514,-4.3305,-4.3305,-4.3305,-4.3305,-4.3305,-4.3305,-4.3305,-4.3305,-4.3305,-4.3305,-4.3305,-4.3305,-4.3305,-4.3305,-4.3305,-4.3305,-4.3305,-4.3305,-4.3305,-4.3305,-4.3305,-4.3305,-4.3155,-4.288,-4.1998,-4.0876,-3.9948,-3.9574,-3.9388,-3.9388,-3.9388,-3.9702,-4.0397,-4.0535,-4.1379,-4.2426,-4.3108,-4.3336,-4.3919,-4.4224,-4.431,-4.444,-4.4598,-4.4598,-4.4598,-4.4598,-4.4598,-4.4598,-4.4598,-4.4598,-4.4598,-4.4598,-4.4598,-4.4598,-4.4598,-4.4598,-4.4598,-4.4598,-4.4598,-4.4598,-4.4598,-4.4598,-4.4598,-4.4598,-4.4598,-4.4598,-4.4598,-4.4598,-4.7309,-4.7309,-4.7309,-4.7309,-4.7309,-4.7309,-4.7309,-4.7309,-4.7309,-4.7309,-4.7309,-4.7309,-4.7309,-4.7309,-4.7309,-4.7309,-4.7309,-4.7309,-4.7309,-4.7309,-4.7309,-4.7309,-4.7309,-4.7309,-4.7309,-4.7309,-4.7309,-4.7309,-4.7309,-4.7309,-4.7309,-4.7309,-4.7309,-4.7309,-4.7309,-4.7309,-4.7309,-4.7309,-4.7294,-4.698,-4.6561,-4.6307,-4.5738,-4.4829,-4.3962,-4.3529,-4.3349,-4.3305,-4.3305,-4.3305,-4.3305,-4.3305,-4.3305,-4.3305,-4.3305,-4.3305,-4.3305,-4.3305,-4.3305,-4.3305,-4.3305,-4.3305,-4.3305,-4.3305,-4.3305,-4.3305,-4.3305,-4.3305,-4.329,-4.306,-4.2462,-4.1369,-4.0576,-4.0068,-3.9679,-3.9388,-3.9388,-3.9388,-3.9553,-3.9681,-3.9773,-4.0095,-4.1147,-4.1445,-4.2093,-4.3199,-4.3756,-4.3948,-4.4224,-4.457,-4.4598,-4.4598,-4.4598,-4.457,-4.4542,-4.444,-4.4253,-4.4253,-4.431,-4.4338,-4.4338,-4.4598,-4.4598,-4.4598,-4.4598,-4.4598,-4.4598,-4.4598,-4.4598,-4.4598,-4.4598,-4.4598,-4.4598,-4.4598,-4.4598,-4.7309,-4.7309,-4.7309,-4.7309,-4.7309,-4.7309,-4.7309,-4.7309,-4.7309,-4.7309,-4.7309,-4.7309,-4.7309,-4.7309,-4.7309,-4.7309,-4.7309,-4.7309,-4.7309,-4.7309,-4.7309,-4.7309,-4.7309,-4.7309,-4.7309,-4.7309,-4.7309,-4.7309,-4.7309,-4.7309,-4.7309,-4.7309,-4.7309,-4.7309,-4.7309,-4.7294,-4.7115,-4.6875,-4.683,-4.6516,-4.5933,-4.5499,-4.4934,-4.4007,-4.3469,-4.3305,-4.3305,-4.3305,-4.3305,-4.3305,-4.3305,-4.3305,-4.3305,-4.3305,-4.3305,-4.3305,-4.3305,-4.3305,-4.3305,-4.3305,-4.3305,-4.3305,-4.3305,-4.3305,-4.3305,-4.3305,-4.3305,-4.323,-4.3,-4.2521,-4.1564,-4.098,-4.0352,-3.9933,-3.9612,-3.9403,-3.9388,-3.9388,-3.9388,-3.9388,-3.9445,-3.992,-4.0328,-4.0535,-4.1511,-4.2939,-4.3336,-4.3562,-4.4327,-4.457,-4.4598,-4.4598,-4.4598,-4.457,-4.4485,-4.4253,-4.3844,-4.3814,-4.3768,-4.3768,-4.3768,-4.4179,-4.4598,-4.4598,-4.4598,-4.4598,-4.4598,-4.4598,-4.457,-4.457,-4.457,-4.457,-4.4542,-4.4412,-4.4468,-4.7309,-4.7309,-4.7309,-4.7309,-4.7309,-4.7309,-4.7309,-4.7309,-4.7309,-4.7309,-4.7309,-4.7309,-4.7309,-4.7309,-4.7309,-4.7309,-4.7309,-4.7309,-4.7309,-4.7309,-4.7309,-4.7309,-4.7309,-4.7309,-4.7309,-4.7309,-4.7309,-4.7309,-4.7309,-4.7309,-4.7309,-4.7309,-4.7309,-4.7309,-4.7309,-4.7145,-4.689,-4.6444,-4.6247,-4.5843,-4.5229,-4.4676,-4.4137,-4.3514,-4.3349,-4.3305,-4.3305,-4.3305,-4.3305,-4.3305,-4.3305,-4.3305,-4.3305,-4.3305,-4.3305,-4.3305,-4.3305,-4.3305,-4.3305,-4.3305,-4.3305,-4.3305,-4.3305,-4.3305,-4.3305,-4.3305,-4.3305,-4.3021,-4.2701,-4.1758,-4.0591,-4.0232,-3.9963,-3.9604,-3.9403,-3.9388,-3.9388,-3.9388,-3.9388,-3.9388,-3.9424,-3.9722,-4.0045,-4.0343,-4.1511,-4.2489,-4.2785,-4.3246,-4.3902,-4.4253,-4.4047,-4.396,-4.3827,-4.3604,-4.3499,-4.3469,-4.3139,-4.3108,-4.3108,-4.3199,-4.3259,-4.371,-4.415,-4.4525,-4.4598,-4.4542,-4.4542,-4.4598,-4.457,-4.4542,-4.4281,-4.4006,-4.4035,-4.4196,-4.4121,-4.7309,-4.7309,-4.7309,-4.7309,-4.7309,-4.7309,-4.7309,-4.7309,-4.7309,-4.7309,-4.7309,-4.7309,-4.7309,-4.7309,-4.7309,-4.7309,-4.7309,-4.7309,-4.7309,-4.7309,-4.7309,-4.7309,-4.7309,-4.7309,-4.7309,-4.7309,-4.7309,-4.7309,-4.7309,-4.7309,-4.7309,-4.7309,-4.7309,-4.7309,-4.7085,-4.68,-4.6456,-4.6037,-4.5678,-4.514,-4.4586,-4.4287,-4.3958,-4.3364,-4.3305,-4.3305,-4.3305,-4.3305,-4.3305,-4.3305,-4.3305,-4.3305,-4.3305,-4.3305,-4.3305,-4.3305,-4.3305,-4.3305,-4.3305,-4.3305,-4.3305,-4.3305,-4.3305,-4.3305,-4.3305,-4.329,-4.326,-4.2955,-4.2237,-4.1235,-4.0487,-3.9993,-3.9597,-3.9403,-3.9388,-3.9388,-3.9388,-3.9388,-3.9388,-3.9388,-3.9409,-3.943,-3.9737,-3.999,-4.0672,-4.1379,-4.1674,-4.2157,-4.2816,-4.3,-4.2892,-4.2831,-4.2769,-4.2504,-4.2284,-4.2316,-4.2221,-4.2221,-4.2284,-4.2536,-4.2738,-4.3199,-4.3621,-4.3827,-4.4179,-4.4327,-4.4384,-4.4338,-4.4047,-4.3634,-4.3456,-4.3306,-4.3229,-4.3122,-4.2862,-4.6682,-4.7309,-4.7309,-4.7309,-4.7309,-4.7309,-4.7309,-4.7309,-4.7309,-4.7309,-4.7309,-4.7309,-4.7309,-4.7309,-4.7309,-4.7309,-4.7309,-4.7309,-4.7309,-4.7309,-4.7309,-4.7309,-4.7309,-4.7309,-4.7309,-4.7309,-4.7309,-4.7309,-4.7309,-4.7309,-4.7294,-4.7309,-4.7309,-4.716,-4.683,-4.6516,-4.5903,-4.5439,-4.4945,-4.4481,-4.3858,-4.3823,-4.3559,-4.3409,-4.3305,-4.3305,-4.3305,-4.3305,-4.3305,-4.3305,-4.3305,-4.3305,-4.3305,-4.3305,-4.3305,-4.3305,-4.3305,-4.3305,-4.3305,-4.3305,-4.3305,-4.3305,-4.3305,-4.3305,-4.3305,-4.3275,-4.317,-4.2701,-4.2073,-4.1153,-4.0457,-3.9813,-3.9448,-3.9388,-3.9388,-3.9388,-3.9388,-3.9388,-3.9388,-3.9388,-3.9424,-3.9409,-3.9424,-3.9666,-3.992,-4.0274,-4.0588,-4.1113,-4.1739,-4.1836,-4.1869,-4.1997,-4.2029,-4.1933,-4.1609,-4.1379,-4.1346,-4.1313,-4.1412,-4.1658,-4.1981,-4.2347,-4.2645,-4.2892,-4.329,-4.3651,-4.335,-4.2984,-4.2831,-4.2769,-4.2614,-4.2489,-4.2221,-4.2013,-4.1788,-4.6151,-4.7309,-4.7309,-4.7309,-4.7309,-4.7309,-4.7309,-4.7309,-4.7309,-4.7309,-4.7309,-4.7309,-4.7309,-4.7309,-4.7309,-4.7309,-4.7309,-4.7309,-4.7309,-4.7309,-4.7309,-4.7309,-4.7309,-4.7309,-4.7309,-4.7309,-4.7309,-4.7309,-4.7309,-4.7309,-4.7234,-4.7055,-4.7085,-4.677,-4.6217,-4.5843,-4.517,-4.4676,-4.4082,-4.3808,-4.3424,-4.3305,-4.3305,-4.3305,-4.3305,-4.3305,-4.3305,-4.3305,-4.3305,-4.3305,-4.3305,-4.3305,-4.3305,-4.3305,-4.3305,-4.3305,-4.3305,-4.3305,-4.3305,-4.3305,-4.3305,-4.3305,-4.3305,-4.3305,-4.3305,-4.3245,-4.3075,-4.2455,-4.1991,-4.1287,-4.0531,-3.9963,-3.9582,-3.9388,-3.9388,-3.9388,-3.9388,-3.9388,-3.9388,-3.9388,-3.9388,-3.9388,-3.9388,-3.9424,-3.9702,-3.9793,-4.0115,-4.0255,-4.0774,-4.0977,-4.1062,-4.1262,-4.1346,-4.1379,-4.1095,-4.0569,-4.05,-4.0447,-4.05,-4.069,-4.1013,-4.1363,-4.1658,-4.1917,-4.2141,-4.2379,-4.1981,-4.1885,-4.2029,-4.2062,-4.1869,-4.1511,-4.1095,-4.0961,-4.0909,-4.6151,-4.7266,-4.7266,-4.7309,-4.7266,-4.7222,-4.7266,-4.7309,-4.7309,-4.7309,-4.7309,-4.7309,-4.7309,-4.7309,-4.7309,-4.7309,-4.7309,-4.7309,-4.7309,-4.7309,-4.7309,-4.7264,-4.7264,-4.7309,-4.7115,-4.704,-4.713,-4.7309,-4.7145,-4.713,-4.692,-4.6546,-4.6381,-4.6055,-4.5439,-4.5065,-4.4481,-4.4172,-4.3708,-4.3394,-4.3319,-4.3305,-4.3305,-4.3305,-4.3305,-4.3305,-4.3305,-4.3305,-4.3305,-4.3305,-4.3305,-4.3305,-4.3305,-4.3305,-4.3305,-4.3305,-4.3305,-4.3305,-4.3305,-4.3305,-4.3305,-4.3305,-4.3305,-4.3305,-4.3305,-4.3275,-4.3075,-4.247,-4.2261,-4.1782,-4.0891,-4.0397,-4.0008,-3.9709,-3.9523,-3.9499,-3.9439,-3.9388,-3.9388,-3.9388,-3.9388,-3.9388,-3.9388,-3.9424,-3.946,-3.9517,-3.9574,-3.9737,-3.99,-4.0165,-4.027,-4.0462,-4.0619,-4.0638,-4.0585,-4.006,-3.9935,-3.9773,-3.9829,-3.992,-4.0274,-4.0638,-4.069,-4.0946,-4.1147,-4.1346,-4.1313,-4.1346,-4.1445,-4.1247,-4.0943,-4.0393,-3.9788,-3.9809,-4.0111,-4.3975,-4.5207,-4.5928,-4.6211,-4.6255,-4.6255,-4.6638,-4.7207,-4.7309,-4.7309,-4.7309,-4.7309,-4.7309,-4.7279,-4.7309,-4.7309,-4.7309,-4.7249,-4.7294,-4.7249,-4.7219,-4.7085,-4.68,-4.6711,-4.6621,-4.6292,-4.6172,-4.6067,-4.6247,-4.6501,-4.6411,-4.5843,-4.5708,-4.5409,-4.4796,-4.4466,-4.4107,-4.3793,-4.3439,-4.3319,-4.3305,-4.3305,-4.3305,-4.3305,-4.3305,-4.3305,-4.3305,-4.3305,-4.3305,-4.3305,-4.3305,-4.3305,-4.3305,-4.3305,-4.3305,-4.3305,-4.3305,-4.3305,-4.3305,-4.3305,-4.3305,-4.3305,-4.3305,-4.3305,-4.3305,-4.3275,-4.3269,-4.2955,-4.2605,-4.2096,-4.1534,-4.1175,-4.0621,-4.0217,-3.9918,-3.9627,-3.9523,-3.9403,-3.9388,-3.9388,-3.9388,-3.9388,-3.9388,-3.9388,-3.9424,-3.946,-3.9481,-3.9553,-3.9589,-3.9646,-3.9681,-3.961,-3.9773,-3.9864,-3.9809,-3.9574,-3.9646,-3.9538,-3.9553,-3.9646,-3.9737,-3.9955,-4.008,-4.006,-4.0095,-4.0324,-4.0585,-4.055,-4.0413,-4.0185,-3.997,-3.9681,-3.946,-3.9496,-3.9753,-4.1972,-4.2703,-4.4256,-4.4932,-4.4964,-4.5267,-4.5928,-4.6785,-4.7164,-4.7309,-4.7249,-4.713,-4.704,-4.698,-4.683,-4.6651,-4.6741,-4.68,-4.68,-4.6815,-4.6756,-4.6471,-4.6187,-4.6022,-4.5813,-4.5274,-4.5484,-4.5334,-4.5289,-4.5439,-4.5499,-4.5065,-4.505,-4.4676,-4.4201,-4.3962,-4.3753,-4.3424,-4.3334,-4.3305,-4.3305,-4.3305,-4.3305,-4.3305,-4.3305,-4.3305,-4.3305,-4.3305,-4.3305,-4.3305,-4.3305,-4.3305,-4.3305,-4.3305,-4.3305,-4.3305,-4.3305,-4.3305,-4.3305,-4.3305,-4.3305,-4.3305,-4.3305,-4.3305,-4.3305,-4.3305,-4.329,-4.3215,-4.297,-4.2626,-4.2336,-4.1901,-4.1354,-4.0846,-4.0442,-4.0098,-3.9717,-3.9538,-3.9403,-3.9388,-3.9388,-3.9388,-3.9388,-3.9388,-3.9388,-3.9388,-3.9388,-3.9388,-3.9388,-3.9388,-3.9388,-3.9388,-3.946,-3.9553,-3.9481,-3.9388,-3.9388,-3.9388,-3.9388,-3.9424,-3.9538,-3.9538,-3.961,-3.9481,-3.9388,-3.9589,-4.0005,-3.9681,-3.9424,-3.9553,-3.9681,-3.9553,-3.9388,-3.9388,-3.9424,-4.0932,-4.016,-4.2606,-4.3598,-4.3726,-4.4918,-4.5448,-4.5838,-4.6829,-4.7236,-4.713,-4.6653,-4.6396,-4.6277,-4.5903,-4.5633,-4.5499,-4.5439,-4.5618,-4.5603,-4.5439,-4.5529,-4.5409,-4.5349,-4.5289,-4.514,-4.499,-4.4721,-4.4526,-4.4496,-4.4511,-4.4392,-4.4377,-4.3958,-4.3633,-4.3529,-4.3499,-4.3305,-4.3305,-4.3305,-4.3305,-4.3305,-4.3305,-4.3305,-4.3305,-4.3305,-4.3305,-4.3305,-4.3305,-4.3305,-4.3305,-4.3305,-4.3305,-4.3305,-4.3305,-4.3305,-4.3305,-4.3305,-4.3305,-4.3305,-4.3305,-4.3305,-4.3305,-4.3305,-4.3305,-4.3305,-4.3305,-4.3305,-4.311,-4.294,-4.2611,-4.2306,-4.1968,-4.1482,-4.095,-4.0472,-4.0053,-3.9553,-3.9433,-3.9403,-3.9388,-3.9388,-3.9388,-3.9388,-3.9388,-3.9388,-3.9388,-3.9388,-3.9388,-3.9388,-3.9388,-3.9388,-3.9388,-3.9424,-3.9424,-3.9388,-3.9388,-3.9388,-3.9388,-3.9388,-3.9424,-3.9388,-3.9388,-3.9388,-3.9388,-3.9388,-3.9388,-3.9388,-3.9388,-3.9388,-3.9388,-3.9388,-3.9388,-3.9388,-3.9388,-4.0121,-3.9788,-4.0781,-4.1604,-4.2412,-4.3693,-4.4674,-4.5553,-4.6726,-4.7055,-4.6623,-4.6022,-4.5693,-4.5589,-4.5499,-4.5289,-4.5289,-4.5289,-4.5244,-4.5289,-4.5289,-4.505,-4.4885,-4.4631,-4.4511,-4.4242,-4.4082,-4.3992,-4.3708,-4.3753,-4.3678,-4.3678,-4.3738,-4.3574,-4.3349,-4.3305,-4.3305,-4.3305,-4.3305,-4.3305,-4.3305,-4.3305,-4.3305,-4.3305,-4.3305,-4.3305,-4.3305,-4.3305,-4.3305,-4.3305,-4.3305,-4.3305,-4.3305,-4.3305,-4.3305,-4.3305,-4.3305,-4.3305,-4.3305,-4.3305,-4.3305,-4.3305,-4.3305,-4.3305,-4.3305,-4.3305,-4.3305,-4.3305,-4.3305,-4.3135,-4.306,-4.294,-4.2701,-4.2043,-4.1467,-4.0876,-4.0322,-3.9783,-3.9448,-3.9403,-3.9388,-3.9388,-3.9388,-3.9388,-3.9388,-3.9388,-3.9388,-3.9388,-3.9388,-3.9388,-3.9388,-3.9388,-3.9388,-3.9388,-3.9388,-3.9388,-3.9388,-3.9388,-3.9388,-3.9388,-3.9388,-3.9388,-3.9388,-3.9388,-3.9388,-3.9388,-3.9388,-3.9388,-3.9388,-3.9388,-3.9388,-3.9388,-3.9388,-3.9388,-3.9388,-3.9195,-3.9195,-3.9195,-3.9918,-4.113,-4.2224,-4.3194,-4.4086,-4.5064,-4.5681,-4.5467,-4.5096,-4.5005,-4.496,-4.4736,-4.4661,-4.4586,-4.4616,-4.4661,-4.4631,-4.4526,-4.4421,-4.4167,-4.3988,-4.3838,-4.3349,-4.3305,-4.3334,-4.3364,-4.3319,-4.3349,-4.3364,-4.3305,-4.3319,-4.3319,-4.3305,-4.3305,-4.3305,-4.3305,-4.3305,-4.3305,-4.3305,-4.3305,-4.3305,-4.3305,-4.3305,-4.3305,-4.3305,-4.3305,-4.3305,-4.3305,-4.3305,-4.3305,-4.3305,-4.3305,-4.3305,-4.3305,-4.3305,-4.3305,-4.3305,-4.3305,-4.3305,-4.3305,-4.3305,-4.3305,-4.3305,-4.3305,-4.3305,-4.3305,-4.3305,-4.3305,-4.32,-4.294,-4.2291,-4.1662,-4.1078,-4.0397,-3.9843,-3.9568,-3.9388,-3.9388,-3.9388,-3.9388,-3.9388,-3.9388,-3.9388,-3.9388,-3.9388,-3.9388,-3.9388,-3.9388,-3.9388,-3.9388,-3.9388,-3.9388,-3.9388,-3.9388,-3.9388,-3.9388,-3.9388,-3.9388,-3.9388,-3.9388,-3.9388,-3.9388,-3.9388,-3.9388,-3.9388,-3.9388,-3.9388,-3.9388,-3.9388,-3.9388,-3.9388,-3.9388,-3.809,-3.804,-3.809,-3.8743,-3.9816,-4.0556,-4.1037,-4.1422,-4.2163,-4.3034,-4.3991,-4.419,-4.4332,-4.4227,-4.3828,-4.3693,-4.3648,-4.3574,-4.3574,-4.3648,-4.3723,-4.3469,-4.3439,-4.3424,-4.3469,-4.3349,-4.3305,-4.3305,-4.3305,-4.3305,-4.3305,-4.3305,-4.3305,-4.3305,-4.3305,-4.3305,-4.3305,-4.3305,-4.3305,-4.3305,-4.3305,-4.3305,-4.3305,-4.3305,-4.3305,-4.3305,-4.3305,-4.3305,-4.3305,-4.3305,-4.3305,-4.3305,-4.3305,-4.3305,-4.3305,-4.3305,-4.3305,-4.3305,-4.3305,-4.3305,-4.3305,-4.3305,-4.3305,-4.3305,-4.3305,-4.3305,-4.3305,-4.3305,-4.3305,-4.3305,-4.3305,-4.326,-4.2925,-4.2417,-4.1811,-4.113,-4.0472,-3.9843,-3.9523,-3.9388,-3.9388,-3.9388,-3.9388,-3.9388,-3.9388,-3.9388,-3.9388,-3.9388,-3.9388,-3.9388,-3.9388,-3.9388,-3.9388,-3.9388,-3.9388,-3.9388,-3.9388,-3.9388,-3.9388,-3.9388,-3.9388,-3.9388,-3.9388,-3.9388,-3.9388,-3.9388,-3.9388,-3.9388,-3.9388,-3.9388,-3.9388,-3.9388,-3.9388,-3.9388,-3.9388,-3.8002,-3.8002,-3.8002,-3.8228,-3.8717,-3.9764,-4.0174,-4.0448,-4.1678,-4.294,-4.3808,-4.3822,-4.3658,-4.3514,-4.3469,-4.3305,-4.3305,-4.3305,-4.3305,-4.3305,-4.3305,-4.3305,-4.3305,-4.3305,-4.3305,-4.3305,-4.3305,-4.3305,-4.3305,-4.3305,-4.3305,-4.3305,-4.3305,-4.3305,-4.3305,-4.3305,-4.3305,-4.3305,-4.3305,-4.3305,-4.3305,-4.3305,-4.3305,-4.3305,-4.3305,-4.3305,-4.3305,-4.3305,-4.3305,-4.3305,-4.3305,-4.3305,-4.3305,-4.3305,-4.3305,-4.3305,-4.3305,-4.3305,-4.3305,-4.3305,-4.3305,-4.3305,-4.3305,-4.3305,-4.3305,-4.3305,-4.3305,-4.3305,-4.3305,-4.3305,-4.3305,-4.329,-4.3,-4.244,-4.1811,-4.113,-4.0472,-3.9843,-3.9388,-3.9388,-3.9388,-3.9388,-3.9388,-3.9388,-3.9388,-3.9388,-3.9388,-3.9388,-3.9388,-3.9388,-3.9388,-3.9388,-3.9388,-3.9388,-3.9388,-3.9388,-3.9388,-3.9388,-3.9388,-3.9388,-3.9388,-3.9388,-3.9388,-3.9388,-3.9388,-3.9388,-3.9388,-3.9388,-3.9388,-3.9388,-3.9388,-3.9388,-3.9388,-3.9388,-3.9388,-3.7437,-3.7437,-3.7437,-3.7437,-3.7596,-3.8556,-3.9076,-3.9528,-4.097,-4.2305,-4.3134,-4.3254,-4.3319,-4.3319,-4.3305,-4.3305,-4.3305,-4.3305,-4.3305,-4.3305,-4.3305,-4.3305,-4.3305,-4.3305,-4.3305,-4.3305,-4.3305,-4.3305,-4.3305,-4.3305,-4.3305,-4.3305,-4.3305,-4.3305,-4.3305,-4.3305,-4.3305,-4.3305,-4.3305,-4.3305,-4.3305,-4.3305,-4.3305,-4.3305,-4.3305,-4.3305,-4.3305,-4.3305,-4.3305,-4.3305,-4.3305,-4.3305,-4.3305,-4.3305,-4.3305,-4.3305,-4.3305,-4.3305,-4.3305,-4.3305,-4.3305,-4.3305,-4.3305,-4.3305,-4.3305,-4.3305,-4.3305,-4.3305,-4.3305,-4.3305,-4.329,-4.326,-4.2731,-4.2171,-4.1512,-4.0801,-4.0202,-3.9508,-3.9388,-3.9388,-3.9388,-3.9388,-3.9388,-3.9388,-3.9388,-3.9388,-3.9388,-3.9388,-3.9388,-3.9388,-3.9388,-3.9388,-3.9388,-3.9388,-3.9388,-3.9388,-3.9388,-3.9388,-3.9388,-3.9388,-3.9388,-3.9388,-3.9388,-3.9388,-3.9388,-3.9388,-3.9388,-3.9388,-3.9388,-3.9388,-3.9388,-3.9388,-3.9388,-3.9388,-3.9388,-3.643,-3.6417,-3.6417,-3.6468,-3.6531,-3.7104,-3.7642,-3.8219,-3.9356,-4.056,-4.174,-4.2809,-4.317,-4.3305,-4.3305,-4.3305,-4.3305,-4.3305,-4.3305,-4.3305,-4.3305,-4.3305,-4.3305,-4.3305,-4.3305,-4.3305,-4.3305,-4.3305,-4.3305,-4.3305,-4.3305,-4.3305,-4.3305,-4.3305,-4.3305,-4.3305,-4.3305,-4.3305,-4.3305,-4.3305,-4.3305,-4.3305,-4.3305,-4.3305,-4.3305,-4.3305,-4.3305,-4.3305,-4.3305,-4.3305,-4.3305,-4.3305,-4.3305,-4.3305,-4.3305,-4.3305,-4.3305,-4.3305,-4.3305,-4.3305,-4.3305,-4.3305,-4.3305,-4.3305,-4.3305,-4.3305,-4.3305,-4.3305,-4.3305,-4.3305,-4.329,-4.2776,-4.2261,-4.1617,-4.092,-4.0307,-3.9702,-3.9388,-3.9388,-3.9388,-3.9388,-3.9388,-3.9388,-3.9388,-3.9388,-3.9388,-3.9388,-3.9388,-3.9388,-3.9388,-3.9388,-3.9388,-3.9388,-3.9388,-3.9388,-3.9388,-3.9388,-3.9388,-3.9388,-3.9388,-3.9388,-3.9388,-3.9388,-3.9388,-3.9388,-3.9388,-3.9388,-3.9388,-3.9388,-3.9388,-3.9388,-3.9388,-3.9388,-3.9388,-3.9388,-3.6417,-3.6417,-3.6417,-3.6417,-3.643,-3.6568,-3.7151,-3.8121,-3.8545,-3.9697,-4.1643,-4.1932,-4.2603,-4.325,-4.3305,-4.3305,-4.3305,-4.3305,-4.3305,-4.3305,-4.3305,-4.3305,-4.3305,-4.3305,-4.3305,-4.3305,-4.3305,-4.3305,-4.3305,-4.3305,-4.3305,-4.3305,-4.3305,-4.3305,-4.3305,-4.3305,-4.3305,-4.3305,-4.3305,-4.3305,-4.3305,-4.3305,-4.3305,-4.3305,-4.3305,-4.3305,-4.3305,-4.3305,-4.3305,-4.3305,-4.3305,-4.3305,-4.3305,-4.3305,-4.3305,-4.3305,-4.3305,-4.3305,-4.3305,-4.3305,-4.3305,-4.3305,-4.3305,-4.3305,-4.3305,-4.3305,-4.3305,-4.3305,-4.3305,-4.3305,-4.3095,-4.2626,-4.2081,-4.1467,-4.0741,-4.0038,-3.9508,-3.9388,-3.9388,-3.9388,-3.9388,-3.9388,-3.9388,-3.9388,-3.9388,-3.9388,-3.9388,-3.9388,-3.9388,-3.9388,-3.9388,-3.9388,-3.9388,-3.9388,-3.9388,-3.9388,-3.9388,-3.9388,-3.9388,-3.9388,-3.9388,-3.9388,-3.9388,-3.9388,-3.9388,-3.9388,-3.9388,-3.9388,-3.9388,-3.9388,-3.9388,-3.9388,-3.9388,-3.9388,-3.9388,-3.6417,-3.6417,-3.6417,-3.6417,-3.6417,-3.6417,-3.6849,-3.7461,-3.7893,-3.9407,-4.1448,-4.1629,-4.2249,-4.317,-4.3305,-4.3305,-4.3305,-4.3305,-4.3305,-4.3305,-4.3305,-4.3305,-4.3305,-4.3305,-4.3305,-4.3305,-4.3305,-4.3305,-4.3305,-4.3305,-4.3305,-4.3305,-4.3305,-4.3305,-4.3305,-4.3305,-4.3305,-4.3305,-4.3305,-4.3305,-4.3305,-4.3305,-4.3305,-4.3305,-4.3305,-4.3305,-4.3305,-4.3305,-4.3305,-4.3305,-4.3305,-4.3305,-4.3305,-4.3305,-4.3305,-4.3305,-4.3305,-4.3305,-4.3305,-4.3305,-4.3305,-4.3305,-4.3305,-4.3305,-4.3305,-4.3305,-4.3305,-4.3305,-4.3305,-4.323,-4.294,-4.2566,-4.1998,-4.1452,-4.0636,-3.9858,-3.9619,-3.9418,-3.9388,-3.9388,-3.9388,-3.9388,-3.9388,-3.9388,-3.9388,-3.9388,-3.9388,-3.9388,-3.9388,-3.9388,-3.9388,-3.9388,-3.9388,-3.9388,-3.9388,-3.9388,-3.9388,-3.9388,-3.9388,-3.9388,-3.9388,-3.9388,-3.9388,-3.9388,-3.9388,-3.9388,-3.9388,-3.9388,-3.9388,-3.9388,-3.9388,-3.9388,-3.9388,-3.9388,-3.9388,-3.6417,-3.6417,-3.6417,-3.6417,-3.6417,-3.6417,-3.6465,-3.6499,-3.7461,-3.9142,-4.0887,-4.1378,-4.1988,-4.282,-4.3115,-4.3305,-4.3305,-4.3305,-4.3305,-4.3305,-4.3305,-4.3305,-4.3305,-4.3305,-4.3305,-4.3305,-4.3305,-4.3305,-4.3305,-4.3305,-4.3305,-4.3305,-4.3305,-4.3305,-4.3305,-4.3305,-4.3305,-4.3305,-4.3305,-4.3305,-4.3305,-4.3305,-4.3305,-4.3305,-4.3305,-4.3305,-4.3305,-4.3305,-4.3305,-4.3305,-4.3305,-4.3305,-4.3305,-4.3305,-4.3305,-4.3305,-4.3305,-4.3305,-4.3305,-4.3305,-4.3305,-4.3305,-4.3305,-4.3305,-4.3305,-4.3305,-4.3305,-4.3305,-4.3305,-4.3305,-4.305,-4.2312,-4.1647,-4.1085,-4.0442,-3.9843,-3.9493,-3.9388,-3.9388,-3.9388,-3.9388,-3.9388,-3.9388,-3.9388,-3.9388,-3.9388,-3.9388,-3.9388,-3.9388,-3.9388,-3.9388,-3.9388,-3.9388,-3.9388,-3.9388,-3.9388,-3.9388,-3.9388,-3.9388,-3.9388,-3.9388,-3.9388,-3.9388,-3.9388,-3.9388,-3.9388,-3.9388,-3.9388,-3.9388,-3.9388,-3.9388,-3.9388,-3.9388,-3.9388,-3.9388,-3.6417,-3.6417,-3.6417,-3.6417,-3.6417,-3.6417,-3.6417,-3.6417,-3.6675,-3.7678,-3.8948,-3.9915,-4.1014,-4.207,-4.29,-4.317,-4.329,-4.3305,-4.3305,-4.3305,-4.3305,-4.3305,-4.3305,-4.3305,-4.3305,-4.3305,-4.3305,-4.3305,-4.3305,-4.3305,-4.3305,-4.3305,-4.3305,-4.3305,-4.3305,-4.3305,-4.3305,-4.3305,-4.3305,-4.3305,-4.3305,-4.3305,-4.3305,-4.3305,-4.3305,-4.3305,-4.3305,-4.3305,-4.3305,-4.3305,-4.3305,-4.3305,-4.3305,-4.3305,-4.3305,-4.3305,-4.3305,-4.3305,-4.3305,-4.3305,-4.3305,-4.3305,-4.3305,-4.3305,-4.3305,-4.3305,-4.3305,-4.3305,-4.3305,-4.3305,-4.3021,-4.2132,-4.1362,-4.0816,-4.0262,-3.9828,-3.9388,-3.9388,-3.9388,-3.9388,-3.9388,-3.9388,-3.9388,-3.9388,-3.9388,-3.9388,-3.9388,-3.9388,-3.9388,-3.9388,-3.9388,-3.9388,-3.9388,-3.9388,-3.9388,-3.9388,-3.9388,-3.9388,-3.9388,-3.9388,-3.9388,-3.9388,-3.9388,-3.9388,-3.9388,-3.9388,-3.9388,-3.9388,-3.9388,-3.9388,-3.9388,-3.9388,-3.9388,-3.9388,-3.9388,-3.6417,-3.6417,-3.6417,-3.6417,-3.6417,-3.6417,-3.6417,-3.6417,-3.6417,-3.6756,-3.7448,-3.8604,-4.0002,-4.1378,-4.229,-4.3036,-4.3195,-4.3305,-4.3305,-4.3305,-4.3305,-4.3305,-4.3305,-4.3305,-4.3305,-4.3305,-4.3305,-4.3305,-4.3305,-4.3305,-4.3305,-4.3305,-4.3305,-4.3305,-4.3305,-4.3305,-4.3305,-4.3305,-4.3305,-4.3305,-4.3305,-4.3305,-4.3305,-4.3305,-4.3305,-4.3305,-4.3305,-4.3305,-4.3305,-4.3305,-4.3305,-4.3305,-4.3305,-4.3305,-4.3305,-4.3305,-4.3305,-4.3305,-4.3305,-4.3305,-4.3305,-4.3305,-4.3305,-4.3305,-4.3305,-4.3305,-4.3305,-4.3305,-4.3305,-4.3305,-4.2946,-4.2222,-4.1609,-4.1085,-4.0247,-3.9538,-3.9388,-3.9388,-3.9388,-3.9388,-3.9388,-3.9388,-3.9388,-3.9388,-3.9388,-3.9388,-3.9388,-3.9388,-3.9388,-3.9388,-3.9388,-3.9388,-3.9388,-3.9388,-3.9388,-3.9388,-3.9388,-3.9388,-3.9388,-3.9388,-3.9388,-3.9388,-3.9388,-3.9388,-3.9388,-3.9388,-3.9388,-3.9388,-3.9388,-3.9388,-3.9388,-3.9388,-3.9388,-3.9388,-3.9388,-3.6417,-3.6417,-3.6417,-3.6417,-3.6417,-3.6417,-3.6417,-3.6417,-3.6417,-3.6417,-3.6581,-3.7494,-3.9275,-4.0718,-4.1629,-4.2426,-4.2996,-4.325,-4.3305,-4.3305,-4.3305,-4.3305,-4.3305,-4.3305,-4.3305,-4.3305,-4.3305,-4.3305,-4.3305,-4.3305,-4.3305,-4.3305,-4.3305,-4.3305,-4.3305,-4.3305,-4.3305,-4.3305,-4.3305,-4.3305,-4.3305,-4.3305,-4.3305,-4.3305,-4.3305,-4.3305,-4.3305,-4.3305,-4.3305,-4.3305,-4.3305,-4.3305,-4.3305,-4.3305,-4.3305,-4.3305,-4.3305,-4.3305,-4.3305,-4.3305,-4.3305,-4.3305,-4.3305,-4.3305,-4.3305,-4.3305,-4.3305,-4.3275,-4.3275,-4.3095,-4.2791,-4.2282,-4.1698,-4.107,-4.0142,-3.9388,-3.9388,-3.9388,-3.9388,-3.9388,-3.9388,-3.9388,-3.9388,-3.9388,-3.9388,-3.9388,-3.9388,-3.9388,-3.9388,-3.9388,-3.9388,-3.9388,-3.9388,-3.9388,-3.9388,-3.9388,-3.9388,-3.9388,-3.9388,-3.9388,-3.9388,-3.9388,-3.9388,-3.9388,-3.9388,-3.9388,-3.9388,-3.9388,-3.9388,-3.9388,-3.9388,-3.9388,-3.9388,-3.9388,-3.9388,-3.6417,-3.6417,-3.6417,-3.6405,-3.6405,-3.6405,-3.6417,-3.6405,-3.638,-3.6417,-3.6364,-3.6696,-3.803,-4.0261,-4.1253,-4.2208,-4.317,-4.3305,-4.3305,-4.3305,-4.3305,-4.3305,-4.3305,-4.3305,-4.3305,-4.3305,-4.3305,-4.3305,-4.3305,-4.3305,-4.3305,-4.3305,-4.3305,-4.3305,-4.3305,-4.3305,-4.3305,-4.3305,-4.3305,-4.3305,-4.3305,-4.3305,-4.3305,-4.3305,-4.3305,-4.3305,-4.3305,-4.3305,-4.3305,-4.3305,-4.3305,-4.3305,-4.3305,-4.3305,-4.3305,-4.3305,-4.3305,-4.3305,-4.3305,-4.3305,-4.3305,-4.3305,-4.3305,-4.3305,-4.3305,-4.3305,-4.326,-4.317,-4.3135,-4.2925,-4.2536,-4.1848,-4.122,-4.0606,-3.9777,-3.9508,-3.9388,-3.9388,-3.9388,-3.9388,-3.9388,-3.9388,-3.9388,-3.9388,-3.9388,-3.9388,-3.9388,-3.9388,-3.9388,-3.9388,-3.9388,-3.9388,-3.9388,-3.9388,-3.9388,-3.9388,-3.9388,-3.9388,-3.9388,-3.9388,-3.9388,-3.9388,-3.9388,-3.9388,-3.9388,-3.9388,-3.9388,-3.9388,-3.9388,-3.9388,-3.9388,-3.9388,-3.9388,-3.9388,-3.9388]}]]